[[{"header":{"parameterUnit":"m.s-1","parameterCategory":1,"la1":30.6,"la2":29.2853,"lo1":-89.7004,"lo2":-87.6739,"dy":0.0162,"dx":0.0183,"nx":112,"ny":82,"refTime":"2023-04-05T06:00:00:Z","depth":0,"parameterNumber":2,"parameterNumberName":"U-component_of_WINDS"},"data":[0.0,0.0,0.0,0.0,0.0,0.0,0.0,0.0,0.0,0.0,0.0,0.0,0.0,0.0,0.0,0.0,0.0,0.0,0.0,0.0,0.0,0.0,0.0,0.0,0.0,0.0,0.0,0.0,0.0,0.0,0.0,0.0,0.0,0.0,0.0,0.0,0.0,0.0,0.0,0.0,0.0,0.0,0.0,0.0,0.0,0.0,0.0,0.0,0.0,0.0,0.0,0.0,0.0,0.0,0.0,0.0,0.0,0.0,0.0,0.0,0.0,0.0,0.0,0.0,0.0,0.0,0.0,0.0,0.0,0.0,0.0,0.0,0.0,0.0,0.0,0.0,0.0,0.0,0.0,0.0,0.0,0.0,0.0,0.0,0.0,0.0,0.0,0.0,0.0,0.0,-3.513,-3.6028,-3.8182,-3.926,-3.8452,-3.7315,-3.6327,-3.5549,0.0,0.0,0.0,0.0,0.0,0.0,0.0,0.0,0.0,0.0,0.0,0.0,0.0,0.0,0.0,0.0,0.0,0.0,0.0,0.0,0.0,0.0,0.0,0.0,0.0,0.0,0.0,0.0,0.0,0.0,0.0,0.0,0.0,0.0,0.0,0.0,0.0,0.0,0.0,0.0,0.0,0.0,0.0,0.0,0.0,0.0,0.0,0.0,0.0,0.0,0.0,0.0,0.0,0.0,0.0,0.0,0.0,0.0,0.0,0.0,0.0,0.0,0.0,0.0,0.0,0.0,0.0,0.0,0.0,0.0,0.0,0.0,0.0,0.0,0.0,0.0,0.0,0.0,0.0,0.0,0.0,0.0,0.0,0.0,0.0,0.0,0.0,0.0,0.0,0.0,0.0,0.0,0.0,0.0,0.0,0.0,0.0,0.0,0.0,0.0,0.0,0.0,0.0,0.0,-3.6866,-3.8631,-3.9679,-3.9738,-3.8512,-3.522,-3.3903,-3.54,0.0,0.0,0.0,0.0,0.0,0.0,0.0,0.0,0.0,0.0,0.0,0.0,0.0,0.0,0.0,0.0,0.0,0.0,0.0,0.0,0.0,0.0,0.0,0.0,0.0,0.0,0.0,0.0,0.0,0.0,0.0,0.0,0.0,0.0,0.0,0.0,0.0,0.0,0.0,0.0,0.0,0.0,0.0,0.0,0.0,0.0,0.0,0.0,0.0,0.0,0.0,0.0,0.0,0.0,0.0,0.0,0.0,0.0,0.0,0.0,0.0,0.0,0.0,0.0,0.0,0.0,0.0,0.0,0.0,0.0,0.0,0.0,0.0,0.0,0.0,0.0,0.0,0.0,0.0,0.0,0.0,0.0,0.0,0.0,0.0,0.0,0.0,0.0,0.0,0.0,0.0,0.0,0.0,0.0,0.0,0.0,0.0,0.0,0.0,0.0,0.0,0.0,0.0,-3.5998,-3.6686,-3.8661,-3.914,-3.8931,-3.7943,-3.522,-3.4113,-3.5429,-3.4831,0.0,0.0,0.0,0.0,0.0,0.0,0.0,0.0,0.0,0.0,0.0,0.0,0.0,0.0,0.0,0.0,0.0,0.0,0.0,0.0,0.0,0.0,0.0,0.0,0.0,0.0,0.0,0.0,0.0,0.0,0.0,0.0,0.0,0.0,0.0,0.0,0.0,0.0,0.0,0.0,0.0,0.0,0.0,0.0,0.0,0.0,0.0,0.0,0.0,0.0,0.0,0.0,0.0,0.0,0.0,0.0,0.0,0.0,0.0,0.0,0.0,0.0,0.0,0.0,0.0,0.0,0.0,0.0,0.0,0.0,0.0,0.0,0.0,0.0,0.0,0.0,0.0,0.0,0.0,0.0,0.0,0.0,0.0,0.0,0.0,0.0,0.0,0.0,0.0,0.0,0.0,0.0,0.0,0.0,0.0,0.0,0.0,0.0,0.0,0.0,0.0,0.0,-3.6387,-3.6806,-3.8452,-3.8482,-3.8123,-3.7464,-3.519,-3.4262,-3.5429,-3.3933,0.0,0.0,0.0,0.0,0.0,0.0,0.0,0.0,0.0,0.0,0.0,0.0,0.0,0.0,0.0,0.0,0.0,0.0,0.0,0.0,0.0,0.0,0.0,0.0,0.0,0.0,0.0,0.0,0.0,0.0,0.0,0.0,0.0,0.0,0.0,0.0,0.0,0.0,0.0,0.0,0.0,0.0,0.0,0.0,0.0,0.0,0.0,0.0,0.0,0.0,0.0,0.0,0.0,0.0,0.0,0.0,0.0,0.0,0.0,0.0,0.0,0.0,0.0,0.0,0.0,0.0,0.0,0.0,0.0,0.0,0.0,0.0,0.0,0.0,0.0,0.0,0.0,0.0,0.0,0.0,0.0,0.0,0.0,0.0,0.0,0.0,0.0,0.0,0.0,0.0,0.0,0.0,0.0,0.0,0.0,0.0,0.0,0.0,0.0,0.0,0.0,0.0,-3.7853,-3.8482,-3.926,-3.8781,-3.8123,-3.7464,-3.3902,-3.2796,-3.534,-3.3065,0.0,0.0,0.0,0.0,0.0,0.0,0.0,0.0,0.0,0.0,0.0,0.0,0.0,0.0,0.0,0.0,0.0,0.0,0.0,0.0,0.0,0.0,0.0,0.0,0.0,0.0,0.0,0.0,0.0,0.0,0.0,0.0,0.0,0.0,0.0,0.0,0.0,0.0,0.0,0.0,0.0,0.0,0.0,0.0,0.0,0.0,0.0,0.0,0.0,0.0,0.0,0.0,0.0,0.0,0.0,0.0,0.0,0.0,0.0,0.0,0.0,0.0,0.0,0.0,0.0,0.0,0.0,0.0,0.0,0.0,0.0,0.0,0.0,0.0,0.0,0.0,0.0,0.0,0.0,0.0,0.0,0.0,0.0,0.0,0.0,0.0,0.0,0.0,0.0,0.0,0.0,0.0,0.0,0.0,0.0,0.0,0.0,0.0,0.0,0.0,0.0,0.0,-3.7614,-3.8182,0.0,-3.8422,-3.7674,-3.7434,-3.4141,-3.3065,-3.537,0.0,0.0,0.0,0.0,0.0,0.0,0.0,0.0,0.0,0.0,0.0,0.0,0.0,0.0,0.0,0.0,0.0,0.0,0.0,0.0,0.0,0.0,0.0,0.0,0.0,0.0,0.0,0.0,0.0,0.0,0.0,0.0,0.0,0.0,0.0,0.0,0.0,0.0,0.0,0.0,0.0,0.0,0.0,0.0,0.0,0.0,0.0,0.0,0.0,0.0,0.0,0.0,0.0,0.0,0.0,0.0,0.0,0.0,0.0,0.0,0.0,0.0,0.0,0.0,0.0,0.0,0.0,0.0,0.0,0.0,0.0,0.0,0.0,0.0,0.0,0.0,0.0,0.0,0.0,0.0,0.0,0.0,0.0,0.0,0.0,0.0,0.0,0.0,0.0,0.0,0.0,0.0,0.0,0.0,0.0,0.0,0.0,0.0,0.0,0.0,0.0,0.0,-3.6985,-3.7285,-3.7764,0.0,-3.7943,-3.7255,-3.6836,-3.3932,-3.3066,-3.507,0.0,0.0,0.0,0.0,0.0,0.0,0.0,0.0,0.0,0.0,0.0,0.0,0.0,0.0,0.0,0.0,0.0,0.0,0.0,0.0,0.0,0.0,0.0,0.0,0.0,0.0,0.0,0.0,0.0,0.0,0.0,0.0,0.0,0.0,0.0,0.0,0.0,0.0,0.0,0.0,0.0,0.0,0.0,0.0,0.0,0.0,0.0,0.0,0.0,0.0,0.0,0.0,0.0,0.0,0.0,0.0,0.0,0.0,0.0,0.0,0.0,0.0,0.0,0.0,0.0,0.0,0.0,0.0,0.0,0.0,0.0,0.0,0.0,0.0,0.0,0.0,0.0,0.0,0.0,0.0,0.0,0.0,0.0,0.0,0.0,0.0,0.0,0.0,0.0,0.0,0.0,0.0,0.0,0.0,0.0,0.0,0.0,0.0,0.0,0.0,0.0,0.0,-3.6387,-3.7015,-3.737,-3.737,-3.737,-3.6832,-3.5576,-3.3005,-3.2348,0.0,0.0,0.0,0.0,0.0,0.0,0.0,0.0,0.0,0.0,0.0,0.0,0.0,0.0,0.0,0.0,0.0,0.0,0.0,0.0,0.0,0.0,0.0,0.0,0.0,0.0,0.0,0.0,0.0,0.0,0.0,0.0,0.0,0.0,0.0,0.0,0.0,0.0,0.0,0.0,0.0,0.0,0.0,0.0,0.0,0.0,0.0,0.0,0.0,0.0,0.0,0.0,0.0,0.0,0.0,0.0,0.0,0.0,0.0,0.0,0.0,0.0,0.0,0.0,0.0,0.0,0.0,0.0,0.0,0.0,0.0,0.0,0.0,0.0,0.0,0.0,0.0,0.0,0.0,0.0,0.0,0.0,0.0,0.0,0.0,0.0,0.0,0.0,0.0,0.0,0.0,0.0,0.0,0.0,0.0,0.0,0.0,0.0,0.0,0.0,0.0,0.0,0.0,-3.6387,-3.6026,-3.5881,-3.6347,-3.5404,-3.4413,-3.3646,-3.1229,-3.0857,-3.3401,0.0,0.0,0.0,0.0,0.0,0.0,0.0,0.0,0.0,0.0,0.0,0.0,0.0,0.0,0.0,0.0,0.0,0.0,0.0,0.0,0.0,0.0,0.0,0.0,0.0,0.0,0.0,0.0,0.0,0.0,0.0,0.0,0.0,0.0,0.0,0.0,0.0,0.0,0.0,0.0,0.0,0.0,0.0,0.0,0.0,0.0,0.0,0.0,0.0,0.0,0.0,0.0,0.0,0.0,0.0,0.0,0.0,0.0,0.0,0.0,0.0,0.0,0.0,0.0,0.0,0.0,0.0,0.0,0.0,0.0,0.0,0.0,0.0,0.0,0.0,0.0,0.0,0.0,0.0,0.0,0.0,0.0,0.0,0.0,0.0,0.0,0.0,0.0,0.0,0.0,0.0,0.0,0.0,0.0,0.0,0.0,0.0,0.0,0.0,0.0,0.0,0.0,-3.5473,-3.4961,-3.4628,-3.4647,-3.4024,-3.3245,-3.238,-3.0494,-3.0058,-3.1833,0.0,0.0,0.0,0.0,0.0,0.0,0.0,0.0,0.0,0.0,0.0,0.0,0.0,0.0,0.0,0.0,0.0,0.0,0.0,0.0,0.0,0.0,0.0,0.0,0.0,0.0,0.0,0.0,0.0,0.0,0.0,0.0,0.0,0.0,0.0,0.0,0.0,0.0,0.0,0.0,0.0,0.0,0.0,0.0,0.0,0.0,0.0,0.0,0.0,0.0,0.0,0.0,0.0,0.0,0.0,0.0,0.0,0.0,0.0,0.0,0.0,0.0,0.0,0.0,0.0,0.0,0.0,0.0,0.0,0.0,0.0,0.0,0.0,0.0,0.0,0.0,0.0,0.0,0.0,0.0,0.0,0.0,0.0,0.0,0.0,0.0,0.0,0.0,0.0,0.0,0.0,0.0,0.0,0.0,0.0,0.0,0.0,0.0,0.0,0.0,0.0,0.0,-3.4057,-3.3785,-3.3344,-3.2558,-3.2946,-3.2736,-3.1443,-3.0269,-2.9652,-2.9936,0.0,0.0,0.0,0.0,0.0,0.0,0.0,0.0,0.0,0.0,0.0,0.0,0.0,0.0,0.0,0.0,0.0,0.0,0.0,0.0,0.0,0.0,0.0,0.0,0.0,0.0,0.0,0.0,0.0,0.0,0.0,0.0,0.0,0.0,0.0,0.0,0.0,0.0,0.0,0.0,0.0,0.0,0.0,0.0,0.0,0.0,0.0,0.0,0.0,0.0,0.0,0.0,0.0,0.0,0.0,0.0,0.0,0.0,0.0,0.0,-3.2287,0.0,0.0,0.0,0.0,0.0,0.0,0.0,0.0,0.0,0.0,0.0,0.0,0.0,0.0,0.0,0.0,0.0,0.0,0.0,0.0,0.0,0.0,0.0,0.0,0.0,0.0,0.0,0.0,0.0,0.0,0.0,0.0,0.0,0.0,0.0,0.0,0.0,0.0,0.0,0.0,0.0,-3.3926,-3.2347,-3.1272,-3.1483,-3.095,-3.0278,-2.9548,-2.8446,-2.8334,-2.9552,-2.8371,0.0,0.0,0.0,0.0,0.0,0.0,0.0,0.0,0.0,0.0,0.0,0.0,0.0,0.0,0.0,0.0,0.0,0.0,0.0,0.0,0.0,0.0,0.0,0.0,0.0,0.0,0.0,0.0,0.0,0.0,0.0,0.0,0.0,0.0,0.0,0.0,0.0,0.0,0.0,0.0,0.0,0.0,0.0,0.0,0.0,0.0,0.0,0.0,0.0,0.0,0.0,0.0,0.0,0.0,0.0,0.0,0.0,0.0,0.0,0.0,-3.2657,0.0,0.0,0.0,0.0,0.0,0.0,0.0,0.0,0.0,0.0,0.0,0.0,0.0,0.0,0.0,0.0,0.0,0.0,0.0,0.0,0.0,0.0,0.0,0.0,0.0,0.0,0.0,0.0,0.0,0.0,0.0,0.0,0.0,0.0,0.0,0.0,0.0,0.0,0.0,0.0,-3.2659,-3.1038,-3.0089,-3.0467,-3.0101,-2.9679,-2.9377,-2.8323,-2.7885,-2.8418,-2.7661,0.0,0.0,0.0,0.0,0.0,0.0,0.0,0.0,0.0,0.0,0.0,0.0,0.0,0.0,0.0,0.0,0.0,0.0,0.0,0.0,0.0,0.0,0.0,0.0,0.0,0.0,0.0,0.0,0.0,0.0,0.0,0.0,0.0,0.0,0.0,0.0,0.0,0.0,0.0,0.0,0.0,0.0,0.0,0.0,0.0,0.0,0.0,0.0,0.0,0.0,0.0,0.0,0.0,-4.1825,-4.1914,-4.2186,-4.1175,-4.0354,-3.9622,-3.8206,-3.5475,-3.2083,-3.3403,0.0,0.0,0.0,0.0,0.0,0.0,0.0,0.0,0.0,0.0,0.0,0.0,0.0,0.0,0.0,0.0,0.0,0.0,0.0,0.0,0.0,0.0,0.0,0.0,-3.2416,-3.2408,-3.3754,0.0,0.0,0.0,0.0,0.0,0.0,0.0,0.0,0.0,0.0,0.0,-3.1256,-3.0089,-2.9445,-2.9756,-2.9804,-2.9804,-2.9804,-2.875,-2.7921,-2.7444,-2.7143,-2.6666,0.0,0.0,0.0,0.0,0.0,0.0,0.0,0.0,0.0,0.0,0.0,0.0,0.0,0.0,0.0,0.0,0.0,0.0,0.0,0.0,0.0,0.0,0.0,0.0,0.0,0.0,0.0,0.0,0.0,0.0,0.0,0.0,-3.9168,-3.7402,0.0,0.0,0.0,0.0,0.0,0.0,0.0,0.0,0.0,0.0,0.0,0.0,0.0,-4.2102,-4.2632,-4.2312,-4.1594,-4.0598,-4.2307,-4.2535,-4.1506,-4.3019,-4.4303,-4.5198,-4.4422,0.0,-3.5701,-3.26,0.0,0.0,0.0,0.0,0.0,0.0,0.0,0.0,0.0,0.0,0.0,0.0,0.0,0.0,0.0,0.0,0.0,0.0,0.0,0.0,0.0,0.0,-2.8373,-3.0984,-3.1562,-3.1543,0.0,-3.2906,-3.387,-3.3872,-3.3501,0.0,0.0,0.0,0.0,0.0,0.0,0.0,-3.1204,-2.9902,-2.9164,-2.9729,-2.9804,-2.9804,-2.9804,-2.875,-2.8072,-2.7996,-2.6615,-2.6189,-2.7017,-2.688,0.0,0.0,0.0,0.0,0.0,0.0,0.0,0.0,0.0,0.0,0.0,0.0,0.0,0.0,0.0,0.0,0.0,0.0,0.0,0.0,0.0,0.0,0.0,0.0,0.0,0.0,0.0,0.0,0.0,-3.9484,-4.0907,-3.7834,-4.1102,-4.2551,0.0,0.0,0.0,0.0,0.0,0.0,0.0,0.0,0.0,-4.0127,-4.2641,-4.3778,-4.329,-4.4167,-4.4672,-4.4798,-4.5717,-4.6045,-4.5806,-4.6701,-4.7429,-4.7967,-4.7668,-4.57,-4.2361,-3.8592,-3.6258,-3.4936,0.0,0.0,0.0,0.0,-3.3796,-3.3315,-3.2964,-3.2434,0.0,-3.1232,0.0,0.0,0.0,0.0,0.0,0.0,0.0,0.0,0.0,0.0,-3.0357,-3.1562,-3.2089,-3.224,-3.1913,-3.2387,-3.2776,0.0,-3.2673,-3.2782,-3.2331,0.0,0.0,0.0,0.0,-3.0141,-2.9954,-2.9314,-2.9113,-2.9729,-2.9804,-2.9804,-2.9804,-2.875,-2.8097,-2.8097,-2.6841,-2.6197,-2.6339,-2.6751,-2.7153,0.0,0.0,0.0,0.0,0.0,0.0,0.0,0.0,0.0,0.0,0.0,0.0,0.0,0.0,0.0,0.0,0.0,0.0,0.0,0.0,0.0,0.0,0.0,0.0,0.0,0.0,0.0,0.0,-4.0817,-4.2462,-3.8455,-4.2519,-4.4179,0.0,0.0,0.0,0.0,0.0,0.0,-4.0876,-4.3539,-4.4167,-4.2192,-4.4855,-4.5843,-4.4855,-4.6322,-4.7668,-4.8775,-4.8775,-4.9134,-4.9808,-4.9808,-4.9808,-4.9763,-4.9583,-4.8865,-4.7535,-4.3588,-4.0164,-3.7392,-3.6872,-3.6828,-3.7039,-3.6772,-3.6951,-3.727,-3.6553,-3.5452,-3.4273,-3.3699,-3.2344,-3.0884,-3.0206,0.0,0.0,0.0,0.0,-2.9277,-2.9854,-3.0909,-3.1913,-3.234,-3.2767,-3.3011,-3.2516,-3.2441,-3.219,0.0,-3.1741,-3.2032,-3.1512,0.0,0.0,0.0,0.0,-2.9615,-2.9177,-2.9113,-2.9327,-2.9754,-2.9804,-2.9804,-2.9804,-2.875,-2.8097,-2.8097,-2.7102,-2.6298,-2.5837,-2.665,-2.6977,-2.67,0.0,0.0,0.0,0.0,0.0,0.0,0.0,0.0,0.0,0.0,0.0,0.0,0.0,0.0,0.0,0.0,0.0,0.0,0.0,0.0,0.0,0.0,0.0,0.0,0.0,0.0,0.0,0.0,0.0,-4.0039,-4.4158,0.0,0.0,0.0,0.0,-4.2961,-4.3648,-4.3539,-4.2381,-4.5364,-4.6232,-4.4227,-4.7339,-4.909,-4.9,-4.912,-4.9464,-5.0076,-5.0076,-5.0435,-5.1109,-5.1109,-5.1109,-5.1079,-5.0405,-4.9793,-4.882,-4.4137,-4.1942,-4.129,-3.811,-3.7517,-3.8265,-3.7276,-3.6894,-3.6754,-3.5667,-3.4103,-3.2776,-3.374,-3.3201,-3.1938,-3.0884,-3.0884,0.0,0.0,-2.9704,-2.988,-3.0432,-3.0633,-3.1085,-3.2667,-3.3068,-3.3111,-3.3043,-3.3043,-3.2566,0.0,-3.027,-2.9932,-2.9907,0.0,-2.9934,-2.9831,-3.0234,-3.0346,-2.9804,-2.9754,-2.9754,-2.9804,-2.9804,-2.9804,-2.9804,-2.875,-2.8097,-2.8097,-2.7102,-2.6474,-2.6449,-2.6499,-2.6776,-2.7243,-2.7293,0.0,0.0,0.0,0.0,0.0,0.0,0.0,0.0,0.0,0.0,0.0,0.0,0.0,0.0,0.0,0.0,0.0,0.0,0.0,0.0,0.0,0.0,0.0,0.0,0.0,0.0,0.0,0.0,-4.5618,-4.9144,0.0,-4.613,-4.5035,-4.4766,-4.5173,-4.5873,-4.6022,-4.5574,-4.8656,-4.9942,-4.8805,-5.0331,-5.1169,-5.1169,-5.075,-5.0631,-5.0823,-5.0823,-5.099,-5.1229,-5.1229,-5.1229,-5.1199,-5.0913,-5.0272,-4.9164,-4.7435,-4.5968,-4.4566,-4.2931,-4.2532,-4.2814,-4.2456,-4.2573,-4.2849,-4.1979,-4.0281,-3.8036,-3.5366,-3.3454,-3.2014,-3.0934,-3.0507,-3.0206,-2.9453,-3.0005,-3.0959,-3.1512,-3.2441,-3.3319,-3.3545,-3.3596,-3.352,-3.3144,-3.3111,-3.2692,-3.1361,-3.0959,-3.0608,-2.9905,-2.9478,-2.9227,-2.9227,-2.9364,-2.9414,-2.9277,-2.9553,-2.9804,-2.9804,-2.9804,-2.9654,-2.9277,-2.8549,-2.7946,-2.7595,-2.6901,-2.6499,-2.6499,-2.6499,-2.6575,-2.6776,-2.6801,-2.7223,0.0,0.0,0.0,0.0,0.0,0.0,0.0,0.0,0.0,0.0,0.0,0.0,0.0,0.0,0.0,0.0,0.0,0.0,0.0,0.0,0.0,0.0,0.0,0.0,0.0,0.0,-4.9247,-4.9266,-5.2233,-5.3131,-5.0229,-4.8536,-4.7774,-4.8267,-4.8716,-4.9045,-4.9284,-5.1558,-5.2576,-5.1917,-5.2546,-5.2665,-5.2187,-5.1768,-5.1439,-5.1229,-5.1229,-5.1229,-5.1229,-5.1229,-5.1229,-5.1199,-5.075,-5.0062,-4.9269,-4.882,-4.7848,-4.6621,-4.6142,-4.5963,-4.5963,-4.5963,-4.6262,-4.6403,-4.4699,-4.2704,-4.0204,-3.6288,-3.4204,-3.3169,-3.2223,-3.1612,-3.111,-3.0708,-3.1386,-3.2315,-3.2692,-3.3621,-3.4349,-3.3997,-3.3746,-3.352,-3.3169,-3.3111,-3.2742,-3.1612,-3.1386,-3.106,-2.998,-2.9478,-2.9189,-2.9189,-2.9189,-2.9189,-2.9189,-2.9553,-2.9804,-2.9804,-2.9804,-2.9628,-2.9252,-2.8699,-2.8222,-2.7871,-2.7178,-2.6776,-2.6776,-2.6776,-2.6656,-2.6477,-2.6477,-2.6932,-2.7824,0.0,0.0,0.0,0.0,0.0,0.0,0.0,0.0,0.0,0.0,0.0,0.0,0.0,0.0,0.0,0.0,0.0,0.0,0.0,0.0,0.0,0.0,0.0,-4.2376,-4.8965,-5.2786,-5.0773,-5.3223,-5.4129,-5.1683,-5.0794,-5.0913,-5.2247,-5.2306,-5.2576,-5.3174,-5.3862,-5.3922,-5.3234,-5.3832,-5.3563,-5.2247,-5.2187,-5.1858,-5.1229,-5.1229,-5.1229,-5.1229,-5.1229,-5.1229,-5.1139,-4.9883,-4.9359,-4.9209,-4.7908,-4.7339,-4.7309,-4.7309,-4.7309,-4.7309,-4.7279,-4.7206,-4.6634,-4.2947,-4.0558,-3.8675,-3.6299,-3.5508,-3.5408,-3.4856,-3.4349,-3.3922,-3.3922,-3.3947,-3.3947,-3.3947,-3.3947,-3.3947,-3.3922,-3.3495,-3.3093,-3.3111,-3.3111,-3.2742,-3.1612,-3.1411,-3.106,-2.998,-2.9804,-2.9804,-2.9804,-2.9804,0.0,-2.9804,-2.9804,-2.9804,-2.9804,-2.9804,-2.9779,-2.9754,-2.9252,-2.8888,-2.8838,-2.7871,-2.7268,-2.7304,-2.7304,-2.7026,-2.6519,-2.6544,-2.6824,-2.7337,0.0,0.0,0.0,0.0,0.0,0.0,0.0,0.0,0.0,0.0,0.0,0.0,0.0,0.0,0.0,0.0,0.0,0.0,0.0,0.0,0.0,0.0,-4.8418,-5.0061,-5.1611,-5.368,-5.6739,-5.7618,-5.7721,-5.7027,-5.5897,-5.5179,-5.5089,-5.5089,-5.476,-5.3982,-5.4551,-5.461,-5.3952,-5.3623,-5.3294,-5.2905,-5.1977,-5.1409,-5.1229,-5.1229,-5.1229,-5.1229,-5.1229,-5.1229,-5.1199,-5.084,-5.0152,-4.9269,-4.891,-4.8177,-4.7309,-4.7309,-4.7309,-4.7249,-4.677,-4.5424,-4.3502,-4.0813,-3.9188,-3.8109,-3.6629,-3.5881,-3.5483,-3.5307,-3.4881,-3.45,-3.45,-3.4731,-3.5056,-3.5056,-3.5056,-3.4956,-3.46,-3.4073,-3.3571,-3.3169,-3.3111,-3.2742,-3.1612,-3.1712,-3.1512,-3.0055,-2.9804,-2.9804,-2.9804,-2.9804,0.0,-2.9804,-2.9804,-2.9804,-2.9804,-2.9804,-2.9628,-2.9164,-2.8988,-2.8562,-2.7795,-2.7444,-2.7128,-2.6751,-2.6725,-2.6666,-2.6486,-2.7253,-2.7742,0.0,0.0,0.0,0.0,0.0,0.0,0.0,0.0,0.0,0.0,0.0,0.0,0.0,0.0,0.0,0.0,0.0,0.0,0.0,0.0,0.0,0.0,-4.8329,-5.265,-5.5579,-5.513,-5.5736,-5.9027,-5.9205,-5.9099,-5.9099,-5.8141,-5.7363,-5.7004,-5.6466,-5.5837,-5.5059,-5.5119,-5.5029,-5.464,-5.3952,-5.3473,-5.3174,-5.2157,-5.1498,-5.1229,-5.1229,-5.1229,-5.1229,-5.1229,-5.1229,-5.1199,-5.0631,-4.9972,-4.9269,-4.8686,-4.7997,0.0,0.0,0.0,0.0,0.0,-4.4752,-4.2338,-4.0429,-3.9085,-3.788,-3.6756,-3.6132,-3.5881,-3.5881,-3.5353,-3.468,-3.468,-3.4731,-3.4806,-3.4806,-3.4806,-3.4731,-3.4449,-3.3947,-3.347,-3.3187,-3.3111,-3.2817,-3.1913,-3.1989,0.0,-3.0658,-3.0281,-3.0131,-3.0131,-2.993,-2.9804,-2.9804,-2.9804,-2.9804,-2.9804,-2.9804,-2.9654,-2.9327,-2.9302,0.0,0.0,0.0,-2.7369,-2.6876,-2.6897,0.0,0.0,0.0,-2.8245,-2.8097,0.0,0.0,0.0,-2.8348,-2.7927,0.0,0.0,0.0,0.0,0.0,0.0,0.0,0.0,0.0,0.0,0.0,0.0,0.0,0.0,0.0,0.0,-5.0796,-5.4479,-5.9184,-5.8765,-5.8349,-5.9297,-5.9368,-5.9279,-5.9129,-5.859,-5.8171,-5.8022,-5.7004,-5.6316,-5.6248,0.0,0.0,0.0,0.0,-5.3922,-5.3294,-5.2576,-5.1917,-5.1319,-5.1259,-5.1229,-5.1229,-5.1229,-5.1169,-5.105,-4.9883,-4.9329,-4.912,-4.7908,-4.7339,-4.7189,-4.7279,-4.7219,-4.701,-4.6241,-4.4507,-4.2295,-4.0968,0.0,0.0,-3.6756,-3.6405,-3.6405,-3.6329,-3.5579,-3.4756,-3.4751,-3.4374,-3.3997,-3.3997,-3.3947,-3.3897,-3.3897,-3.347,-3.3111,-3.3111,-3.3111,-3.2893,-3.2315,-3.2265,-3.2139,-3.1587,-3.1009,-3.0608,-3.0608,-3.0156,-2.9804,-2.9804,-2.9804,-2.9804,-2.9804,0.0,0.0,-2.9804,-2.9804,-2.9754,-2.9704,-2.8699,-2.7871,-2.7369,-2.754,-2.7789,-2.8097,-2.8525,-2.8575,-2.8197,-2.8197,-2.8374,-2.8712,-2.8224,-2.731,0.0,0.0,0.0,0.0,0.0,0.0,0.0,0.0,0.0,0.0,0.0,0.0,0.0,0.0,0.0,-4.959,-5.4476,-5.8733,-6.0566,-6.0144,-6.012,-6.1399,-6.1044,-6.0296,-5.9219,-5.8979,-5.8471,-5.7363,-5.7573,-5.7274,-5.6226,-5.6098,-5.5748,-5.5209,-5.4551,-5.4132,-5.4012,-5.2815,-5.2127,-5.2007,0.0,0.0,-5.1229,-5.1229,-5.0883,-5.0375,-5.0106,-4.9434,-4.8446,-4.8207,-4.7489,-4.6561,-4.71,-4.6651,-4.558,-4.4512,-4.3139,-4.1508,-3.9363,-3.8368,-3.788,-3.6756,-3.6405,-3.6329,-3.583,-3.5508,0.0,-3.4806,-3.465,-3.4575,-3.4575,-3.4223,-3.3897,-3.3897,-3.347,-3.3111,-3.3111,-3.3111,-3.2893,-3.2315,-3.2591,-3.2717,-3.2164,-3.126,-3.0608,-3.0608,-3.0156,-2.9804,-2.9804,-2.9804,-2.9804,-2.9804,-2.9804,-2.9804,-2.9804,-2.9804,-2.9603,-2.9088,-2.8473,-2.7923,-2.7578,-2.7862,-2.8035,-2.8097,-2.8612,-2.8838,-2.8737,-2.8737,-2.8424,-2.7787,-2.7568,-2.7548,0.0,0.0,0.0,0.0,0.0,0.0,0.0,0.0,0.0,0.0,0.0,-4.4572,0.0,0.0,-5.3446,-5.3607,-5.7907,-6.1319,-6.1563,-6.1313,-6.1224,-6.1553,-6.1014,-6.0206,-5.9189,-5.9099,-5.883,-5.8141,-5.7782,-5.7334,-5.6675,-5.6017,-5.5538,-5.5209,-5.4551,-5.4221,-5.4221,-5.2875,-5.2187,-5.2187,-5.1528,-5.1229,-5.1229,-5.1229,-5.0823,-5.0166,-4.9883,-4.9194,-4.8267,-4.7938,-4.7399,-4.68,-4.68,-4.5992,-4.4713,-4.4145,-4.3289,-4.2111,-3.977,-3.9006,-3.8693,-3.6989,-3.6405,-3.6355,-3.6031,-3.5755,-3.5433,-3.5157,-3.468,-3.4299,-3.4299,-3.3897,-3.3495,-3.3495,-3.3269,-3.3111,-3.3111,-3.3111,-3.2993,-3.2692,-3.2867,-3.2993,-3.2692,-3.1964,-3.1306,-3.1019,-3.0557,-3.0105,-2.9829,-2.9804,-2.9804,-2.9804,-2.9804,-2.9804,-2.9804,-2.9804,-2.9553,-2.8938,-2.8949,-2.861,-2.7875,-2.8249,-2.8524,-2.8524,-2.9076,-2.9352,-2.9352,-2.9352,-2.9123,-2.8649,-2.8276,-2.7815,0.0,0.0,0.0,0.0,0.0,0.0,0.0,0.0,-4.262,-4.6366,-4.8049,-4.9473,-5.162,-5.5172,-5.7783,-5.8028,-6.1052,-6.3131,-6.2561,-6.2141,-6.1672,-6.0984,-6.0416,-5.9787,-5.8979,-5.8919,-5.886,-5.871,-5.7723,-5.7034,-5.6915,-5.6047,-5.5448,-5.5209,-5.479,-5.4461,-5.4221,-5.2995,-5.2336,-5.2187,-5.1528,-5.1229,-5.1229,-5.1079,-5.0661,-4.9956,-4.9224,-4.8566,-4.8057,-4.7519,-4.7219,-4.707,-4.6488,-4.5574,-4.4496,-4.4377,-4.3898,-4.2981,-4.0661,-3.9913,-3.9492,-3.715,-3.6405,-3.638,-3.6279,-3.5906,-3.5483,-3.5357,-3.4675,-3.3897,-3.3897,-3.3495,-3.3111,-3.3111,-3.3169,-3.3287,-3.3287,-3.3244,-3.3294,-3.337,-3.3219,-3.3119,-3.3262,-3.2778,-3.2194,-3.1621,-3.1085,-3.0518,-2.9877,-2.9891,-2.9905,-2.9804,-2.9804,-2.9804,-2.9804,-2.9804,-2.9603,-2.9126,-2.9505,-2.9365,-2.8448,-2.8875,-2.9063,-2.9063,-2.9553,-2.9804,-2.9804,-2.9804,-2.9804,-2.9779,-2.9327,-2.8361,-3.7171,-3.7315,-3.8302,-3.92,-4.0337,-4.2043,0.0,0.0,-4.5975,-4.7031,-4.9174,-5.1184,-5.2072,-5.6834,-6.0854,-6.1538,-6.3451,-6.4634,-6.3995,-6.2329,-6.0954,-6.0266,-6.0146,-5.9608,-5.8351,-5.8231,-5.7992,-5.7363,-5.7184,-5.6855,-5.6368,-5.6645,-5.6346,-5.5239,-5.5688,-5.5388,-5.4221,-5.3443,-5.2785,-5.2187,-5.1528,-5.1229,-5.1199,-5.0554,-5.0002,-4.9359,-4.8057,-4.7489,-4.7399,-4.7339,-4.695,-4.6369,-4.6309,-4.5843,-4.5125,-4.4526,-4.3898,-4.2981,-4.0661,-3.9913,-3.9492,-3.715,-3.6405,-3.6329,-3.578,-3.5533,-3.5408,-3.4906,-3.4374,-3.3897,-3.3897,-3.3495,-3.3111,-3.3111,-3.3445,-3.3796,-3.3796,-3.3784,-3.3959,-3.443,-3.3746,-3.3244,-3.3721,-3.337,-3.2775,-3.2014,-3.1571,-3.0913,-2.9935,-3.0209,-3.0331,-2.9854,-2.9804,-2.9804,-2.9804,-2.9804,-2.9754,-2.9704,-2.9767,-2.9742,-2.9603,-2.9654,-2.9704,-2.9704,-2.9754,-2.9804,-2.9804,-2.9804,-2.9804,-2.9804,-2.9729,-2.9301,-4.0009,-3.9828,-4.0127,-4.1833,-4.3569,-4.5394,-4.7549,-4.8327,-4.9642,-5.3295,-5.5582,-5.7299,-5.871,-6.1666,-6.3616,0.0,-6.3649,-6.4066,-6.3086,-6.1524,-6.0116,-5.9069,-5.8261,-5.7902,-5.8112,-5.7752,-5.7393,-5.7124,-5.6765,-5.6585,-5.6705,-5.6256,-5.5927,-5.5777,-5.5658,-5.5329,-5.479,-5.3713,-5.3054,-5.2755,-5.1708,-5.102,-5.0584,-5.0315,-4.9673,-4.87,-4.7698,-4.7309,-4.7309,-4.7309,-4.713,-4.686,-4.6429,-4.5903,-4.5214,-4.4556,-4.4137,-4.3515,-4.0844,-3.9913,-3.9492,-3.715,-3.6405,-3.6355,-3.6081,-3.6006,-3.5981,-3.573,-3.5278,-3.4806,-3.4806,-3.4198,-3.3646,-3.3947,-3.3972,-3.3997,-3.4299,-3.4379,-3.441,-3.463,-3.4104,-3.3753,-3.4254,-3.3646,-3.3,-3.2692,-3.2147,-3.1596,-3.1135,-3.0548,-3.0059,-2.9829,-2.9804,-2.9804,-2.9804,-2.9804,-2.9804,-2.9804,-2.9804,-2.9804,-2.9804,-2.9804,-2.9804,-2.9804,-2.9804,-2.9804,-2.9804,-2.9804,-2.9804,-2.9804,-2.9804,-2.9654,-4.0233,-4.0943,-4.1953,-4.4287,-4.677,-4.9045,-5.0571,-5.1409,-5.3213,-5.7946,-6.0018,-6.1455,-6.3023,-6.4564,-6.5165,-6.3846,-6.3835,-6.3626,-6.2546,-6.0902,-5.9249,-5.7752,-5.6256,-5.5718,-5.6675,-5.6645,-5.6645,-5.6825,-5.6436,-5.6376,-5.6825,-5.6107,-5.5867,-5.6218,-5.5718,-5.5299,-5.491,-5.3773,-5.3084,-5.2905,-5.1768,-5.0823,-5.0196,-4.9807,-4.9075,-4.7997,-4.7519,-4.7309,-4.7309,-4.7309,-4.7309,-4.7249,-4.6591,-4.6022,-4.5484,-4.4616,-4.4197,-4.3675,-4.1213,-4.0361,-3.9972,-3.7632,-3.6896,-3.6803,-3.6499,-3.6405,-3.6405,-3.6405,-3.5981,-3.5508,-3.5508,-3.4781,-3.4223,-3.4625,-3.448,-3.4405,-3.4806,-3.5077,-3.5177,-3.5177,-3.461,-3.422,-3.463,-3.4048,-3.3433,-3.314,-3.266,-3.2189,-3.187,-3.0642,-2.9801,-2.979,-2.9804,-2.9804,-2.9804,-2.9804,-2.9804,-2.9804,-2.9804,-2.9804,-2.9804,-2.9804,-2.9804,-2.9804,-2.9804,-2.9804,-2.9804,-2.9804,-2.9804,-2.9804,-2.9804,-2.9804,-3.534,-3.8482,-4.2162,-4.5454,-4.9194,-5.2576,-5.4551,-5.5508,-5.6576,-5.8492,-5.9964,-6.1131,-6.1915,-6.3603,-6.4997,-6.5107,-6.4538,-6.3893,-6.3158,-6.0798,-5.8411,-5.6466,-5.4491,-5.3294,0.0,-5.4491,-5.5508,-5.6166,-5.6248,-5.6248,-5.6248,-5.6735,-5.6765,-5.6248,-5.6188,-5.5538,-5.4251,-5.3533,-5.2845,-5.2217,-5.1528,-5.0823,-5.0136,-4.8925,-4.7967,-4.7339,-4.7309,-4.7309,-4.7309,-4.7309,-4.7309,-4.7249,-4.6591,-4.6279,-4.61,-4.4796,-4.3858,-4.316,-4.1947,-4.1545,-4.1169,-3.8801,-3.8062,-3.7861,-3.6756,-3.6405,-3.6405,-3.6405,-3.5981,-3.5508,-3.5508,-3.5082,-3.47,-3.468,-3.4986,-3.529,-3.5458,-3.5931,-3.6355,-3.6355,-3.5465,-3.4653,-3.4705,-3.4655,-3.4299,-3.3244,-3.3084,-3.2643,-3.1554,-3.0474,-2.9801,-2.979,-2.9804,-2.9804,-2.9804,-2.9804,-2.9804,-2.9804,-2.9804,-2.9804,-2.9804,-2.9804,-2.9804,-2.9804,-2.9804,-2.9804,-2.9804,-2.9804,-2.9804,-2.9804,-2.9804,-2.9804,0.0,0.0,-4.715,-5.014,-5.3169,-5.5848,-5.7327,-5.851,-5.9412,-5.9839,-5.8675,-5.7355,-5.6649,-5.7527,-5.8277,-5.793,-5.9888,-6.1227,-6.0555,-5.9663,-5.7872,-5.4581,-5.3982,0.0,0.0,0.0,0.0,-5.479,-5.488,-5.5239,-5.6188,-5.5957,-5.5927,-5.6218,-5.5748,-5.5089,-5.4221,-5.3533,-5.2845,-5.2187,-5.0661,-4.9823,-4.9553,-4.8237,-4.7519,-4.7309,-4.7309,-4.7309,-4.7309,-4.7309,-4.7309,-4.7249,-4.6591,-4.6052,-4.5544,-4.4646,-4.3898,-4.317,-4.1988,-4.1587,-4.1337,-3.9798,-3.9271,-3.9227,-3.8827,-3.8179,-3.754,-3.754,-3.6836,-3.6081,-3.6081,-3.568,-3.5307,-3.573,-3.5608,-3.5537,-3.6006,-3.6279,-3.6405,-3.6405,-3.5784,-3.5215,-3.5232,-3.4931,-3.4474,-3.3746,-3.3333,-3.2703,-3.1554,-3.1322,-3.0869,-2.993,-2.9813,-2.9804,-2.9804,-2.9804,-2.9804,-2.9804,-2.9804,-2.9804,-2.9804,-2.9804,-2.9804,-2.9804,-2.9804,-2.9804,-2.9804,-2.9804,-2.9804,-2.9804,-2.9804,-2.9804,0.0,-4.7424,-5.156,-5.4823,-5.7026,-5.8656,-5.9391,-5.9633,-5.9627,-5.9287,-5.623,-5.3367,-5.2387,-5.166,-5.1326,-5.1693,-5.3854,-5.6012,-5.7521,-5.7094,-5.5957,-5.4102,-5.3862,-5.3234,0.0,0.0,0.0,-5.4102,-5.485,-5.5508,-5.6188,-5.5987,-5.5957,-5.6166,-5.5538,-5.488,-5.4221,-5.3533,-5.2725,-5.1828,-5.0092,-4.9299,-4.9269,-4.7908,-4.7309,-4.7309,-4.7309,-4.7309,-4.7279,-4.704,-4.695,-4.686,-4.5963,-4.5334,-4.4855,-4.4197,-4.3648,-4.321,-4.2467,-4.2193,-4.2029,-4.0873,-4.049,-4.0447,-4.0015,-3.905,-3.8198,-3.8604,-3.7586,-3.6499,-3.6896,-3.6409,-3.5931,-3.6329,-3.6081,-3.5931,-3.6329,-3.6405,-3.6405,-3.6405,-3.6081,-3.578,-3.5533,-3.4881,-3.4374,-3.4223,-3.3545,-3.2732,-3.1729,-3.1689,-3.1288,-2.9933,-3.004,-3.0088,-2.9824,-2.9977,-3.0005,-2.9804,-2.9804,-2.9804,-2.9804,-2.9804,-2.9804,-2.9804,-2.9804,-2.9804,-2.9804,-2.9804,-2.9804,-2.9804,-2.9804,-2.9804,-4.7683,-5.1876,-5.5375,-5.91,-6.0518,-6.0907,-6.0607,-5.8978,-5.7302,-5.6718,-5.2649,-4.9116,0.0,0.0,-4.4706,-4.6803,-4.7429,-4.9434,-5.4581,-5.3713,-5.3204,0.0,0.0,0.0,0.0,0.0,0.0,-5.4221,0.0,-5.6735,-5.6308,-5.6735,-5.6765,-5.6248,-5.5508,-5.482,-5.4162,-5.3443,-5.2426,-5.1139,-4.9883,-4.9299,-4.9209,-4.7908,-4.7309,-4.7309,-4.7309,-4.7279,-4.7219,-4.6591,-4.6249,-4.6142,-4.4825,-4.4317,-4.4227,-4.3529,-4.329,-4.329,-4.329,-4.329,-4.313,-4.2029,-4.167,-4.1462,-4.0404,-3.9227,-3.8514,-3.9667,-3.836,-3.6803,-3.7861,-3.7335,-3.6499,-3.6405,-3.6405,-3.6405,-3.6405,-3.6405,-3.6405,-3.6405,-3.638,-3.6157,-3.5633,-3.4675,-3.4123,-3.4675,-3.3822,-3.2893,-3.2139,-3.1722,-3.1099,-3.0098,-3.0572,-3.0661,-2.997,-3.0333,-3.0407,-2.9854,-2.9829,-2.9829,-2.9804,-2.9804,-2.9804,-2.9804,-2.9804,-2.9804,-2.9804,-2.9804,-2.9804,-2.9804,-2.9804,-2.9804,-5.2119,-5.652,-6.0522,-6.0624,-6.1452,-6.1597,-5.91,-5.7664,-5.5562,-5.1034,-4.65,-4.2539,0.0,0.0,0.0,-4.4657,-4.9224,0.0,-5.6226,-5.7034,0.0,-5.5359,0.0,-5.5448,-5.3862,-5.4581,0.0,0.0,-5.5209,-5.5508,-5.6795,-5.6585,-5.6346,-5.6218,-5.5059,-5.4132,-5.3443,-5.2306,-5.1319,-5.0435,-4.9643,-4.906,-4.8506,-4.7668,-4.7309,-4.7309,-4.7309,-4.704,-4.6561,-4.6339,-4.6022,-4.5484,-4.4646,-4.4317,-4.4227,-4.3529,-4.329,-4.329,-4.329,-4.329,-4.325,-4.2941,-4.286,-4.282,-4.2508,-4.1657,-4.076,-4.1085,-4.0145,-3.8872,-3.8243,-3.8076,-3.7814,-3.6666,-3.6405,-3.6405,-3.6405,-3.6405,-3.6405,-3.6405,-3.6031,-3.583,-3.6107,-3.5253,-3.47,-3.5207,-3.4399,-3.347,-3.2918,-3.2718,-3.2566,-3.2306,-3.1928,-3.1625,-3.1473,-3.1276,-3.0959,-3.0432,-3.0407,-3.0231,-2.9804,-2.9804,-2.9804,-2.9804,-2.9804,-2.9804,-2.9804,-2.9804,-2.9804,-2.9804,-2.9804,-2.9804,-5.7159,-6.0486,-6.3133,-6.3012,-6.2366,-6.067,-5.6866,-5.4612,-5.1671,-4.5765,-4.1087,-3.7461,-3.5457,-3.6199,0.0,0.0,0.0,0.0,-5.4421,-5.5837,-5.6496,0.0,-5.7094,0.0,-5.5628,-5.6137,-5.6705,0.0,-5.6346,-5.6256,-5.7064,-5.6765,-5.6436,-5.6248,-5.491,-5.3743,-5.2755,-5.1738,-5.0853,-5.0196,-4.9583,-4.897,-4.8267,-4.7608,-4.7309,-4.7309,0.0,-4.71,-4.6711,-4.6112,-4.5633,-4.5185,-4.4257,-4.3858,-4.3838,-4.3439,-4.329,-4.329,-4.329,-4.329,-4.329,-4.329,-4.329,-4.329,-4.329,-4.2508,-4.1711,-4.2193,-4.076,-3.9094,-3.8917,-3.8277,-3.7464,-3.6619,-3.6405,-3.6405,-3.6405,-3.6405,-3.6405,-3.6405,-3.6107,-3.6006,-3.6355,-3.5655,-3.5132,-3.5458,-3.46,-3.3702,-3.3171,-3.3079,-3.309,-3.309,-3.2744,-3.2373,-3.2054,-3.1829,-3.1512,-3.0984,-3.0733,-3.0482,-3.0156,-2.993,-2.9905,-3.0156,-3.0156,-3.0256,-3.0482,-3.0482,-3.0382,-3.0156,-3.0156,-3.003,-6.2197,-6.3727,-6.4344,-6.5404,-6.2874,-5.8897,-5.4232,-5.0721,-4.6746,-4.0675,-3.6324,-3.3498,-3.3135,-3.2948,-3.3915,-3.7241,0.0,-4.6119,-5.182,-5.3234,-5.479,-5.7782,-5.8201,-5.8022,-5.7423,-5.7453,-5.7693,-5.8231,-5.8351,-5.8052,-5.7274,-5.7154,-5.6675,-5.5858,-5.467,-5.3414,-5.2067,-5.1409,-5.075,-5.0046,-4.9464,-4.885,-4.8147,-4.7578,-4.7309,-4.7309,-4.7309,-4.7249,-4.71,-4.5903,-4.5334,-4.5065,-4.3977,-4.3439,-4.329,-4.3379,-4.3409,-4.3409,-4.3319,-4.3409,-4.3529,-4.3349,-4.329,-4.329,-4.329,-4.2589,-4.2029,-4.3021,-4.1098,-3.9006,-3.9837,-3.8405,-3.6658,-3.6452,-3.6405,-3.6405,-3.6405,-3.6405,-3.6405,-3.6405,-3.6405,-3.6405,-3.6405,-3.5981,-3.5608,-3.5608,-3.4776,-3.3959,-3.3474,-3.3221,-3.3111,-3.3111,-3.3111,-3.2842,-3.2206,-3.2248,-3.2089,-3.1537,-3.1085,-3.0783,-3.0708,-3.0256,-3.0231,-3.0708,-3.0708,-3.0934,-3.1386,-3.1386,-3.116,-3.0708,-3.0658,-3.0407,-6.5413,-6.5857,-6.5646,-6.5674,-6.2107,-5.7182,-5.1797,-4.7391,0.0,0.0,-3.2423,-3.0646,-2.8984,-3.083,-3.418,-3.9086,-4.3277,-4.7946,-5.3882,-5.5688,-5.6825,0.0,-5.859,0.0,0.0,0.0,0.0,0.0,0.0,-5.9219,-5.8022,-5.7393,-5.6047,-5.3773,-5.3473,-5.2725,-5.1409,-5.0704,-5.0062,-4.9434,-4.8775,-4.8117,-4.7489,-4.7369,-4.7309,-4.7309,-4.7309,0.0,-4.6471,-4.619,-4.5484,-4.4526,-4.4825,-4.4287,-4.3349,-4.3917,-4.4137,-4.4077,-4.3469,-4.4047,-4.4766,-4.3648,-4.329,-4.329,-4.329,-4.317,-4.3021,-4.325,-4.286,-4.2158,-4.1098,-3.9579,-3.7962,-3.668,-3.6405,-3.6405,-3.6405,-3.6405,-3.6405,-3.6405,-3.6405,-3.6405,-3.6405,-3.6329,-3.6254,-3.6254,-3.568,-3.5207,-3.5111,-3.3903,-3.3111,-3.3111,-3.3111,-3.3043,-3.2918,-3.2918,-3.2692,-3.2114,-3.1989,-3.1738,-3.1286,-3.116,-3.116,-3.126,-3.126,-3.1311,-3.1386,-3.1386,-3.1336,-3.1235,-3.0809,-3.0783,-6.5254,-6.5165,-6.4295,-6.3796,-6.0139,-5.4736,-4.7545,0.0,0.0,-3.1539,-2.9415,-2.8723,-2.7764,-3.0414,0.0,-3.6817,-4.1351,-4.6254,-5.1413,-5.3803,0.0,-5.7872,-5.9009,0.0,0.0,0.0,0.0,0.0,0.0,-5.88,-5.8141,-5.7154,-5.5568,-5.3264,-5.3174,-5.2546,-5.1229,-5.0524,-4.9912,-4.9299,-4.8596,-4.7938,-4.7309,-4.7309,-4.7309,-4.7309,-4.7309,0.0,-4.68,-4.6429,-4.5723,-4.4855,-4.5155,-4.4706,-4.3888,-4.4586,-4.4825,-4.4766,-4.4466,-4.4627,-4.4877,-4.4248,-4.3938,-4.3738,-4.3409,-4.329,-4.329,-4.329,-4.2695,-4.182,-4.0727,-3.9276,-3.7852,-3.702,-3.701,-3.7211,-3.7211,-3.6985,-3.6832,-3.6832,-3.6606,-3.6405,-3.6405,-3.6405,-3.6405,-3.6405,-3.5906,-3.5508,-3.5508,-3.46,-3.3822,-3.3545,-3.3495,-3.3395,-3.3093,-3.3111,-3.3011,-3.2692,-3.2365,-3.2089,-3.1838,-3.1537,-3.1512,-3.1813,-3.1813,-3.1964,-3.2265,-3.2265,-3.2114,-3.1813,-3.1562,-3.1436,-6.4035,-6.3771,-6.2664,-6.2158,-5.8076,-5.2114,-4.4024,-4.0356,0.0,-2.9113,-2.7585,-2.7585,-2.7585,-2.9889,-3.2314,0.0,-3.8083,-4.2805,-4.7949,-5.078,-5.3683,0.0,0.0,0.0,0.0,0.0,0.0,0.0,0.0,0.0,-5.7723,-5.6466,-5.497,-5.3234,-5.3054,-5.2336,-5.102,-5.0361,-4.9703,-4.909,-4.8386,-4.7818,-4.7309,-4.7309,-4.7309,-4.7309,-4.7309,0.0,0.0,-4.6591,-4.5903,-4.5304,-4.5454,-4.5035,-4.4407,-4.5214,-4.5514,-4.5454,-4.5334,-4.5166,-4.4937,-4.4708,-4.4357,-4.4018,-4.3439,-4.329,-4.3319,-4.3279,-4.2196,-4.0854,-4.0106,-3.8852,-3.7744,-3.7434,-3.7688,-3.8015,-3.8015,-3.7663,-3.7337,-3.7211,-3.6883,-3.6581,-3.6581,-3.648,-3.6455,-3.6556,-3.6081,-3.5683,-3.5683,-3.5328,-3.4851,-3.4299,-3.4148,-3.3897,-3.347,-3.3319,-3.3244,-3.3244,-3.2717,-3.239,-3.239,-3.1989,-3.1964,-3.239,-3.239,-3.2616,-3.3111,-3.3111,-3.2842,-3.239,-3.2265,-3.2039,-6.302,-6.3115,-6.2228,-6.2695,-5.6905,-4.9533,-4.3568,0.0,-3.46,-2.8776,-2.7585,-2.7585,-2.7585,-2.787,-2.9309,-3.3006,-3.4536,-3.7931,-4.5514,-4.8356,-5.1336,-5.5807,0.0,0.0,0.0,0.0,0.0,0.0,0.0,0.0,-5.6376,-5.5089,-5.4012,-5.3204,-5.2606,-5.1648,-5.0285,-4.9673,-4.906,-4.8356,-4.7698,-4.7369,-4.7309,-4.7309,-4.7309,-4.7309,-4.7309,0.0,0.0,-4.6591,-4.5903,-4.5364,-4.5992,-4.5454,-4.4466,-4.5753,-4.6087,-4.5866,-4.5442,-4.5562,-4.5687,-4.4665,-4.3928,-4.3379,-4.3319,-4.329,-4.3289,-4.3307,-4.2196,-4.0831,-4.0093,-3.9341,-3.8621,-3.8034,-3.7965,-3.8015,-3.8015,-3.7965,-3.7789,-3.7287,-3.7136,-3.7111,-3.7111,-3.6732,-3.6581,-3.7036,-3.6681,-3.6329,-3.6329,-3.6279,-3.6006,-3.5408,-3.4906,-3.4625,-3.4575,-3.4123,-3.3822,-3.3822,-3.3294,-3.2993,-3.2993,-3.2943,-3.2943,-3.2993,-3.2993,-3.3018,-3.3111,-3.3111,-3.3043,-3.2993,-3.2466,-3.2466,-5.9751,-6.167,-6.2008,-6.0293,-5.5195,-4.8804,-4.2032,0.0,-3.3336,-2.857,-2.7585,-2.7585,-2.7585,-2.7585,-2.8244,-3.0223,-3.1091,0.0,-3.902,-4.1504,-4.5185,-5.1798,0.0,0.0,0.0,0.0,0.0,0.0,0.0,0.0,-5.5029,-5.4491,-5.3892,-5.3204,-5.2546,-5.1768,-5.0794,-4.9793,-4.9179,-4.891,-4.7818,-4.7309,-4.7309,-4.7309,-4.7309,-4.7309,-4.7309,0.0,0.0,-4.6591,-4.613,-4.5933,-4.619,-4.595,-4.5633,-4.6561,-4.6847,-4.6787,-4.6591,-4.6274,-4.5867,-4.4846,-4.3964,-4.329,-4.329,-4.282,-4.2222,-4.198,-4.0788,-3.9567,-3.9371,-3.9107,-3.8934,-3.8995,-3.9019,-3.9019,-3.9019,-3.8768,-3.8467,-3.8241,-3.7914,-3.7563,-3.7236,-3.701,-3.681,-3.6757,-3.6556,-3.6405,-3.6405,-3.6405,-3.6329,-3.6056,-3.5554,-3.5031,-3.4751,-3.4525,-3.4399,-3.4399,-3.3872,-3.3721,-3.4048,-3.342,-3.3244,-3.3571,-3.3244,-3.3111,-3.3111,-3.3111,-3.3111,-3.3111,-3.2842,-3.2842,-5.4581,-5.7731,-5.9305,-5.7061,-5.2394,-4.6778,0.0,0.0,-3.2416,-2.8673,-2.7914,-2.7854,-2.7645,-2.7585,-2.7764,-2.8244,-2.8846,-3.0672,-3.4651,-3.6716,-4.0397,0.0,0.0,0.0,0.0,0.0,0.0,0.0,0.0,0.0,-5.4551,-5.4132,-5.3593,-5.2905,-5.2247,-5.1588,-5.0883,-4.9823,-4.9209,-4.9,-4.7848,-4.7309,-4.7309,-4.7309,-4.7309,-4.7309,-4.7309,0.0,0.0,-4.6591,-4.6279,-4.6279,-4.6279,-4.6292,-4.6352,-4.704,-4.7309,-4.7309,-4.7309,-4.6711,-4.5873,-4.5102,-4.4441,-4.3838,-4.3409,-4.2408,-4.1149,-3.9956,-3.901,-3.8449,-3.8808,-3.8932,-3.907,-3.9572,-3.9697,-3.9697,-3.9697,-3.9396,-3.9069,-3.8944,-3.8542,-3.814,-3.7739,-3.7538,-3.7287,-3.6958,-3.6757,-3.6581,-3.643,-3.6405,-3.6405,-3.6405,-3.6006,-3.5629,-3.5228,-3.5052,-3.4931,-3.4931,-3.4449,-3.4324,-3.4655,-3.3972,-3.3746,-3.4148,-3.3771,-3.3495,-3.3319,-3.3319,-3.3287,-3.3111,-3.3244,-3.3395,-4.7379,-5.0653,-5.3108,-5.324,-4.8252,-4.2671,0.0,-3.5848,-3.1779,-2.9146,-2.8577,-2.8397,-2.7735,-2.7585,-2.7585,-2.7615,-2.8158,0.0,-3.3964,-3.5672,0.0,0.0,0.0,0.0,0.0,0.0,0.0,0.0,0.0,0.0,-5.5209,-5.3922,-5.2875,-5.2247,-5.1558,-5.0853,-5.0196,-4.9583,-4.9,-4.8297,-4.7608,-4.7309,-4.7309,-4.7309,-4.7309,0.0,0.0,0.0,0.0,-4.6591,-4.6279,-4.6279,-4.6279,-4.6304,-4.6389,-4.7083,-4.7309,-4.7309,-4.7309,-4.6764,-4.5941,-4.5448,-4.5274,-4.5035,-4.3678,-4.2239,-4.0376,-3.7326,-3.6949,-3.7762,-3.8668,-3.8919,-3.907,-3.9572,-3.9697,-3.9697,-3.9697,-3.9697,-3.9521,-3.8969,-3.8919,-3.8919,-3.8894,-3.8391,-3.799,-3.799,-3.7513,-3.6985,-3.648,-3.6405,-3.6405,-3.6405,-3.6405,-3.6405,-3.638,-3.5855,-3.5483,-3.5483,-3.4981,-3.468,-3.468,-3.468,-3.47,-3.468,-3.47,-3.4424,-3.3897,-3.3897,-3.3621,-3.3093,-3.3646,-3.4198,-4.2513,-4.5433,-4.7349,-4.6567,-4.3101,-3.9218,-3.6649,-3.3155,-3.0013,-2.8274,-2.7914,-2.7854,-2.7645,-2.7585,-2.7764,-2.8188,-2.8457,0.0,0.0,0.0,0.0,0.0,0.0,0.0,0.0,0.0,0.0,0.0,0.0,0.0,-5.3204,-5.2755,-5.2426,-5.2217,-5.1558,-5.09,-5.0196,-4.9583,-4.897,-4.8267,-4.7608,-4.7309,-4.7309,-4.7309,-4.7309,0.0,0.0,0.0,0.0,-4.6591,-4.6591,-4.695,-4.6501,-4.6591,-4.7023,-4.7219,-4.7309,-4.7249,-4.68,-4.6446,-4.6139,-4.5526,-4.531,-4.5203,-4.481,-4.2907,-4.0316,-3.7678,-3.7352,-3.8017,-3.8743,-3.9145,-3.9471,-3.9647,-3.9697,-3.9697,-3.9697,-3.9697,-3.9647,-3.9471,-3.9421,-3.932,-3.8944,-3.8718,-3.8467,-3.8065,-3.7864,-3.7538,-3.6985,-3.6983,-3.6832,-3.6455,-3.6405,-3.6405,-3.6405,-3.6207,-3.6107,-3.6107,-3.5579,-3.5454,-3.583,-3.5127,-3.4856,-3.5232,-3.4881,-3.465,-3.4449,-3.4449,-3.4374,-3.4198,-3.4374,-3.455,-3.7033,-3.997,-4.1934,-4.1217,-3.8733,0.0,0.0,-3.1778,-2.9292,-2.8214,-2.7974,-2.7914,-2.7645,-2.7585,-2.7735,-2.8128,-2.8218,0.0,0.0,0.0,0.0,0.0,0.0,0.0,0.0,0.0,0.0,0.0,0.0,0.0,-5.2636,-5.2336,-5.1977,-5.1468,-5.105,-5.0614,-5.0196,-4.9344,-4.8686,-4.8267,-4.7608,-4.7309,-4.7309,-4.7309,-4.7309,0.0,0.0,0.0,0.0,-4.686,-4.692,-4.7279,-4.686,-4.695,-4.7279,-4.7023,-4.6916,-4.6851,-4.6137,-4.6065,-4.619,-4.5552,-4.4955,-4.4549,-4.4385,-4.2836,-4.0673,-3.8489,-3.8067,-3.8439,-3.9044,-3.9446,-3.9697,-3.9697,-3.9697,-3.9697,-3.9697,-3.9697,-3.9697,-3.9697,-3.9697,-3.9597,-3.9245,-3.917,-3.8994,-3.8417,-3.8341,-3.814,-3.7563,-3.7487,-3.7385,-3.7054,-3.6824,-3.6701,-3.6686,-3.6508,-3.6405,-3.6405,-3.6031,-3.6006,-3.638,-3.5705,-3.5504,-3.5855,-3.5504,-3.5228,-3.4981,-3.4781,-3.4781,-3.4981,-3.4981,-3.5152,0.0,-3.4382,-3.6746,-3.6836,-3.4981,-3.3155,-3.3155,-3.127,0.0,-2.8667,-2.8517,-2.8338,-2.7794,-2.7615,-2.7615,-2.7735,-2.7735,0.0,0.0,-3.4173,0.0,0.0,0.0,0.0,0.0,0.0,0.0,0.0,0.0,0.0,-5.3084,-5.2426,-5.1498,-5.0226,-5.0106,-5.0046,-5.0046,-4.8895,-4.8267,-4.8207,-4.7608,-4.7309,-4.7309,-4.7309,-4.7309,0.0,0.0,0.0,0.0,-4.7249,-4.7219,-4.7146,-4.716,-4.716,-4.71,-4.6466,-4.6244,-4.6128,-4.5432,-4.565,-4.6107,-4.5525,-4.4418,-4.3312,-4.2813,-4.2154,-4.119,-3.9411,-3.8891,-3.9009,-3.9595,-3.9697,-3.9697,-3.9697,-3.9697,-3.9697,-3.9697,-3.9697,-3.9697,-3.9697,-3.9697,-3.9697,-3.9697,-3.9697,-3.9521,-3.9045,-3.8969,-3.8718,-3.814,-3.8065,-3.8039,-3.8009,-3.7546,-3.7248,-3.7241,-3.6737,-3.6405,-3.6405,-3.6405,-3.6405,-3.6405,-3.6405,-3.6405,-3.6405,-3.6405,-3.6107,-3.5558,-3.5031,-3.5056,-3.5558,-3.5558,-3.5881,-2.8543,0.0,-3.0161,-3.1179,-3.0582,-2.9744,0.0,-2.9265,-2.8637,-2.7974,-2.7854,-2.7944,-2.8278,-2.7944,-2.7944,-2.8963,0.0,0.0,-3.2856,0.0,0.0,0.0,0.0,0.0,0.0,0.0,0.0,0.0,0.0,-5.2396,-5.1708,-5.1003,-5.0524,-5.0196,-4.9254,-4.8745,-4.8745,-4.8446,-4.8027,-4.7549,-4.7369,-4.7309,-4.7309,-4.7309,-4.7309,0.0,0.0,0.0,-4.6561,-4.6561,-4.6237,-4.5781,-4.5771,-4.5789,-4.5752,-4.5592,-4.5567,-4.5417,-4.4788,-4.4956,-4.5525,-4.5334,-4.449,-4.3457,-4.2749,-4.1447,-4.0059,-3.9165,-3.8892,-3.9009,-3.9595,-3.9697,-3.9697,-3.9697,-3.9697,-3.9697,-3.9697,-3.9697,-3.9697,-3.9697,-3.9697,-3.9697,-3.9697,-3.9697,-3.9647,-3.9521,-3.9496,-3.9295,-3.8743,-3.8668,-3.8517,-3.8039,-3.7887,-3.7788,-3.779,-3.6935,-3.6405,-3.6405,-3.6405,-3.6405,-3.6405,-3.6405,-3.6405,-3.6405,-3.6405,-3.6355,-3.6182,-3.6031,-3.6078,-3.6182,-3.6182,-3.6279,-2.7872,-2.7824,-2.7764,-2.8513,-2.8423,-2.8128,-2.8128,-2.8128,-2.8034,-2.7675,-2.7585,-2.7705,-2.8068,-2.7854,-2.7944,0.0,-2.9894,0.0,0.0,0.0,0.0,0.0,0.0,0.0,0.0,0.0,0.0,0.0,0.0,-5.1917,-5.1259,-5.0554,-4.9927,-4.9374,-4.8656,-4.8297,-4.8297,-4.7997,-4.7668,-4.7309,-4.7309,-4.7309,-4.7309,-4.7309,-4.713,0.0,0.0,0.0,-4.5873,-4.616,-4.5878,-4.5329,-4.5293,-4.5299,-4.5263,-4.4952,-4.4844,-4.4743,-4.4067,-4.4287,-4.4885,-4.5185,-4.4282,-4.2998,-4.2648,-4.1224,-3.9669,-3.9348,-3.9294,-3.934,-3.962,-3.9697,-3.9697,-3.9697,-3.9697,-3.9697,-3.9697,-3.9697,-3.9697,-3.9697,-3.9697,-3.9697,-3.9697,-3.9697,-3.9697,-3.9697,-3.9697,-3.9597,-3.9295,-3.9245,-3.912,-3.8818,-3.8542,-3.8391,-3.8391,-3.7613,-3.701,-3.6807,-3.6556,-3.6405,-3.6405,-3.6405,-3.6405,-3.6405,-3.6405,-3.6405,-3.6405,-3.6405,-3.6405,-3.6405,-3.6405,-3.6405,-2.8096,-2.8308,-2.8124,-2.7824,-2.7675,-2.756,-2.7458,-2.7509,-2.756,-2.7458,-2.7509,-2.7615,-2.7735,-2.7633,0.0,0.0,0.0,0.0,-3.9852,0.0,0.0,0.0,0.0,0.0,0.0,0.0,0.0,0.0,0.0,-5.1498,-5.096,-5.0255,-4.9434,-4.8327,-4.8177,-4.8147,-4.8147,-4.7578,-4.7309,-4.7309,-4.7309,-4.7309,-4.7309,-4.7309,-4.695,-4.6309,0.0,0.0,-4.5185,-4.5783,-4.5603,-4.5005,-4.5005,-4.5012,-4.4906,-4.4355,-4.4146,-4.4075,-4.3529,-4.3648,-4.4257,-4.4825,-4.3849,-4.2482,-4.238,-4.1201,-3.9854,-3.975,-3.9697,-3.9697,-3.9697,-3.9697,-3.9697,-3.9697,-3.9697,-3.9697,-3.9697,-3.9697,-3.9697,-3.9697,-3.9697,-3.9697,-3.9697,-3.9697,-3.9697,-3.9697,-3.9697,-3.9697,-3.9697,-3.9697,-3.9697,-3.9697,-3.927,-3.9045,-3.9045,-3.8467,-3.7939,-3.7462,-3.6983,-3.6631,-3.6531,-3.6455,-3.6405,-3.6405,-3.6405,-3.6405,-3.6405,-3.6405,-3.6405,-3.6405,-3.6405,-3.6405,-2.7527,-2.9295,-3.0494,-2.8876,-2.8034,-2.7433,-2.6785,-2.7152,-2.7408,-2.6814,-2.7178,-2.7764,0.0,-2.7842,-2.7703,0.0,0.0,-3.9124,0.0,0.0,0.0,0.0,0.0,0.0,0.0,0.0,0.0,0.0,0.0,-4.9719,-4.9629,-4.8955,-4.8506,-4.8297,-4.7758,-4.7459,-4.7459,-4.7369,-4.7309,-4.7309,-4.7309,-4.7309,-4.7309,-4.7309,-4.695,-4.6322,0.0,-4.5723,-4.4466,-4.4586,-4.4186,-4.3589,-4.3589,-4.3618,-4.3578,-4.3499,-4.3439,-4.3439,-4.3349,-4.3349,-4.3469,-4.3559,-4.316,-4.248,-4.1834,-4.1159,-4.0496,-3.988,-3.9697,-3.9697,-3.9697,-3.9697,-3.9697,-3.9697,-3.9697,-3.9697,-3.9697,-3.9697,-3.9697,-3.9697,-3.9697,-3.9697,-3.9697,-3.9697,-3.9697,-3.9697,-3.9697,-3.9697,-3.9697,-3.9697,-3.9697,-3.9697,-3.9622,-3.9572,-3.9572,-3.9069,-3.8743,-3.8617,-3.8065,-3.7538,-3.7086,-3.6656,-3.6405,-3.6405,-3.6405,-3.6405,-3.6405,-3.6405,-3.6405,-3.6405,-3.6405,-3.6405,-2.6308,-2.7578,-2.8842,-2.8987,-3.018,-3.1063,-2.998,-3.0268,-3.0294,-2.8448,-2.8356,0.0,0.0,0.0,-3.1002,-3.557,0.0,-4.1764,0.0,0.0,0.0,0.0,0.0,0.0,0.0,0.0,0.0,0.0,0.0,0.0,-4.879,-4.8446,-4.8117,-4.7758,-4.7459,-4.7309,-4.7309,-4.7309,-4.7309,-4.7309,-4.7309,-4.713,-4.677,-4.677,-4.6202,-4.5244,0.0,-4.4644,-4.2937,-4.4065,-4.3675,-4.2426,-4.3061,-4.329,-4.329,-4.329,-4.329,-4.329,-4.329,-4.329,-4.329,-4.329,-4.2714,-4.1936,-4.1595,-4.0876,-4.0127,-3.9828,-3.9697,-3.9697,-3.9697,-3.9697,-3.9697,-3.9697,-3.9697,-3.9697,-3.9697,-3.9697,-3.9697,-3.9697,-3.9697,-3.9697,-3.9697,-3.9697,-3.9697,-3.9697,-3.9697,-3.9697,-3.9697,-3.9697,-3.9697,-3.9697,-3.9697,-3.9697,-3.9697,-3.9471,-3.9044,-3.8442,-3.7864,-3.7437,-3.7186,-3.6707,-3.6405,-3.6405,-3.6405,-3.6405,-3.6405,-3.6405,-3.6556,-3.6857,-3.6857,-3.7008,-2.5577,-2.6411,-2.7481,-2.8828,-3.0777,-3.2461,-3.2851,-3.2971,-3.261,-3.1297,-3.1035,0.0,0.0,-2.9978,0.0,-4.0507,-4.2485,0.0,0.0,0.0,0.0,0.0,0.0,0.0,0.0,0.0,0.0,0.0,0.0,0.0,-4.8087,-4.8057,-4.7758,-4.71,-4.707,-4.701,-4.683,-4.683,-4.701,-4.7309,-4.716,-4.68,-4.6279,-4.6142,-4.5257,-4.395,-4.4424,-4.3453,-4.16,-4.3278,-4.3189,-4.207,-4.2941,-4.329,-4.329,-4.329,-4.329,-4.329,-4.329,-4.329,-4.328,-4.3127,-4.256,-4.1871,-4.1416,-4.0759,-4.0083,-3.9801,-3.9697,-3.9697,-3.9697,-3.9697,-3.9697,-3.9697,-3.9697,-3.9697,-3.9697,-3.9697,-3.9697,-3.9697,-3.9697,-3.9697,-3.9697,-3.9697,-3.9697,-3.9697,-3.9697,-3.9697,-3.9697,-3.9697,-3.9697,-3.9697,-3.9697,-3.9697,-3.9697,-3.9697,-3.932,-3.8442,-3.7764,-3.7437,-3.7563,-3.7084,-3.6732,-3.6606,-3.6732,-3.6732,-3.6606,-3.6732,-3.7008,-3.7387,-3.7387,-3.7613,-2.6041,-2.774,-2.8998,-2.857,-2.7258,-2.7481,-3.3028,-3.2867,-3.237,-3.5223,-3.5912,0.0,0.0,-3.28,-3.4845,-3.8444,-4.2739,0.0,0.0,0.0,0.0,0.0,0.0,0.0,0.0,0.0,0.0,0.0,0.0,0.0,-4.7369,-4.7369,-4.707,-4.6369,-4.6339,-4.6082,-4.5454,-4.5424,-4.6052,-4.7309,-4.6681,-4.6339,-4.6249,-4.5663,-4.4406,-4.2707,-4.2765,-4.2147,-4.105,-4.16,-4.2333,-4.321,-4.325,-4.329,-4.329,-4.329,-4.329,-4.329,-4.329,-4.329,-4.3209,-4.2666,-4.2839,-4.2918,-4.1179,-4.1057,-4.1218,-4.0007,-3.9697,-3.9697,-3.9697,-3.9697,-3.9697,-3.9697,-3.9697,-3.9697,-3.9697,-3.9697,-3.9697,-3.9697,-3.9697,-3.9697,-3.9697,-3.9697,-3.9697,-3.9697,-3.9697,-3.9697,-3.9697,-3.9697,-3.9697,-3.9697,-3.9697,-3.9697,-3.9697,-3.9697,-3.9647,-3.9572,-3.8542,-3.8191,-3.8718,-3.8191,-3.7638,-3.7136,-3.7638,-3.7638,-3.7136,-3.7638,-3.7914,-3.7939,-3.7939,-3.7965,-2.4288,-2.6492,-2.8527,-2.7812,-2.707,-2.8102,-3.4191,-3.563,-3.6038,-3.7296,-3.8253,0.0,0.0,0.0,-3.9624,-4.176,0.0,0.0,0.0,0.0,0.0,0.0,0.0,0.0,0.0,0.0,0.0,0.0,0.0,0.0,-4.6711,-4.6681,-4.6381,-4.5693,-4.5693,-4.5574,-4.5304,-4.5304,-4.5544,-4.6052,-4.5813,-4.5484,-4.5065,-4.4796,-4.3685,-4.2045,-4.2737,-4.1997,-4.042,-4.2,-4.2508,-4.2316,-4.3021,-4.329,-4.329,-4.329,-4.329,-4.329,-4.329,-4.3061,-4.2703,-4.2462,-4.2043,-4.1544,-4.0837,-4.0504,-4.0309,-3.9827,-3.9697,-3.9697,-3.9697,-3.9697,-3.9697,-3.9697,-3.9697,-3.9697,-3.9697,-3.9697,-3.9697,-3.9697,-3.9697,-3.9697,-3.9697,-3.9697,-3.9697,-3.9697,-3.9697,-3.9697,-3.9697,-3.9697,-3.9697,-3.9697,-3.9697,-3.9697,-3.9697,-3.9697,-3.9697,-3.9697,-3.8969,-3.8642,-3.8919,-3.8316,-3.7914,-3.7688,-3.7889,-3.7914,-3.7688,-3.7914,-3.8191,-3.8542,-3.8542,-3.8743,-2.2959,-2.4511,-2.6267,-2.6616,-2.7004,-2.8952,-3.5459,-3.715,-3.8136,-4.0911,-4.0969,-4.0002,-3.8263,0.0,0.0,0.0,0.0,0.0,0.0,0.0,0.0,0.0,0.0,0.0,0.0,0.0,0.0,0.0,0.0,0.0,0.0,-4.6112,-4.5693,-4.5005,-4.4975,-4.4885,-4.4676,-4.4676,-4.4676,-4.4676,-4.4676,-4.4556,-4.4317,-4.4107,-4.3112,-4.1629,-4.2426,-4.1529,-3.9676,-4.1848,-4.2508,-4.2193,-4.2981,-4.329,-4.329,-4.329,-4.308,-4.2806,-4.2972,-4.2514,-4.1869,-4.1839,-4.1281,-4.0543,-4.0338,-4.0018,-3.9697,-3.9697,-3.9697,-3.9697,-3.9697,-3.9697,-3.9697,-3.9697,-3.9697,-3.9697,-3.9697,-3.9697,-3.9697,-3.9697,-3.9697,-3.9697,-3.9697,-3.9697,-3.9697,-3.9697,-3.9697,-3.9697,-3.9697,-3.9697,-3.9697,-3.9697,-3.9697,-3.9697,-3.9697,-3.9697,-3.9697,-3.9697,-3.9346,-3.912,-3.912,-3.8743,-3.8467,-3.8291,-3.8442,-3.8442,-3.8291,-3.8442,-3.8743,-3.912,-3.912,-3.932,-2.256,-2.2076,-2.2247,-2.4998,-2.6589,-2.9388,-3.6656,-3.6724,-3.7711,-4.6513,-4.4482,-4.1342,-4.1995,-4.1575,0.0,0.0,0.0,0.0,0.0,0.0,0.0,0.0,0.0,0.0,0.0,0.0,0.0,0.0,0.0,0.0,0.0,-4.5663,-4.4975,-4.4317,-4.4317,-4.3947,-4.329,-4.329,-4.329,-4.329,-4.329,-4.3648,-4.4287,-4.3589,-4.267,-4.1587,-4.1629,-4.0492,-3.8858,-4.0788,-4.2275,-4.329,-4.329,-4.329,-4.329,-4.329,-4.2544,-4.1653,-4.2195,-4.1639,-4.0703,-4.0638,-4.0592,-4.049,-3.9876,-3.9697,-3.9697,-3.9697,-3.9697,-3.9697,-3.9697,-3.9697,-3.9697,-3.9697,-3.9697,-3.9697,-3.9697,-3.9697,-3.9697,-3.9697,-3.9697,-3.9697,-3.9697,-3.9697,-3.9697,-3.9697,-3.9697,-3.9697,-3.9697,-3.9697,-3.9697,-3.9697,-3.9697,-3.9697,-3.9697,-3.9697,-3.9697,-3.9697,-3.9697,-3.9697,-3.9697,-3.9697,-3.9446,-3.8944,-3.9421,-3.9421,-3.8919,-3.9421,-3.9697,-3.9697,-3.9697,-3.9697,-2.1898,-2.4334,-2.6791,-2.5836,0.0,0.0,-3.8103,-3.8908,-4.0606,0.0,-4.6032,-4.3797,-4.2952,0.0,0.0,0.0,0.0,0.0,0.0,0.0,0.0,0.0,0.0,0.0,0.0,0.0,0.0,0.0,0.0,0.0,0.0,-4.4706,-4.4317,-4.3618,-4.3589,-4.3499,-4.329,-4.329,-4.329,-4.329,-4.329,-4.3379,-4.3589,-4.3379,-4.3138,-4.2806,-4.2795,-4.1571,-3.9633,-4.1028,-4.2275,-4.329,-4.329,-4.329,-4.321,-4.2426,-4.2141,-4.2067,-4.1432,-4.0948,-4.0618,-4.0633,-4.0311,-3.9952,-3.9774,-3.9697,-3.9697,-3.9697,-3.9697,-3.9697,-3.9697,-3.9697,-3.9697,-3.9697,-3.9697,-3.9697,-3.9697,-3.9697,-3.9697,-3.9697,-3.9697,-3.9697,-3.9697,-3.9697,-3.9697,-3.9697,-3.9697,-3.9697,-3.9697,-3.9697,-3.9697,-3.9697,-3.9697,-3.9697,-3.9697,-3.9697,-3.9697,-3.9697,-3.9697,-3.9697,-3.9697,-3.9697,-3.9622,-3.9446,-3.9622,-3.9622,-3.9446,-3.9622,-3.9697,-3.9697,-3.9697,-3.9697,-2.1658,-2.4035,-2.6767,-2.8086,-3.1589,-3.5625,-3.907,0.0,0.0,0.0,-4.5756,-4.4399,-4.5006,-4.4748,0.0,0.0,0.0,0.0,0.0,0.0,0.0,0.0,0.0,0.0,0.0,0.0,0.0,0.0,0.0,0.0,0.0,-4.4077,-4.3708,-4.329,-4.329,-4.329,-4.329,-4.329,-4.329,-4.329,-4.329,-4.329,-4.329,-4.329,-4.3309,-4.3242,-4.2327,-4.1699,-4.1239,-4.1,-4.1864,-4.329,-4.329,-4.329,-4.317,-4.2029,-4.1524,-4.128,-4.0559,-4.0001,-3.9633,-4.0083,-4.0029,-3.9697,-3.9697,-3.9697,-3.9697,-3.9697,-3.9697,-3.9697,-3.9697,-3.9697,-3.9697,-3.9697,-3.9697,-3.9697,-3.9697,-3.9697,-3.9697,-3.9697,-3.9697,-3.9697,-3.9697,-3.9697,-3.9697,-3.9697,-3.9697,-3.9697,-3.9697,-3.9697,-3.9697,-3.9697,-3.9697,-3.9697,-3.9697,-3.9697,-3.9697,-3.9697,-3.9697,-3.9697,-3.9697,-3.9697,-3.9697,-3.9697,-3.9697,-3.9697,-3.9697,-3.9697,-3.9697,-3.9697,-3.9697,-3.9697,-2.1978,-2.2608,-2.4528,-3.1147,-3.3654,0.0,-3.9802,-4.3392,-4.5877,-4.6085,0.0,-4.3686,-4.7287,0.0,0.0,0.0,0.0,0.0,0.0,0.0,0.0,0.0,0.0,0.0,0.0,0.0,0.0,0.0,0.0,0.0,0.0,-4.3499,-4.317,-4.329,-4.323,-4.32,-4.3299,-4.3299,-4.323,-4.3081,-4.323,-4.326,-4.317,-4.325,-4.325,-4.3021,-4.0958,-4.1239,-4.2981,-4.0916,-4.1365,-4.329,-4.329,-4.329,-4.317,-4.1906,-4.0817,-3.9947,-3.9669,-3.8895,-3.8166,-3.9269,-3.962,-3.962,-3.9697,-3.9697,-3.9697,-3.9697,-3.9697,-3.9697,-3.9697,-3.9697,-3.9697,-3.9697,-3.9697,-3.9697,-3.9697,-3.9697,-3.9697,-3.9697,-3.9697,-3.9697,-3.9697,-3.9697,-3.9697,-3.9697,-3.9697,-3.9697,-3.9697,-3.9697,-3.9697,-3.9697,-3.9697,-3.9697,-3.9697,-3.9697,-3.9697,-3.9697,-3.9697,-3.9697,-3.9697,-3.9697,-3.9697,-3.9697,-3.9697,-3.9697,-3.9697,-3.9697,-3.9697,-3.9697,-3.9697,-3.9697,-2.4058,-2.6688,0.0,-3.2791,-3.6722,-4.0203,-4.1268,-4.1396,-4.1835,-4.374,-4.3693,-4.3721,0.0,0.0,0.0,0.0,0.0,0.0,0.0,0.0,0.0,0.0,0.0,0.0,0.0,0.0,0.0,0.0,0.0,0.0,-4.3439,-4.2432,-4.2282,-4.326,-4.2652,-4.262,-4.3283,-4.3283,-4.2693,0.0,-4.2723,-4.2823,-4.1988,-4.29,-4.282,-4.1947,-4.1462,-4.1504,-4.1947,-4.142,-4.2029,-4.329,-4.329,-4.329,-4.3021,-4.1,-4.0408,-4.0292,-3.8397,-3.784,-3.8105,-3.8834,-3.9086,-3.9162,-3.9595,-3.9697,-3.9697,-3.9697,-3.9697,-3.9697,-3.9697,-3.9697,-3.9697,-3.9697,-3.9697,-3.9697,-3.9697,-3.9697,-3.9697,-3.9697,-3.9697,-3.9697,-3.9697,-3.9697,-3.9697,-3.9697,-3.9697,-3.9697,-3.9697,-3.9697,-3.9697,-3.9697,-3.9697,-3.9697,-3.9697,-3.9697,-3.9697,-3.9697,-3.9697,-3.9697,-3.9697,-3.9697,-3.9697,-3.9697,-3.9697,-3.9697,-3.9697,-3.9697,-3.9697,-3.9697,-3.9697,-3.9697,-2.4693,0.0,0.0,-3.4095,0.0,-4.0885,-4.0096,-3.9634,-3.9664,-4.0658,-4.0843,0.0,0.0,0.0,0.0,0.0,0.0,0.0,0.0,0.0,0.0,0.0,0.0,0.0,0.0,0.0,0.0,0.0,0.0,-4.1683,-4.2372,-4.1743,-4.1782,-4.2668,-4.2043,-4.2226,-4.3281,-4.2689,-4.1135,-3.8722,-4.0704,-4.1168,-4.042,-4.1843,-4.1864,-4.0788,-4.0788,-4.1085,-4.1587,-4.1587,-4.2275,-4.329,-4.329,-4.2981,-4.2304,-4.0532,-3.9727,-3.9239,-3.7715,-3.7362,-3.7742,-3.8617,-3.8916,-3.8985,-3.9519,-3.9697,-3.9697,-3.9697,-3.9697,-3.9697,-3.9697,-3.9697,-3.9697,-3.9697,-3.9697,-3.9697,-3.9697,-3.9896,-4.0022,-3.9747,-3.9896,-4.0097,-4.0099,-4.0099,-3.9998,-3.9747,-3.9697,-3.9697,-3.9697,-3.9697,-3.9697,-3.9697,-3.9697,-3.9697,-3.9697,-3.9697,-3.9697,-3.9697,-3.9697,-3.9697,-3.9697,-3.9697,-3.9697,-3.9697,-3.9697,-3.9697,-3.9697,-3.9697,-3.9697,-3.9697,-3.9697,-3.9697,-2.4943,-2.6638,-2.8968,-3.5257,-3.8409,0.0,-3.8411,-3.8326,-3.8326,-3.7817,0.0,0.0,0.0,0.0,0.0,0.0,0.0,0.0,0.0,0.0,0.0,0.0,0.0,0.0,0.0,0.0,0.0,0.0,0.0,-4.1145,-4.1422,-4.1175,-4.131,-4.1881,-4.1332,-4.1633,-4.2849,-4.1316,-3.9045,-3.623,-3.8279,-3.8974,-3.8596,-4.014,-4.0377,-3.9579,-3.9826,-4.0447,-4.1337,-4.1504,-4.2275,-4.329,-4.329,-4.2589,-4.1462,-4.0318,-3.9139,-3.7997,-3.7288,-3.7061,-3.7238,-3.8405,-3.8743,-3.8832,-3.9519,-3.9697,-3.9697,-3.9697,-3.9697,-3.9697,-3.9697,-3.9697,-3.9697,-3.9697,-3.9697,-3.9697,-3.9697,-4.0072,-4.022,-3.9798,-4.012,-4.0545,-4.0598,-4.0576,-4.035,-3.9898,-3.9747,-3.9697,-3.9697,-3.9697,-3.9697,-3.9697,-3.9697,-3.9697,-3.9697,-3.9697,-3.9697,-3.9697,-3.9697,-3.9697,-3.9697,-3.9697,-3.9697,-3.9697,-3.9697,-3.9697,-3.9697,-3.9697,-3.9697,-3.9697,-3.9697,-3.9697,-2.5825,0.0,-3.3918,0.0,-3.7667,-3.8169,0.0,0.0,-3.7022,0.0,0.0,0.0,0.0,0.0,0.0,0.0,0.0,0.0,0.0,0.0,0.0,0.0,0.0,0.0,0.0,0.0,0.0,0.0,-4.0337,-4.0187,-4.1324,-4.0307,-4.0217,-4.1422,-4.0293,-4.0092,-4.1039,-3.8294,-3.6677,-3.6306,-3.6749,-3.6893,-3.6844,-3.7561,-3.8034,-3.8379,-3.9448,-4.0,-4.0189,-4.1211,-4.2275,-4.329,-4.329,-4.2589,-4.1462,-4.0318,-3.9139,-3.7952,-3.6875,-3.6502,-3.6701,-3.7779,-3.8116,-3.83,-3.9365,-3.9697,-3.9697,-3.9697,-3.9697,-3.9697,-3.9697,-3.9697,-3.9697,-3.9697,-3.9697,-3.9697,-3.9697,-3.9772,-3.9798,-3.9697,-4.012,-4.0617,-4.11,-4.0827,-4.0501,-4.0425,-3.9998,-3.9697,-3.9697,-3.9697,-3.9697,-3.9697,-3.9697,-3.9697,-3.9697,-3.9697,-3.9697,-3.9697,-3.9697,-3.9697,-3.9697,-3.9697,-3.9697,-3.9697,-3.9697,-3.9697,-3.9697,-3.9697,-3.9697,-3.9697,-3.9697,-3.9697,-2.6437,-2.9772,-3.3313,0.0,-3.6674,-3.7126,-3.7497,0.0,0.0,0.0,0.0,0.0,0.0,0.0,0.0,0.0,0.0,0.0,0.0,0.0,0.0,0.0,0.0,0.0,0.0,0.0,0.0,0.0,-3.9738,-3.9679,-4.0247,-3.9738,-3.9679,-4.0277,-3.9719,-3.9599,-3.9955,-3.806,-3.6526,-3.5397,-3.5174,-3.5036,-3.5061,-3.5583,-3.5968,-3.627,-3.7812,-3.8798,-3.9489,-4.0697,-4.1994,-4.325,-4.2589,-4.1657,-4.049,-3.9316,-3.8153,-3.7057,-3.6593,-3.6405,-3.6581,-3.7635,-3.7991,-3.8189,-3.9343,-3.9697,-3.9697,-3.9697,-3.9697,-3.9697,-3.9697,-3.9697,-3.9697,-3.9697,-3.9697,-3.9697,-3.9697,-3.9921,-4.017,-4.0137,-4.0367,-4.0498,-4.0425,-4.0475,-4.04,-4.0099,-3.9848,-3.9697,-3.9697,-3.9697,-3.9697,-3.9697,-3.9697,-3.9697,-3.9697,-3.9697,-3.9697,-3.9697,-3.9697,-3.9823,-4.0149,-3.9848,-3.9848,-4.0149,-3.9848,-3.9697,-3.9697,-3.9697,-3.9697,-3.9697,-3.9697,-3.9697,0.0,0.0,-3.0747,-3.3522,-3.4842,-3.5629,0.0,0.0,0.0,0.0,0.0,0.0,0.0,0.0,0.0,0.0,0.0,0.0,0.0,0.0,0.0,0.0,0.0,0.0,0.0,0.0,0.0,0.0,-3.9373,-3.9373,-3.9373,-3.9373,-3.9373,-3.9373,-3.9068,-3.9068,-3.9373,-3.8069,-3.6358,-3.4262,-3.3903,-3.3696,-3.3696,-3.4248,-3.4424,-3.4394,-3.5967,-3.7289,-3.8471,-3.9602,-4.0903,-4.2122,-4.1563,-4.0562,-3.9316,-3.8424,-3.7356,-3.6405,-3.6405,-3.6505,-3.6782,-3.7688,-3.8115,-3.8417,-3.9396,-3.9697,-3.9697,-3.9697,-3.9697,-3.9697,-3.9697,-3.9697,-3.9697,-3.9697,-3.9697,-3.9697,-3.9697,-4.0022,-4.0342,-4.0454,-4.0489,-4.0423,-4.0149,-4.035,-4.0375,-3.9973,-3.9798,-3.9697,-3.9697,-3.9697,-3.9697,-3.9697,-3.9697,-3.9697,-3.9697,-3.9823,-3.9898,-3.9898,-4.0023,-4.03,-4.0701,-4.0325,-4.03,-4.0727,-4.0325,-4.0049,-3.9898,-4.0049,-4.0049,-3.9898,-3.9898,-3.9823,0.0,-2.5871,0.0,-2.9974,-3.1642,0.0,0.0,0.0,0.0,0.0,0.0,0.0,0.0,0.0,0.0,0.0,0.0,0.0,0.0,0.0,0.0,0.0,0.0,0.0,0.0,0.0,0.0,0.0,-3.9373,-3.9373,-3.9373,-3.9373,-3.9373,-3.9373,-3.8175,-3.8109,-3.9373,-3.7329,-3.5238,-3.3197,-3.3136,-3.3162,-3.3187,-3.3696,-3.3646,-3.3262,-3.4343,-3.5531,-3.6721,-3.7714,-3.8574,-3.934,-4.0285,-3.9632,-3.8198,-3.8107,-3.7356,-3.6405,-3.6405,-3.6757,-3.7236,-3.7814,-3.8391,-3.8944,-3.9521,-3.9697,-3.9697,-3.9697,-3.9697,-3.9697,-3.9697,-3.9697,-3.9697,-3.9697,-3.9697,-3.9697,-3.9697,-3.9722,-3.9898,-4.0373,-4.0495,-4.0671,-4.1125,-4.0852,-4.0501,-4.0475,-4.0023,-3.9697,-3.9697,-3.9697,-3.9697,-3.9697,-3.9697,-3.9697,-3.9697,-4.0174,-4.0475,-4.0475,-4.0953,-4.12,-4.125,-4.12,-4.12,-4.125,-4.12,-4.1003,-4.0475,-4.0949,-4.0924,-4.0475,-4.0475,-4.0199,0.0,0.0,0.0,-2.8486,-3.0086,-3.1438,0.0,0.0,0.0,0.0,0.0,0.0,0.0,0.0,0.0,0.0,0.0,0.0,0.0,0.0,0.0,0.0,0.0,0.0,0.0,0.0,0.0,0.0,0.0,-3.9429,-3.9429,-3.8567,-3.8247,-3.8567,-3.7565,-3.6957,-3.676,-3.6007,-3.4768,-3.3111,-3.3111,-3.3111,-3.3136,-3.3294,-3.3269,-3.3093,-3.3495,-3.452,-3.5966,-3.6293,-3.7274,-3.8505,-3.851,-3.8091,-3.7561,-3.7134,-3.6756,-3.6405,-3.6405,-3.6531,-3.6857,-3.7713,-3.814,-3.8492,-3.9421,-3.9697,-3.9697,-3.9697,-3.9697,-3.9697,-3.9697,-3.9697,-3.9697,-3.9697,-3.9697,-3.9697,-3.9697,-3.9697,-3.9747,-3.9948,-3.9971,-4.0047,-4.0249,-4.0124,-4.0099,-4.0475,-4.0049,-3.9823,-4.0174,-3.9923,-3.9697,-3.9697,-4.0023,-4.0224,-4.0224,-4.0727,-4.1,-4.1,-4.1175,-4.1505,-4.1856,-4.153,-4.1505,-4.1856,-4.1856,-4.158,-4.1,-4.12,-4.1175,-4.1,-4.1,-4.0874,-2.4533,0.0,0.0,0.0,0.0,-2.9132,0.0,0.0,0.0,0.0,0.0,0.0,0.0,0.0,0.0,0.0,0.0,0.0,0.0,0.0,0.0,0.0,0.0,0.0,0.0,0.0,0.0,0.0,0.0,0.0,-3.9371,-3.7721,-3.6905,-3.7199,-3.6759,-3.5956,-3.4682,-3.4749,-3.4126,-3.2792,-3.2993,-3.3111,-3.3111,-3.3111,-3.3111,-3.3111,-3.3111,-3.3717,-3.4793,-3.5147,-3.5885,-3.6768,-3.691,-3.6857,-3.667,-3.6459,-3.6405,-3.6405,-3.6405,-3.6531,-3.6832,-3.7713,-3.814,-3.8467,-3.9421,-3.9697,-3.9697,-3.9697,-3.9697,-3.9697,-3.9697,-3.9697,-3.9697,-3.9697,-3.9697,-3.9697,-3.9697,-3.9697,-3.9697,-3.9697,-3.9697,-3.9697,-3.9697,-3.9697,-3.9873,-4.0425,-4.0049,-3.9898,-4.045,-4.0023,-3.9697,-3.9697,-4.0199,-4.0526,-4.0526,-4.1204,-4.1605,-4.1605,-4.1781,-4.2057,-4.2464,-4.2082,-4.2057,-4.2489,-4.2489,-4.2258,-4.1882,-4.1882,-4.1806,-4.1605,-4.1605,-4.148,0.0,0.0,0.0,0.0,0.0,0.0,0.0,0.0,0.0,0.0,0.0,0.0,0.0,0.0,0.0,0.0,0.0,0.0,0.0,0.0,0.0,0.0,0.0,0.0,0.0,0.0,0.0,0.0,-3.7375,-3.7914,-3.9215,-3.6871,-3.5477,-3.5511,-3.5782,-3.5138,-3.3459,-3.3656,-3.3253,-3.224,-3.2817,-3.3111,-3.3111,-3.3111,-3.3111,-3.3111,-3.3111,-3.3111,-3.3197,-3.422,-3.4373,-3.4079,-3.5617,-3.5948,-3.5558,-3.6157,-3.6405,-3.6405,-3.6405,-3.6757,-3.7262,-3.7814,-3.8391,-3.8994,-3.9521,-3.9697,-3.9697,-3.9697,-3.9697,-3.9697,-3.9697,-3.9697,-3.9697,-3.9697,-3.9697,-3.9697,-3.9697,-3.9697,-3.9697,-3.9697,-3.9697,-3.9697,-3.9697,-3.9697,-3.9898,-4.045,-4.0099,-3.9948,-4.0475,-4.0074,-3.9747,-3.9722,-4.0224,-4.0576,-4.0576,-4.1555,-4.2238,-4.2238,-4.274,-4.2986,-4.2986,-4.2986,-4.2986,-4.2986,-4.2986,-4.2986,-4.2986,-4.2986,-4.271,-4.2238,-4.2238,-4.1944,-2.4104,0.0,0.0,0.0,0.0,0.0,0.0,0.0,0.0,0.0,0.0,0.0,0.0,0.0,0.0,0.0,0.0,0.0,0.0,0.0,0.0,0.0,0.0,0.0,0.0,0.0,0.0,0.0,-3.711,-3.6184,-3.6556,-3.5872,-3.5502,-3.5478,-3.4889,-3.4384,-3.4056,-3.3391,-3.299,-3.2842,-3.2993,-3.3111,-3.3111,-3.3111,-3.3111,-3.3111,-3.3111,-3.3111,-3.3111,-3.3428,-3.3672,-3.3991,-3.4832,-3.5279,-3.5558,-3.6157,-3.6405,-3.6405,-3.6405,-3.6505,-3.6782,-3.7688,-3.8115,-3.8417,-3.9396,-3.9697,-3.9697,-3.9697,-3.9697,-3.9697,-3.9697,-3.9697,-3.9697,-3.9697,-3.9697,-3.9697,-3.9697,-3.9697,-3.9697,-3.9697,-3.9697,-3.9697,-3.9697,-4.0023,-4.0475,-4.0974,-4.0924,-4.0874,-4.105,-4.0924,-4.0727,-4.0325,-4.1128,-4.176,-4.176,-4.2333,-4.2816,-4.2816,-4.2886,-4.2986,-4.2986,-4.2986,-4.2986,-4.2986,-4.2986,-4.2986,-4.2986,-4.2986,-4.2886,-4.2816,-4.2816,-4.269,-2.4481,-2.418,-2.3853,0.0,0.0,0.0,-2.6085,-2.6948,-2.813,0.0,0.0,0.0,0.0,0.0,0.0,0.0,0.0,0.0,0.0,0.0,0.0,0.0,0.0,0.0,0.0,-3.6981,-3.7758,-3.7776,-3.6351,-3.5519,-3.5519,-3.5519,-3.5413,-3.5251,-3.4278,-3.374,-3.3657,-3.2909,-3.2593,-3.2717,-3.2968,-3.3111,-3.3111,-3.3111,-3.3111,-3.3111,-3.3111,-3.3111,-3.3136,-3.3319,-3.3621,-3.3972,-3.4731,-3.5207,-3.5558,-3.6157,-3.6405,-3.6405,-3.6405,-3.6405,-3.6581,-3.7638,-3.8015,-3.8216,-3.9346,-3.9697,-3.9697,-3.9697,-3.9697,-3.9697,-3.9697,-3.9697,-3.9697,-3.9697,-3.9697,-3.9697,-3.9697,-3.9697,-3.9697,-3.9697,-3.9697,-3.9772,-3.9998,-4.03,-4.0777,-4.1555,-4.148,-4.1275,-4.1275,-4.1275,-4.1075,-4.0576,-4.1505,-4.2213,-4.2213,-4.2715,-4.2986,-4.2986,-4.2986,-4.2986,-4.2986,-4.2986,-4.2986,-4.2986,-4.2986,-4.2986,-4.2986,-4.2986,-4.2986,-4.2986,-4.2986,-4.2986,-2.5041,-2.4456,-2.3929,0.0,0.0,0.0,-2.6903,-2.7317,-2.7817,0.0,0.0,0.0,0.0,0.0,0.0,0.0,0.0,0.0,0.0,0.0,0.0,0.0,0.0,0.0,-3.3373,-3.471,-3.5499,-3.5517,-3.5519,-3.5519,-3.5519,-3.5519,-3.5296,-3.4922,-3.3904,-3.324,-3.2909,-3.2434,-3.224,-3.2315,-3.2842,-3.3111,-3.3111,-3.3111,-3.3111,-3.3111,-3.3111,-3.3119,-3.3219,-3.3771,-3.3997,-3.4098,-3.5082,-3.5533,-3.5633,-3.6182,-3.6405,-3.6405,-3.6405,-3.6405,-3.6581,-3.7588,-3.7914,-3.8115,-3.927,-3.9597,-3.9622,-3.9672,-3.9697,-3.9697,-3.9697,-3.9697,-3.9697,-3.9697,-3.9697,-3.9697,-3.9697,-3.9697,-3.9722,-3.9772,-3.9798,-3.9948,-4.0425,-4.0626,-4.1028,-4.2062,-4.1781,-4.1451,-4.1376,-4.1426,-4.1304,-4.0752,-4.163,-4.2313,-4.2313,-4.276,-4.3062,-4.3062,-4.3112,-4.3162,-4.3162,-4.3162,-4.3218,-4.3193,-4.3118,-4.3067,-4.3067,-4.3042,-4.2986,-4.2986,-4.2986,-4.2986,0.0,0.0,0.0,0.0,0.0,0.0,-2.3931,-2.3688,-2.3829,0.0,0.0,0.0,0.0,0.0,0.0,0.0,0.0,0.0,0.0,0.0,0.0,0.0,0.0,0.0,-3.264,-3.4456,-3.5499,-3.5517,-3.5519,-3.5519,-3.5519,-3.5519,-3.5296,-3.4922,-3.3904,-3.343,-3.3541,-3.2638,-3.2441,-3.2918,-3.3018,-3.3111,-3.3111,-3.3111,-3.3111,-3.3111,-3.3111,-3.3319,-3.3796,-3.4324,-3.455,-3.4625,-3.5232,-3.5805,-3.6254,-3.638,-3.6405,-3.6405,-3.6405,-3.6405,-3.6505,-3.7136,-3.7337,-3.7563,-3.8693,-3.9044,-3.912,-3.9572,-3.9697,-3.9697,-3.9697,-3.9697,-3.9697,-3.9697,-3.9697,-3.9697,-3.9697,-3.9697,-3.9823,-4.0275,-4.035,-4.04,-4.0501,-4.1254,-4.1961,-4.2187,-4.2434,-4.2484,-4.2112,-4.2384,-4.2434,-4.1961,-4.2464,-4.2811,-4.2811,-4.3313,-4.3639,-4.3639,-4.4066,-4.4292,-4.4292,-4.4292,-4.4274,-4.4301,-4.3852,-4.363,-4.363,-4.3229,-4.2986,-4.2986,-4.2986,-4.2986,0.0,0.0,0.0,-2.3853,0.0,0.0,0.0,-2.4464,-2.4626,0.0,0.0,0.0,0.0,0.0,0.0,0.0,0.0,0.0,0.0,0.0,0.0,0.0,0.0,0.0,-3.2111,-3.4269,-3.552,-3.5517,-3.5519,-3.5519,-3.5519,-3.5233,-3.5199,-3.5382,-3.4203,-3.3765,-3.4187,-3.3164,-3.2792,-3.3111,-3.3111,-3.3111,-3.3111,-3.3111,-3.3111,-3.3111,-3.3111,-3.3395,-3.3922,-3.4198,-3.465,-3.5132,-3.573,-3.6107,-3.6405,-3.6405,-3.6405,-3.6405,-3.6405,-3.6405,-3.6505,-3.7059,-3.7362,-3.7764,-3.8668,-3.912,-3.9346,-3.9622,-3.9697,-3.9697,-3.9697,-3.9697,-3.9697,-3.9697,-3.9697,-3.9697,-3.9697,-3.9697,-3.9848,-4.04,-4.0752,-4.1003,-4.1279,-4.1835,-4.2313,-4.259,-4.2866,-4.2841,-4.2288,-4.269,-4.276,-4.2263,-4.2715,-4.2986,-4.2986,-4.3489,-4.379,-4.379,-4.4317,-4.4618,-4.4618,-4.4618,-4.4618,-4.4618,-4.4352,-4.408,-4.3809,-4.3514,-4.3394,-4.3361,-4.3425,-4.3237,0.0,0.0,0.0,0.0,0.0,-2.4272,0.0,0.0,0.0,0.0,0.0,0.0,0.0,0.0,0.0,0.0,0.0,0.0,0.0,0.0,0.0,0.0,0.0,0.0,0.0,-3.3537,-3.494,-3.5454,-3.5492,-3.5492,-3.5519,-3.5258,-3.5251,-3.5589,-3.459,-3.411,-3.4387,-3.3513,-3.3111,-3.3111,-3.3111,-3.3111,-3.3111,-3.3111,-3.3111,-3.3111,-3.3111,-3.3395,-3.3897,-3.3897,-3.4474,-3.5382,-3.5981,-3.6329,-3.6405,-3.6405,-3.6405,-3.6405,-3.6405,-3.6405,-3.648,-3.6933,-3.7387,-3.7939,-3.8391,-3.9019,-3.9546,-3.9546,-3.9622,-3.9697,-3.9697,-3.9697,-3.9697,-3.9697,-3.9697,-3.9697,-3.9697,-3.9697,-3.9898,-4.0551,-4.0974,-4.1505,-4.2112,-4.2313,-4.2514,-4.2911,-4.2986,-4.2811,-4.2414,-4.271,-4.2811,-4.2414,-4.271,-4.2986,-4.2986,-4.3589,-4.3915,-4.3815,-4.4418,-4.4744,-4.4618,-4.4611,-4.4586,-4.4625,-4.4602,-4.4468,-4.4111,-4.4044,-4.384,-4.3655,-4.3627,-4.3413,0.0,0.0,0.0,0.0,-2.4004,0.0,0.0,0.0,0.0,0.0,0.0,0.0,0.0,0.0,0.0,0.0,0.0,0.0,0.0,0.0,0.0,0.0,0.0,0.0,0.0,-3.1261,-3.2893,-3.5335,-3.5501,-3.5503,-3.5489,-3.6174,-3.5915,-3.4556,-3.4871,-3.4513,-3.33,-3.3154,-3.3111,-3.3111,-3.3111,-3.3111,-3.3111,-3.3111,-3.3111,-3.3111,-3.3111,-3.3395,-3.3897,-3.3897,-3.4248,-3.4831,-3.5382,-3.5931,-3.6405,-3.6405,-3.6405,-3.6405,-3.6405,-3.6405,-3.6405,-3.648,-3.6835,-3.7287,-3.7362,-3.8115,-3.902,-3.902,-3.932,-3.9697,-3.9697,-3.9697,-3.9697,-3.9697,-3.9697,-3.9697,-3.9697,-3.9697,-3.9998,-4.1,-4.125,-4.1505,-4.2112,-4.2615,-4.2911,-4.2961,-4.2986,-4.2961,-4.2886,-4.2936,-4.2961,-4.2942,-4.2936,-4.2986,-4.2986,-4.394,-4.4317,-4.384,-4.4794,-4.5171,-4.4644,-4.4586,-4.459,-4.4593,-4.4604,-4.4833,-4.5331,-4.4793,-4.3986,-4.3067,-4.3118,-4.3037,0.0,0.0,0.0,0.0,0.0,0.0,-2.3979,0.0,-2.3201,0.0,0.0,0.0,0.0,0.0,0.0,0.0,-2.4253,0.0,0.0,0.0,0.0,0.0,0.0,0.0,0.0,0.0,0.0,0.0,-3.4394,-3.4243,-3.5427,-3.5971,-3.5954,-3.5224,-3.5073,-3.4658,-3.4037,-3.3386,-3.3111,-3.3111,-3.3111,-3.3111,-3.3111,-3.3111,-3.3111,-3.3111,-3.3111,-3.3395,-3.3872,-3.3545,-3.4123,-3.5157,-3.5056,-3.5403,-3.5931,-3.6279,-3.6405,-3.6405,-3.6405,-3.6405,-3.6455,-3.6782,-3.7211,-3.7663,-3.7663,-3.8442,-3.927,-3.902,-3.927,-3.9697,-3.9697,-3.9697,-3.9697,-3.9697,-3.9697,-3.9697,-3.9697,-3.9697,-3.9923,-4.0701,-4.1075,-4.1505,-4.2112,-4.2665,-4.2986,-4.2986,-4.2986,-4.2986,-4.2986,-4.2986,-4.2986,-4.2986,-4.2986,-4.2986,-4.2986,-4.3689,-4.4041,-4.3815,-4.4543,-4.502,-4.5121,-4.5103,-4.526,-4.5579,-4.5604,-4.5565,-4.552,-4.5219,-4.4703,-4.394,-4.394,-4.3589,-2.8222,0.0,0.0,0.0,0.0,0.0,0.0,0.0,0.0,0.0,0.0,0.0,0.0,0.0,0.0,0.0,0.0,0.0,0.0,0.0,0.0,0.0,0.0,0.0,0.0,0.0,0.0,-3.4389,-3.2725,-3.2725,-3.5335,-3.6006,-3.605,-3.5472,-3.5213,-3.4856,-3.4262,-3.3471,-3.3111,-3.3111,-3.3111,-3.3111,-3.3111,-3.3111,-3.3111,-3.3111,-3.3111,-3.3294,-3.3646,-3.3244,-3.3872,-3.5031,-3.4781,-3.5006,-3.5558,-3.6157,-3.6405,-3.6405,-3.6405,-3.6405,-3.648,-3.6835,-3.7337,-3.7739,-3.7613,-3.8442,-3.9346,-3.8793,-3.9145,-3.9697,-3.9697,-3.9697,-3.9697,-3.9697,-3.9697,-3.9697,-3.9697,-3.9697,-3.9898,-4.0601,-4.1025,-4.1555,-4.2313,-4.271,-4.2986,-4.2986,-4.2986,-4.2986,-4.2986,-4.2986,-4.3037,-4.3187,-4.3062,-4.3037,-4.3187,-4.3564,-4.379,-4.379,-4.4192,-4.4518,-4.4794,-4.5095,-4.5447,-4.5849,-4.5999,-4.5974,-4.5723,-4.5573,-4.5271,-4.4844,-4.4694,-4.4192,0.0,0.0,0.0,-2.6751,0.0,0.0,0.0,0.0,-2.3835,0.0,0.0,0.0,0.0,0.0,0.0,0.0,0.0,0.0,0.0,0.0,0.0,0.0,0.0,0.0,0.0,0.0,0.0,-3.2185,-3.058,-3.12,-3.5305,-3.6683,-3.6441,-3.4406,-3.5499,-3.5197,-3.3154,-3.3111,-3.3111,-3.3111,-3.3111,-3.3111,-3.3111,-3.3111,-3.3111,-3.3111,-3.3111,-3.3136,-3.3093,-3.3136,-3.342,-3.3997,-3.4525,-3.5006,-3.5558,-3.6157,-3.6405,-3.6405,-3.6405,-3.6405,-3.6405,-3.643,-3.6807,-3.7111,-3.6631,-3.7612,-3.8768,-3.8191,-3.8843,-3.9697,-3.9697,-3.9697,-3.9697,-3.9697,-3.9697,-3.9697,-3.9697,-3.9697,-4.0023,-4.105,-4.1275,-4.1681,-4.276,-4.2961,-4.2986,-4.2986,-4.2986,-4.2986,-4.2986,-4.2986,-4.3187,-4.3714,-4.3288,-4.3187,-4.374,-4.379,-4.379,-4.379,-4.3815,-4.3589,-4.3087,-4.4091,-4.4669,-4.4669,-4.5221,-4.5773,-4.6276,-4.5748,-4.5472,-4.5447,-4.4895,-4.4593,0.0,0.0,-3.0371,-2.8405,0.0,0.0,0.0,0.0,0.0,0.0,0.0,0.0,0.0,0.0,0.0,0.0,0.0,0.0,0.0,0.0,0.0,0.0,0.0,0.0,0.0,0.0,0.0,-3.2185,-3.1737,-3.2573,-3.5335,-3.6327,-3.6032,-3.4369,-3.514,-3.4821,-3.3111,-3.3111,-3.3111,-3.3111,-3.3111,-3.3111,-3.3111,-3.3111,-3.3111,-3.3111,-3.3111,-3.3111,-3.3111,-3.3111,-3.3621,-3.4449,-3.465,-3.5278,-3.6107,-3.6329,-3.6405,-3.6405,-3.6405,-3.6405,-3.6405,-3.6405,-3.6985,-3.7638,-3.7086,-3.809,-3.9295,-3.8743,-3.912,-3.9697,-3.9697,-3.9697,-3.9697,-3.9697,-3.9697,-3.9697,-3.9697,-3.9697,-3.9923,-4.0651,-4.105,-4.158,-4.2363,-4.2735,-4.2986,-4.2986,-4.2986,-4.2986,-4.2986,-4.2986,-4.3187,-4.374,-4.3639,-4.3589,-4.379,-4.3463,-4.3413,-4.379,-4.379,-4.4066,-4.4618,-4.4995,-4.5372,-4.5723,-4.5924,-4.6125,-4.6301,-4.6125,-4.6024,-4.6024,-4.5824,-4.5347,-3.1386,-3.1537,0.0,-2.9821,-2.9593,0.0,-2.6992,0.0,0.0,0.0,0.0,0.0,0.0,0.0,0.0,0.0,0.0,0.0,0.0,-2.3095,0.0,0.0,0.0,0.0,0.0,0.0,-2.8271,-3.1082,-3.132,-3.2301,0.0,0.0,-3.5915,-3.471,-3.5058,-3.4594,-3.3111,-3.3111,-3.3111,-3.3111,-3.3111,-3.3111,-3.3111,-3.3111,-3.3194,-3.337,-3.337,-3.347,-3.3671,-3.3671,-3.4198,-3.4981,-3.4981,-3.5554,-3.6405,-3.6405,-3.6405,-3.6405,-3.6405,-3.6405,-3.6405,-3.6405,-3.6985,-3.7638,-3.7287,-3.8216,-3.932,-3.902,-3.927,-3.9697,-3.9697,-3.9697,-3.9697,-3.9697,-3.9697,-3.9697,-3.9697,-3.9697,-3.9848,-4.04,-4.0899,-4.1505,-4.2112,-4.2665,-4.2986,-4.2986,-4.2986,-4.2986,-4.2986,-4.2986,-4.3263,-4.4016,-4.374,-4.3589,-4.379,-4.3288,-4.3212,-4.3765,-4.379,-4.4141,-4.4869,-4.5271,-4.5648,-4.6024,-4.62,-4.6301,-4.6301,-4.6301,-4.6301,-4.6301,-4.6301,-4.5924]},{"header":{"parameterUnit":"m.s-1","parameterCategory":1,"la1":30.6,"la2":29.2853,"lo1":-89.7004,"lo2":-87.6739,"dy":0.0162,"dx":0.0183,"nx":112,"ny":82,"refTime":"2023-04-05T06:00:00:Z","depth":0,"parameterNumber":3,"parameterNumberName":"V-component_of_WINDS"},"data":[0.0,0.0,0.0,0.0,0.0,0.0,0.0,0.0,0.0,0.0,0.0,0.0,0.0,0.0,0.0,0.0,0.0,0.0,0.0,0.0,0.0,0.0,0.0,0.0,0.0,0.0,0.0,0.0,0.0,0.0,0.0,0.0,0.0,0.0,0.0,0.0,0.0,0.0,0.0,0.0,0.0,0.0,0.0,0.0,0.0,0.0,0.0,0.0,0.0,0.0,0.0,0.0,0.0,0.0,0.0,0.0,0.0,0.0,0.0,0.0,0.0,0.0,0.0,0.0,0.0,0.0,0.0,0.0,0.0,0.0,0.0,0.0,0.0,0.0,0.0,0.0,0.0,0.0,0.0,0.0,0.0,0.0,0.0,0.0,0.0,0.0,0.0,0.0,0.0,0.0,2.9478,3.0231,3.2039,3.2943,3.2265,3.1311,3.0482,2.9829,0.0,0.0,0.0,0.0,0.0,0.0,0.0,0.0,0.0,0.0,0.0,0.0,0.0,0.0,0.0,0.0,0.0,0.0,0.0,0.0,0.0,0.0,0.0,0.0,0.0,0.0,0.0,0.0,0.0,0.0,0.0,0.0,0.0,0.0,0.0,0.0,0.0,0.0,0.0,0.0,0.0,0.0,0.0,0.0,0.0,0.0,0.0,0.0,0.0,0.0,0.0,0.0,0.0,0.0,0.0,0.0,0.0,0.0,0.0,0.0,0.0,0.0,0.0,0.0,0.0,0.0,0.0,0.0,0.0,0.0,0.0,0.0,0.0,0.0,0.0,0.0,0.0,0.0,0.0,0.0,0.0,0.0,0.0,0.0,0.0,0.0,0.0,0.0,0.0,0.0,0.0,0.0,0.0,0.0,0.0,0.0,0.0,0.0,0.0,0.0,0.0,0.0,0.0,0.0,3.0934,3.2416,3.3294,3.3345,3.2315,2.9553,2.8448,2.9704,0.0,0.0,0.0,0.0,0.0,0.0,0.0,0.0,0.0,0.0,0.0,0.0,0.0,0.0,0.0,0.0,0.0,0.0,0.0,0.0,0.0,0.0,0.0,0.0,0.0,0.0,0.0,0.0,0.0,0.0,0.0,0.0,0.0,0.0,0.0,0.0,0.0,0.0,0.0,0.0,0.0,0.0,0.0,0.0,0.0,0.0,0.0,0.0,0.0,0.0,0.0,0.0,0.0,0.0,0.0,0.0,0.0,0.0,0.0,0.0,0.0,0.0,0.0,0.0,0.0,0.0,0.0,0.0,0.0,0.0,0.0,0.0,0.0,0.0,0.0,0.0,0.0,0.0,0.0,0.0,0.0,0.0,0.0,0.0,0.0,0.0,0.0,0.0,0.0,0.0,0.0,0.0,0.0,0.0,0.0,0.0,0.0,0.0,0.0,0.0,0.0,0.0,0.0,3.0206,3.0783,3.2441,3.2842,3.2667,3.1838,2.9553,2.8624,2.9729,2.9227,0.0,0.0,0.0,0.0,0.0,0.0,0.0,0.0,0.0,0.0,0.0,0.0,0.0,0.0,0.0,0.0,0.0,0.0,0.0,0.0,0.0,0.0,0.0,0.0,0.0,0.0,0.0,0.0,0.0,0.0,0.0,0.0,0.0,0.0,0.0,0.0,0.0,0.0,0.0,0.0,0.0,0.0,0.0,0.0,0.0,0.0,0.0,0.0,0.0,0.0,0.0,0.0,0.0,0.0,0.0,0.0,0.0,0.0,0.0,0.0,0.0,0.0,0.0,0.0,0.0,0.0,0.0,0.0,0.0,0.0,0.0,0.0,0.0,0.0,0.0,0.0,0.0,0.0,0.0,0.0,0.0,0.0,0.0,0.0,0.0,0.0,0.0,0.0,0.0,0.0,0.0,0.0,0.0,0.0,0.0,0.0,0.0,0.0,0.0,0.0,0.0,0.0,3.0532,3.0884,3.2265,3.229,3.1989,3.1436,2.9528,2.875,2.9729,2.8473,0.0,0.0,0.0,0.0,0.0,0.0,0.0,0.0,0.0,0.0,0.0,0.0,0.0,0.0,0.0,0.0,0.0,0.0,0.0,0.0,0.0,0.0,0.0,0.0,0.0,0.0,0.0,0.0,0.0,0.0,0.0,0.0,0.0,0.0,0.0,0.0,0.0,0.0,0.0,0.0,0.0,0.0,0.0,0.0,0.0,0.0,0.0,0.0,0.0,0.0,0.0,0.0,0.0,0.0,0.0,0.0,0.0,0.0,0.0,0.0,0.0,0.0,0.0,0.0,0.0,0.0,0.0,0.0,0.0,0.0,0.0,0.0,0.0,0.0,0.0,0.0,0.0,0.0,0.0,0.0,0.0,0.0,0.0,0.0,0.0,0.0,0.0,0.0,0.0,0.0,0.0,0.0,0.0,0.0,0.0,0.0,0.0,0.0,0.0,0.0,0.0,0.0,3.1763,3.229,3.2943,3.2541,3.1989,3.1436,2.851,2.758,2.9654,2.7806,0.0,0.0,0.0,0.0,0.0,0.0,0.0,0.0,0.0,0.0,0.0,0.0,0.0,0.0,0.0,0.0,0.0,0.0,0.0,0.0,0.0,0.0,0.0,0.0,0.0,0.0,0.0,0.0,0.0,0.0,0.0,0.0,0.0,0.0,0.0,0.0,0.0,0.0,0.0,0.0,0.0,0.0,0.0,0.0,0.0,0.0,0.0,0.0,0.0,0.0,0.0,0.0,0.0,0.0,0.0,0.0,0.0,0.0,0.0,0.0,0.0,0.0,0.0,0.0,0.0,0.0,0.0,0.0,0.0,0.0,0.0,0.0,0.0,0.0,0.0,0.0,0.0,0.0,0.0,0.0,0.0,0.0,0.0,0.0,0.0,0.0,0.0,0.0,0.0,0.0,0.0,0.0,0.0,0.0,0.0,0.0,0.0,0.0,0.0,0.0,0.0,0.0,3.1562,3.2039,0.0,3.224,3.1612,3.1411,2.8712,2.7806,2.9679,0.0,0.0,0.0,0.0,0.0,0.0,0.0,0.0,0.0,0.0,0.0,0.0,0.0,0.0,0.0,0.0,0.0,0.0,0.0,0.0,0.0,0.0,0.0,0.0,0.0,0.0,0.0,0.0,0.0,0.0,0.0,0.0,0.0,0.0,0.0,0.0,0.0,0.0,0.0,0.0,0.0,0.0,0.0,0.0,0.0,0.0,0.0,0.0,0.0,0.0,0.0,0.0,0.0,0.0,0.0,0.0,0.0,0.0,0.0,0.0,0.0,0.0,0.0,0.0,0.0,0.0,0.0,0.0,0.0,0.0,0.0,0.0,0.0,0.0,0.0,0.0,0.0,0.0,0.0,0.0,0.0,0.0,0.0,0.0,0.0,0.0,0.0,0.0,0.0,0.0,0.0,0.0,0.0,0.0,0.0,0.0,0.0,0.0,0.0,0.0,0.0,0.0,3.1035,3.1286,3.1687,0.0,3.1838,3.126,3.0909,2.8536,2.7745,2.9428,0.0,0.0,0.0,0.0,0.0,0.0,0.0,0.0,0.0,0.0,0.0,0.0,0.0,0.0,0.0,0.0,0.0,0.0,0.0,0.0,0.0,0.0,0.0,0.0,0.0,0.0,0.0,0.0,0.0,0.0,0.0,0.0,0.0,0.0,0.0,0.0,0.0,0.0,0.0,0.0,0.0,0.0,0.0,0.0,0.0,0.0,0.0,0.0,0.0,0.0,0.0,0.0,0.0,0.0,0.0,0.0,0.0,0.0,0.0,0.0,0.0,0.0,0.0,0.0,0.0,0.0,0.0,0.0,0.0,0.0,0.0,0.0,0.0,0.0,0.0,0.0,0.0,0.0,0.0,0.0,0.0,0.0,0.0,0.0,0.0,0.0,0.0,0.0,0.0,0.0,0.0,0.0,0.0,0.0,0.0,0.0,0.0,0.0,0.0,0.0,0.0,0.0,3.0532,3.106,3.1427,3.1427,3.1427,3.0974,2.9918,2.7817,2.7203,0.0,0.0,0.0,0.0,0.0,0.0,0.0,0.0,0.0,0.0,0.0,0.0,0.0,0.0,0.0,0.0,0.0,0.0,0.0,0.0,0.0,0.0,0.0,0.0,0.0,0.0,0.0,0.0,0.0,0.0,0.0,0.0,0.0,0.0,0.0,0.0,0.0,0.0,0.0,0.0,0.0,0.0,0.0,0.0,0.0,0.0,0.0,0.0,0.0,0.0,0.0,0.0,0.0,0.0,0.0,0.0,0.0,0.0,0.0,0.0,0.0,0.0,0.0,0.0,0.0,0.0,0.0,0.0,0.0,0.0,0.0,0.0,0.0,0.0,0.0,0.0,0.0,0.0,0.0,0.0,0.0,0.0,0.0,0.0,0.0,0.0,0.0,0.0,0.0,0.0,0.0,0.0,0.0,0.0,0.0,0.0,0.0,0.0,0.0,0.0,0.0,0.0,0.0,3.0532,3.1316,3.1954,3.237,3.2655,3.2514,3.179,2.9571,2.8711,2.9746,0.0,0.0,0.0,0.0,0.0,0.0,0.0,0.0,0.0,0.0,0.0,0.0,0.0,0.0,0.0,0.0,0.0,0.0,0.0,0.0,0.0,0.0,0.0,0.0,0.0,0.0,0.0,0.0,0.0,0.0,0.0,0.0,0.0,0.0,0.0,0.0,0.0,0.0,0.0,0.0,0.0,0.0,0.0,0.0,0.0,0.0,0.0,0.0,0.0,0.0,0.0,0.0,0.0,0.0,0.0,0.0,0.0,0.0,0.0,0.0,0.0,0.0,0.0,0.0,0.0,0.0,0.0,0.0,0.0,0.0,0.0,0.0,0.0,0.0,0.0,0.0,0.0,0.0,0.0,0.0,0.0,0.0,0.0,0.0,0.0,0.0,0.0,0.0,0.0,0.0,0.0,0.0,0.0,0.0,0.0,0.0,0.0,0.0,0.0,0.0,0.0,0.0,3.0701,3.1341,3.194,3.2664,3.3145,3.3101,3.2309,3.0494,2.9602,3.0011,0.0,0.0,0.0,0.0,0.0,0.0,0.0,0.0,0.0,0.0,0.0,0.0,0.0,0.0,0.0,0.0,0.0,0.0,0.0,0.0,0.0,0.0,0.0,0.0,0.0,0.0,0.0,0.0,0.0,0.0,0.0,0.0,0.0,0.0,0.0,0.0,0.0,0.0,0.0,0.0,0.0,0.0,0.0,0.0,0.0,0.0,0.0,0.0,0.0,0.0,0.0,0.0,0.0,0.0,0.0,0.0,0.0,0.0,0.0,0.0,0.0,0.0,0.0,0.0,0.0,0.0,0.0,0.0,0.0,0.0,0.0,0.0,0.0,0.0,0.0,0.0,0.0,0.0,0.0,0.0,0.0,0.0,0.0,0.0,0.0,0.0,0.0,0.0,0.0,0.0,0.0,0.0,0.0,0.0,0.0,0.0,0.0,0.0,0.0,0.0,0.0,0.0,3.1003,3.1299,3.1711,3.2629,3.3234,3.3167,3.2137,3.0936,3.0174,3.0002,0.0,0.0,0.0,0.0,0.0,0.0,0.0,0.0,0.0,0.0,0.0,0.0,0.0,0.0,0.0,0.0,0.0,0.0,0.0,0.0,0.0,0.0,0.0,0.0,0.0,0.0,0.0,0.0,0.0,0.0,0.0,0.0,0.0,0.0,0.0,0.0,0.0,0.0,0.0,0.0,0.0,0.0,0.0,0.0,0.0,0.0,0.0,0.0,0.0,0.0,0.0,0.0,0.0,0.0,0.0,0.0,0.0,0.0,0.0,0.0,3.0042,0.0,0.0,0.0,0.0,0.0,0.0,0.0,0.0,0.0,0.0,0.0,0.0,0.0,0.0,0.0,0.0,0.0,0.0,0.0,0.0,0.0,0.0,0.0,0.0,0.0,0.0,0.0,0.0,0.0,0.0,0.0,0.0,0.0,0.0,0.0,0.0,0.0,0.0,0.0,0.0,0.0,3.1088,3.2066,3.2953,3.3614,3.4525,3.4754,3.3991,3.2724,3.1886,3.1622,3.0159,0.0,0.0,0.0,0.0,0.0,0.0,0.0,0.0,0.0,0.0,0.0,0.0,0.0,0.0,0.0,0.0,0.0,0.0,0.0,0.0,0.0,0.0,0.0,0.0,0.0,0.0,0.0,0.0,0.0,0.0,0.0,0.0,0.0,0.0,0.0,0.0,0.0,0.0,0.0,0.0,0.0,0.0,0.0,0.0,0.0,0.0,0.0,0.0,0.0,0.0,0.0,0.0,0.0,0.0,0.0,0.0,0.0,0.0,0.0,0.0,3.1468,0.0,0.0,0.0,0.0,0.0,0.0,0.0,0.0,0.0,0.0,0.0,0.0,0.0,0.0,0.0,0.0,0.0,0.0,0.0,0.0,0.0,0.0,0.0,0.0,0.0,0.0,0.0,0.0,0.0,0.0,0.0,0.0,0.0,0.0,0.0,0.0,0.0,0.0,0.0,0.0,3.2305,3.2636,3.3198,3.4589,3.5166,3.537,3.5011,3.3754,3.2794,3.2333,3.1334,0.0,0.0,0.0,0.0,0.0,0.0,0.0,0.0,0.0,0.0,0.0,0.0,0.0,0.0,0.0,0.0,0.0,0.0,0.0,0.0,0.0,0.0,0.0,0.0,0.0,0.0,0.0,0.0,0.0,0.0,0.0,0.0,0.0,0.0,0.0,0.0,0.0,0.0,0.0,0.0,0.0,0.0,0.0,0.0,0.0,0.0,0.0,0.0,0.0,0.0,0.0,0.0,0.0,3.5173,3.5248,3.5713,3.6109,3.5859,3.4977,3.41,3.2865,3.1666,3.333,0.0,0.0,0.0,0.0,0.0,0.0,0.0,0.0,0.0,0.0,0.0,0.0,0.0,0.0,0.0,0.0,0.0,0.0,0.0,0.0,0.0,0.0,0.0,0.0,3.8631,3.7612,3.5337,0.0,0.0,0.0,0.0,0.0,0.0,0.0,0.0,0.0,0.0,0.0,3.3665,3.3198,3.3355,3.5305,3.5519,3.5519,3.5519,3.4262,3.3275,3.2706,3.2347,3.1779,0.0,0.0,0.0,0.0,0.0,0.0,0.0,0.0,0.0,0.0,0.0,0.0,0.0,0.0,0.0,0.0,0.0,0.0,0.0,0.0,0.0,0.0,0.0,0.0,0.0,0.0,0.0,0.0,0.0,0.0,0.0,0.0,3.0191,2.9025,0.0,0.0,0.0,0.0,0.0,0.0,0.0,0.0,0.0,0.0,0.0,0.0,0.0,3.5328,3.5852,3.5504,3.5446,3.576,3.6054,3.6328,3.6561,3.6904,3.7505,3.8263,3.7606,0.0,3.5006,3.3465,0.0,0.0,0.0,0.0,0.0,0.0,0.0,0.0,0.0,0.0,0.0,0.0,0.0,0.0,0.0,0.0,0.0,0.0,0.0,0.0,0.0,0.0,3.3814,3.6926,3.7614,3.7425,0.0,3.6707,3.5926,3.4021,3.3065,0.0,0.0,0.0,0.0,0.0,0.0,0.0,3.3979,3.4097,3.4526,3.5429,3.5519,3.5519,3.5519,3.4262,3.3455,3.3365,3.1719,3.121,3.2198,3.1752,0.0,0.0,0.0,0.0,0.0,0.0,0.0,0.0,0.0,0.0,0.0,0.0,0.0,0.0,0.0,0.0,0.0,0.0,0.0,0.0,0.0,0.0,0.0,0.0,0.0,0.0,0.0,0.0,0.0,3.1057,3.1389,3.0433,3.1968,3.3095,0.0,0.0,0.0,0.0,0.0,0.0,0.0,0.0,0.0,3.3671,3.578,3.6734,3.6405,3.7061,3.7734,3.843,3.8617,3.8894,3.9295,3.9448,3.9798,4.0249,3.9998,3.9118,3.7892,3.6224,3.5553,3.5551,0.0,0.0,0.0,0.0,3.4316,3.5107,3.3764,3.3734,0.0,3.4535,0.0,0.0,0.0,0.0,0.0,0.0,0.0,0.0,0.0,0.0,3.6178,3.7614,3.8242,3.8422,3.8033,3.7836,3.7292,0.0,3.4961,3.432,3.3995,0.0,0.0,0.0,0.0,3.3256,3.4156,3.4399,3.4773,3.5429,3.5519,3.5519,3.5519,3.4262,3.3484,3.3484,3.1988,3.1152,3.139,3.1809,3.2288,0.0,0.0,0.0,0.0,0.0,0.0,0.0,0.0,0.0,0.0,0.0,0.0,0.0,0.0,0.0,0.0,0.0,0.0,0.0,0.0,0.0,0.0,0.0,0.0,0.0,0.0,0.0,0.0,3.125,3.1925,3.128,3.2626,3.367,0.0,0.0,0.0,0.0,0.0,0.0,3.4299,3.6533,3.7061,3.5403,3.7638,3.8467,3.7638,3.8868,3.9998,4.0927,4.0927,4.1229,4.1702,4.1702,4.1702,4.1756,4.1605,4.1003,3.9975,3.8394,3.6885,3.5561,3.5763,3.6033,3.6319,3.5978,3.6075,3.6307,3.5531,3.592,3.6673,3.598,3.6318,3.6806,3.5998,0.0,0.0,0.0,0.0,3.4891,3.5579,3.6836,3.8033,3.8542,3.905,3.9254,3.8751,3.8661,3.8362,0.0,3.6433,3.5654,3.5228,0.0,0.0,0.0,0.0,3.3621,3.4618,3.4773,3.4951,3.5459,3.5519,3.5519,3.5519,3.4262,3.3484,3.3484,3.2228,3.1271,3.0791,3.169,3.2079,3.175,0.0,0.0,0.0,0.0,0.0,0.0,0.0,0.0,0.0,0.0,0.0,0.0,0.0,0.0,0.0,0.0,0.0,0.0,0.0,0.0,0.0,0.0,0.0,0.0,0.0,0.0,0.0,0.0,0.0,3.0723,3.1862,0.0,0.0,0.0,0.0,3.6128,3.6707,3.6533,3.5483,3.8065,3.8793,3.7111,3.9722,4.11,4.1025,4.1125,4.1505,4.2112,4.2112,4.2414,4.2886,4.2886,4.2886,4.2861,4.2389,4.1781,4.1056,3.8537,3.7599,3.7505,3.6165,3.6389,3.7357,3.6076,3.5628,3.5493,3.4143,3.4177,3.4918,3.6102,3.7281,3.8063,3.6806,3.6806,0.0,0.0,3.54,3.5609,3.6267,3.6507,3.7045,3.8931,3.9409,3.9373,3.9379,3.9379,3.8811,0.0,3.5995,3.5514,3.5484,0.0,3.5359,3.5394,3.5872,3.6085,3.5519,3.5459,3.5459,3.5519,3.5519,3.5519,3.5519,3.4262,3.3484,3.3484,3.2228,3.1481,3.1451,3.1511,3.1839,3.2467,3.2527,0.0,0.0,0.0,0.0,0.0,0.0,0.0,0.0,0.0,0.0,0.0,0.0,0.0,0.0,0.0,0.0,0.0,0.0,0.0,0.0,0.0,0.0,0.0,0.0,0.0,0.0,0.0,0.0,3.5004,3.6949,0.0,3.8366,3.7789,3.7563,3.7989,3.8492,3.8617,3.8241,4.0827,4.1907,4.0953,4.2233,4.2936,4.2936,4.2585,4.2484,4.274,4.274,4.2785,4.2986,4.2986,4.2986,4.2961,4.2816,4.2183,4.1254,4.0335,3.9347,3.8401,3.7484,3.7464,3.7795,3.7315,3.7418,3.7577,3.6733,3.7563,3.913,3.9537,3.9083,3.8153,3.6866,3.6357,3.5998,3.51,3.5759,3.6896,3.7554,3.8661,3.9709,3.9978,4.0038,3.9948,3.9499,3.9373,3.896,3.7375,3.6896,3.6477,3.5639,3.513,3.4831,3.4831,3.5073,3.5132,3.4891,3.522,3.5519,3.5519,3.5519,3.534,3.4891,3.4023,3.3305,3.2886,3.1989,3.1511,3.1511,3.1511,3.16,3.1839,3.1869,3.2229,0.0,0.0,0.0,0.0,0.0,0.0,0.0,0.0,0.0,0.0,0.0,0.0,0.0,0.0,0.0,0.0,0.0,0.0,0.0,0.0,0.0,0.0,0.0,0.0,0.0,0.0,3.6942,3.8838,4.0626,4.1697,4.1868,4.0727,4.0176,4.0501,4.0877,4.1153,4.1354,4.3263,4.4116,4.3564,4.4091,4.4192,4.379,4.3438,4.3162,4.2986,4.2986,4.2986,4.2986,4.2986,4.2986,4.2961,4.2585,4.2007,4.125,4.0874,4.0149,3.912,3.8718,3.8567,3.8567,3.8567,3.8818,3.9196,3.92,4.0348,4.1815,4.1745,4.0853,3.9529,3.8487,3.7674,3.7075,3.6596,3.7404,3.8512,3.896,4.0068,4.0935,4.0516,4.0217,3.9948,3.9529,3.9373,3.902,3.7674,3.7404,3.7015,3.5729,3.513,3.4863,3.4863,3.4863,3.4863,3.4863,3.522,3.5519,3.5519,3.5519,3.531,3.4861,3.4203,3.3634,3.3215,3.2318,3.1839,3.1839,3.1839,3.1838,3.1835,3.1835,3.2167,3.2795,0.0,0.0,0.0,0.0,0.0,0.0,0.0,0.0,0.0,0.0,0.0,0.0,0.0,0.0,0.0,0.0,0.0,0.0,0.0,0.0,0.0,0.0,0.0,3.5244,3.6731,3.8793,4.1947,4.2336,4.2576,4.3175,4.2715,4.2816,4.384,4.389,4.4116,4.4618,4.5196,4.5246,4.4669,4.5171,4.4945,4.384,4.379,4.3514,4.2986,4.2986,4.2986,4.2986,4.2986,4.2986,4.2911,4.1856,4.1326,4.12,4.0199,3.9722,3.9697,3.9697,3.9697,3.9697,3.9672,3.9698,3.9829,4.1113,4.1908,4.2391,4.2406,4.241,4.2291,4.1632,4.0935,4.0427,4.0427,4.0457,4.0457,4.0457,4.0457,4.0457,4.0427,3.9918,3.9439,3.9373,3.9373,3.902,3.7674,3.7434,3.7015,3.5729,3.5519,3.5519,3.5519,3.5519,0.0,3.5519,3.5519,3.5519,3.5519,3.5519,3.5489,3.5459,3.4861,3.4503,3.4444,3.3215,3.2497,3.2467,3.2467,3.2496,3.2458,3.2488,3.2612,3.2796,0.0,0.0,0.0,0.0,0.0,0.0,0.0,0.0,0.0,0.0,0.0,0.0,0.0,0.0,0.0,0.0,0.0,0.0,0.0,0.0,0.0,0.0,3.5502,3.6959,3.9961,4.2891,4.5132,4.6658,4.7582,4.7745,4.6903,4.6301,4.6225,4.6225,4.5949,4.5296,4.5773,4.5824,4.5271,4.4995,4.4719,4.4392,4.3614,4.3137,4.2986,4.2986,4.2986,4.2986,4.2986,4.2986,4.2961,4.266,4.2082,4.125,4.0949,4.0425,3.9697,3.9697,3.9697,3.9647,3.9245,3.914,3.9428,4.1441,4.2024,4.1955,4.2792,4.2761,4.2381,4.2171,4.1662,4.1115,4.1115,4.1482,4.1871,4.1871,4.1871,4.1752,4.1235,4.0606,4.0008,3.9529,3.9373,3.902,3.7674,3.7793,3.7554,3.5818,3.5519,3.5519,3.5519,3.5519,0.0,3.5519,3.5519,3.5519,3.5519,3.5519,3.531,3.4833,3.4623,3.4114,3.3125,3.2706,3.2258,3.1809,3.178,3.1779,3.1776,3.2407,3.2915,0.0,0.0,0.0,0.0,0.0,0.0,0.0,0.0,0.0,0.0,0.0,0.0,0.0,0.0,0.0,0.0,0.0,0.0,0.0,0.0,0.0,0.0,3.6667,3.8516,4.1126,4.3072,4.5134,4.7586,4.8913,4.959,4.959,4.8786,4.8134,4.7832,4.738,4.6853,4.62,4.625,4.6175,4.5849,4.5271,4.4869,4.4618,4.3765,4.3212,4.2986,4.2986,4.2986,4.2986,4.2986,4.2986,4.2961,4.2484,4.1932,4.125,4.0852,4.0275,0.0,0.0,0.0,0.0,0.0,3.8902,3.9137,4.1051,4.1639,4.1794,4.2941,4.306,4.2761,4.2761,4.2132,4.1422,4.1422,4.1482,4.1572,4.1572,4.1572,4.1482,4.1055,4.0457,3.9888,3.9463,3.9373,3.911,3.8033,3.8123,0.0,3.6537,3.6088,3.5908,3.5908,3.5669,3.5519,3.5519,3.5519,3.5519,3.5519,3.5519,3.534,3.4951,3.4921,0.0,0.0,0.0,3.2617,3.1959,3.2197,0.0,0.0,0.0,3.3513,3.3484,0.0,0.0,0.0,3.3784,3.3728,0.0,0.0,0.0,0.0,0.0,0.0,0.0,0.0,0.0,0.0,0.0,0.0,0.0,0.0,0.0,0.0,3.8714,4.1615,4.6448,4.6223,4.6621,4.9536,4.9816,4.9741,4.9615,4.9163,4.8812,4.8686,4.7832,4.7255,4.7093,0.0,0.0,0.0,0.0,4.5246,4.4719,4.4116,4.3564,4.3062,4.3011,4.2986,4.2986,4.2986,4.2936,4.2836,4.1856,4.13,4.1125,4.0199,3.9722,3.9597,3.9672,3.9622,3.9446,3.9146,3.8946,3.9011,4.0347,0.0,0.0,4.2941,4.329,4.329,4.32,4.2402,4.1512,4.1414,4.0965,4.0516,4.0516,4.0457,4.0397,4.0397,3.9888,3.9373,3.9373,3.9373,3.92,3.8512,3.8452,3.8302,3.7644,3.6956,3.6477,3.6477,3.5938,3.5519,3.5519,3.5519,3.5519,3.5519,0.0,0.0,3.5519,3.5519,3.5459,3.54,3.4203,3.3215,3.2617,3.3186,3.3487,3.3484,3.4145,3.4205,3.3604,3.3604,3.3965,3.4599,3.3785,3.3426,0.0,0.0,0.0,0.0,0.0,0.0,0.0,0.0,0.0,0.0,0.0,0.0,0.0,0.0,0.0,4.0247,4.1425,4.3758,4.9595,4.98,4.9891,5.1406,5.1222,5.0594,4.969,4.949,4.9063,4.8134,4.8309,4.8058,4.7179,4.6968,4.6778,4.6326,4.5773,4.5422,4.5321,4.4317,4.374,4.3639,0.0,0.0,4.2986,4.2986,4.2791,4.2363,4.2137,4.148,4.0651,4.045,3.9848,3.9069,3.9521,3.9145,3.8416,3.9294,3.9013,3.8538,4.0673,4.1506,4.1794,4.2941,4.329,4.32,4.2701,4.241,0.0,4.1572,4.1294,4.1205,4.1205,4.0786,4.0397,4.0397,3.9888,3.9373,3.9373,3.9373,3.92,3.8512,3.8841,3.899,3.8332,3.7255,3.6477,3.6477,3.5938,3.5519,3.5519,3.5519,3.5519,3.5519,3.5519,3.5519,3.5519,3.5519,3.528,3.4743,3.3933,3.3426,3.3307,3.3426,3.3485,3.3484,3.4174,3.4444,3.4324,3.4324,3.4634,3.5247,3.3517,3.2976,0.0,0.0,0.0,0.0,0.0,0.0,0.0,0.0,0.0,0.0,0.0,3.4823,0.0,0.0,3.7947,4.2166,4.4334,4.6946,5.1088,5.1448,5.1373,5.1649,5.1197,5.0519,4.9665,4.959,4.9364,4.8786,4.8485,4.8109,4.7556,4.7004,4.6602,4.6326,4.5773,4.5497,4.5497,4.4367,4.379,4.379,4.3237,4.2986,4.2986,4.2986,4.274,4.2187,4.1856,4.1279,4.0501,4.0224,3.9772,3.927,3.927,3.8592,3.7686,3.829,3.7964,3.7586,3.9944,4.0746,4.1042,4.2739,4.329,4.323,4.294,4.2611,4.2321,4.1991,4.1422,4.0876,4.0876,4.0397,3.9918,3.9918,3.9649,3.9373,3.9373,3.9373,3.932,3.896,3.917,3.932,3.896,3.8347,3.7725,3.7049,3.6417,3.5878,3.5549,3.5519,3.5519,3.5519,3.5519,3.5519,3.5519,3.5519,3.522,3.4563,3.4196,3.387,3.3517,3.3815,3.3993,3.3993,3.4651,3.4981,3.4981,3.4981,3.5172,3.5458,3.4149,3.3668,0.0,0.0,0.0,0.0,0.0,0.0,0.0,0.0,3.5133,3.6144,3.6454,3.6441,3.6061,3.7654,3.9993,4.2939,4.6006,4.8882,5.1228,5.1797,5.1749,5.1172,5.0695,5.0167,4.949,4.9439,4.9389,4.9264,4.8435,4.7857,4.7757,4.7029,4.6527,4.6326,4.5974,4.5698,4.5497,4.4468,4.3915,4.379,4.3237,4.2986,4.2986,4.2861,4.2509,4.2011,4.1304,4.0752,4.0325,3.9873,3.9622,3.9496,3.9095,3.8241,3.7337,3.7236,3.6835,3.6709,3.9094,3.9913,4.0275,4.2548,4.329,4.326,4.314,4.2791,4.2381,4.2231,4.1324,4.0397,4.0397,3.9918,3.9373,3.9373,3.9529,3.9582,3.9582,3.9619,3.9679,3.9768,3.9589,3.9469,3.9553,3.9499,3.8968,3.7768,3.7045,3.645,3.5764,3.5701,3.5639,3.5519,3.5519,3.5519,3.5519,3.5519,3.528,3.4711,3.4698,3.4458,3.3903,3.4412,3.4713,3.4713,3.522,3.5519,3.5519,3.5519,3.5519,3.5489,3.4951,3.4635,3.0505,3.1311,3.2139,3.2893,3.3847,3.5278,0.0,0.0,3.8492,3.9116,3.8766,3.8395,3.8707,3.8335,3.9049,4.2393,4.4635,4.6744,4.9105,5.0586,5.1147,5.0569,5.0469,5.0017,4.8962,4.8862,4.8661,4.8134,4.7983,4.7707,4.7193,4.7531,4.728,4.6351,4.6728,4.6476,4.5497,4.4844,4.4292,4.379,4.3237,4.2986,4.2961,4.2514,4.1957,4.1326,4.0325,3.9848,3.9772,3.9722,3.9396,3.8994,3.8944,3.8467,3.7864,3.7362,3.6835,3.6709,3.9094,3.9913,4.0275,4.2548,4.329,4.32,4.2641,4.244,4.2291,4.1692,4.0965,4.0397,4.0397,3.9918,3.9373,3.9373,3.9858,4.0277,4.0277,4.0441,4.0651,4.1123,4.0217,3.9619,4.0187,3.9768,3.9146,3.8407,3.7708,3.7087,3.6476,3.6403,3.6148,3.5579,3.5519,3.5519,3.5519,3.5519,3.5459,3.54,3.5397,3.5367,3.528,3.534,3.54,3.54,3.5459,3.5519,3.5519,3.5519,3.5519,3.5519,3.5429,3.5075,3.2835,3.342,3.3671,3.5102,3.6558,3.809,3.9898,4.0551,4.074,4.0526,4.0661,4.0683,4.0162,4.0238,4.1609,0.0,4.7098,4.8497,5.0518,5.0829,5.0444,4.9565,4.8887,4.8586,4.8761,4.846,4.8159,4.7933,4.7631,4.7481,4.7581,4.7205,4.6928,4.6803,4.6702,4.6426,4.5974,4.507,4.4518,4.4267,4.3388,4.2811,4.2539,4.2313,4.1681,4.0774,4.0023,3.9697,3.9697,3.9697,3.9546,3.932,3.9045,3.8517,3.7939,3.7387,3.7036,3.7166,3.9185,3.9913,4.0275,4.2548,4.329,4.323,4.3,4.291,4.288,4.2581,4.2043,4.1572,4.1572,4.0756,4.0098,4.0457,4.0487,4.0516,4.0876,4.1063,4.119,4.1362,4.0733,4.0314,4.0913,4.0098,3.9415,3.957,3.8652,3.7738,3.7105,3.673,3.6222,3.5549,3.5519,3.5519,3.5519,3.5519,3.5519,3.5519,3.5519,3.5519,3.5519,3.5519,3.5519,3.5519,3.5519,3.5519,3.5519,3.5519,3.5519,3.5519,3.5519,3.534,3.3239,3.4279,3.5203,3.7161,3.9245,4.1153,4.2434,4.3137,4.3284,4.2391,4.2319,4.2237,4.1516,4.1728,4.3234,4.7028,4.8542,4.971,5.0875,5.0539,4.9715,4.846,4.7205,4.6753,4.7556,4.7531,4.7531,4.7682,4.7355,4.7305,4.7682,4.7079,4.6878,4.7068,4.6753,4.6401,4.6075,4.5121,4.4543,4.4392,4.3438,4.274,4.2213,4.1886,4.1178,4.0275,3.9873,3.9697,3.9697,3.9697,3.9697,3.9647,3.9094,3.8617,3.8165,3.7437,3.7086,3.7219,3.8854,3.9404,3.9798,4.207,4.282,4.29,4.321,4.329,4.329,4.329,4.288,4.241,4.241,4.1542,4.0786,4.1265,4.1183,4.1093,4.1572,4.1803,4.1923,4.1923,4.143,4.1145,4.1362,4.0576,4.0021,4.0112,3.9444,3.8617,3.7814,3.7007,3.6232,3.5582,3.5519,3.5519,3.5519,3.5519,3.5519,3.5519,3.5519,3.5519,3.5519,3.5519,3.5519,3.5519,3.5519,3.5519,3.5519,3.5519,3.5519,3.5519,3.5519,3.5519,2.9654,3.229,3.5378,3.814,4.1279,4.4116,4.5773,4.6577,4.6637,4.5494,4.3867,4.2705,4.3152,4.2198,4.2209,4.5061,4.7538,4.8916,4.8463,4.9124,4.9012,4.738,4.5723,4.4719,0.0,4.5723,4.6577,4.7129,4.7093,4.7093,4.7093,4.7606,4.7631,4.7093,4.7043,4.6602,4.5522,4.492,4.4342,4.3815,4.3237,4.274,4.2162,4.1053,4.0249,3.9722,3.9697,3.9697,3.9697,3.9697,3.9697,3.9647,3.9094,3.8919,3.8768,3.7588,3.6883,3.6619,3.7769,3.8153,3.8559,4.0887,4.1629,4.1864,4.2941,4.329,4.329,4.329,4.288,4.241,4.241,4.1901,4.1354,4.1422,4.188,4.2338,4.2351,4.2821,4.323,4.323,4.2548,4.1851,4.1452,4.1392,4.0876,3.9619,3.9956,3.9864,3.8534,3.7298,3.6232,3.5582,3.5519,3.5519,3.5519,3.5519,3.5519,3.5519,3.5519,3.5519,3.5519,3.5519,3.5519,3.5519,3.5519,3.5519,3.5519,3.5519,3.5519,3.5519,3.5519,3.5519,0.0,0.0,3.7421,4.1609,4.3152,4.3929,4.5396,4.4896,4.3563,4.1415,4.042,3.9788,3.9299,3.8985,4.024,4.4753,4.6371,4.7514,4.8927,4.9401,4.856,4.5799,4.5296,0.0,0.0,0.0,0.0,4.5974,4.605,4.6351,4.7043,4.6954,4.6928,4.7068,4.6778,4.6225,4.5497,4.492,4.4342,4.379,4.2509,4.1806,4.158,4.0475,3.9873,3.9697,3.9697,3.9697,3.9697,3.9697,3.9697,3.9647,3.9094,3.8642,3.8216,3.7462,3.6835,3.6546,3.7723,3.8107,3.8379,3.9972,4.049,4.0532,4.0916,4.1574,4.2152,4.2152,4.2562,4.3,4.3,4.2521,4.2171,4.2581,4.253,4.2539,4.291,4.314,4.329,4.329,4.274,4.2248,4.2081,4.1722,4.1085,4.0217,3.9901,3.9409,3.8534,3.7661,3.687,3.6228,3.5767,3.5519,3.5519,3.5519,3.5519,3.5519,3.5519,3.5519,3.5519,3.5519,3.5519,3.5519,3.5519,3.5519,3.5519,3.5519,3.5519,3.5519,3.5519,3.5519,0.0,3.6307,3.8152,4.2449,4.3364,4.3403,4.4249,4.3127,4.1172,3.8594,3.7483,3.6764,3.6258,3.6005,3.7548,4.2612,4.361,4.4854,4.7946,4.7908,4.6954,4.5397,4.5196,4.4669,0.0,0.0,0.0,4.5397,4.6024,4.6577,4.7043,4.6979,4.6954,4.7129,4.6602,4.605,4.5497,4.492,4.4242,4.3489,4.2032,4.1275,4.125,4.0199,3.9697,3.9697,3.9697,3.9697,3.9672,3.9471,3.9396,3.932,3.8567,3.804,3.7638,3.7086,3.6707,3.6499,3.7243,3.7494,3.7678,3.8872,3.9271,3.9316,3.9754,4.0703,4.1504,4.1127,4.2111,4.321,4.282,4.2723,4.2821,4.32,4.3,4.2821,4.32,4.329,4.329,4.329,4.3,4.2641,4.244,4.1662,4.0965,4.0786,3.9978,3.9182,3.8491,3.8017,3.7537,3.6882,3.6441,3.6097,3.5859,3.5884,3.5759,3.5519,3.5519,3.5519,3.5519,3.5519,3.5519,3.5519,3.5519,3.5519,3.5519,3.5519,3.5519,3.5519,3.5519,3.5519,3.5445,3.6918,3.7703,4.0904,4.2081,4.2548,4.2635,4.1489,3.9659,3.7098,3.5179,3.3915,0.0,0.0,3.4459,3.884,3.9798,4.148,4.5799,4.507,4.4644,0.0,0.0,0.0,0.0,0.0,0.0,4.5497,0.0,4.7606,4.7143,4.7606,4.7631,4.7093,4.6577,4.5999,4.5447,4.4844,4.3991,4.2911,4.1856,4.1275,4.12,4.0199,3.9697,3.9697,3.9697,3.9672,3.9622,3.9094,3.8894,3.8718,3.7613,3.7186,3.7111,3.6606,3.6405,3.6405,3.6405,3.6405,3.6593,3.7678,3.8017,3.8243,3.936,4.0532,4.1211,4.0102,4.1407,4.29,4.1864,4.2386,4.321,4.329,4.329,4.329,4.329,4.329,4.329,4.329,4.326,4.309,4.256,4.1324,4.0666,4.1324,4.0307,3.92,3.8557,3.8396,3.8148,3.7501,3.7419,3.7195,3.66,3.6553,3.6237,3.5579,3.5549,3.5549,3.5519,3.5519,3.5519,3.5519,3.5519,3.5519,3.5519,3.5519,3.5519,3.5519,3.5519,3.5519,3.5821,3.8033,3.9774,4.186,4.1548,4.077,4.0904,3.8712,3.6082,3.3939,3.2409,3.0835,0.0,0.0,0.0,3.7389,4.1304,0.0,4.7179,4.7857,0.0,4.6451,0.0,4.6527,4.5196,4.5799,0.0,0.0,4.6326,4.6577,4.7657,4.7481,4.728,4.7068,4.62,4.5422,4.4844,4.389,4.3062,4.2414,4.1656,4.1075,4.0701,3.9998,3.9697,3.9697,3.9697,3.9471,3.9069,3.8969,3.8617,3.8165,3.7462,3.7186,3.7111,3.6606,3.6405,3.6405,3.6405,3.6405,3.6452,3.6756,3.6849,3.6896,3.7196,3.8088,3.8934,3.8649,3.9623,4.0873,4.1462,4.1827,4.2274,4.312,4.329,4.329,4.329,4.329,4.329,4.329,4.294,4.2701,4.303,4.2013,4.1354,4.2051,4.0995,3.9888,3.923,3.8734,3.8299,3.8162,3.7714,3.7357,3.7178,3.7191,3.6896,3.6267,3.6237,3.6028,3.5519,3.5519,3.5519,3.5519,3.5519,3.5519,3.5519,3.5519,3.5519,3.5519,3.5519,3.5519,3.7208,3.9186,4.0414,4.0531,4.0019,3.9118,3.7372,3.496,3.2523,3.0435,2.9038,2.772,2.6356,2.8091,0.0,0.0,0.0,0.0,4.5563,4.6853,4.7405,0.0,4.7908,0.0,4.6677,4.7104,4.7581,0.0,4.728,4.7205,4.7883,4.7631,4.7355,4.7093,4.6075,4.5095,4.4267,4.3413,4.2766,4.2213,4.1605,4.1,4.0501,3.9948,3.9697,3.9697,0.0,3.9521,3.9195,3.8693,3.8291,3.7914,3.7136,3.6883,3.6784,3.6531,3.6405,3.6405,3.6405,3.6405,3.6405,3.6405,3.6405,3.6405,3.6405,3.7196,3.7971,3.7494,3.8934,4.0661,4.0831,4.159,4.2532,4.316,4.329,4.329,4.329,4.329,4.329,4.329,4.303,4.291,4.323,4.2491,4.1961,4.2351,4.1235,4.0254,3.9884,3.9247,3.8829,3.8829,3.8508,3.8156,3.7863,3.7849,3.7554,3.6926,3.6626,3.6327,3.5938,3.5669,3.5639,3.5938,3.5938,3.6058,3.6327,3.6327,3.6207,3.5938,3.5938,3.5789,3.8677,4.0209,4.0402,3.843,3.8247,3.7612,3.3806,3.1464,2.9495,2.7435,2.6029,2.5128,2.5026,2.4884,2.6319,3.0973,0.0,3.6521,4.3194,4.4669,4.5974,4.8485,4.8837,4.8686,4.8184,4.8209,4.841,4.8862,4.8962,4.8711,4.8058,4.7958,4.7556,4.6767,4.5874,4.4819,4.3689,4.3137,4.2585,4.2087,4.1505,4.0899,4.04,3.9923,3.9697,3.9697,3.9697,3.9647,3.9521,3.8517,3.804,3.7814,3.6983,3.6531,3.6405,3.648,3.6505,3.6505,3.643,3.6505,3.6606,3.6455,3.6405,3.6405,3.6405,3.7103,3.7678,3.6662,3.8577,4.0746,4.0099,4.1365,4.2921,4.325,4.329,4.329,4.329,4.329,4.329,4.329,4.329,4.329,4.329,4.288,4.253,4.253,4.1444,4.0651,4.0697,3.9944,3.9373,3.9373,3.9373,3.914,3.8552,3.8517,3.8242,3.7584,3.7045,3.6686,3.6596,3.6058,3.6028,3.6596,3.6596,3.6866,3.7404,3.7404,3.7135,3.6596,3.6537,3.6237,3.8339,4.0258,4.112,3.8588,3.778,3.6958,3.4202,3.1516,0.0,0.0,2.6314,2.5094,2.3733,2.5301,2.8238,3.2724,3.5993,3.9788,4.5112,4.6728,4.7682,0.0,4.9163,0.0,0.0,0.0,0.0,0.0,0.0,4.969,4.8686,4.8159,4.7029,4.5121,4.4869,4.4242,4.3137,4.264,4.2007,4.148,4.0927,4.0375,3.9848,3.9747,3.9697,3.9697,3.9697,0.0,3.8994,3.8844,3.8165,3.7362,3.7613,3.7161,3.6455,3.6933,3.7036,3.6985,3.6556,3.696,3.7563,3.6707,3.6405,3.6405,3.6405,3.6546,3.6662,3.6452,3.6849,3.771,3.9429,4.0189,4.0977,4.2852,4.329,4.329,4.329,4.329,4.329,4.329,4.329,4.329,4.329,4.32,4.311,4.311,4.2521,4.2051,4.203,4.0494,3.9373,3.9373,3.9373,3.9379,3.923,3.923,3.896,3.8272,3.8123,3.7823,3.7285,3.7135,3.7135,3.7255,3.7255,3.7315,3.7404,3.7404,3.7345,3.7225,3.6716,3.6686,3.9597,4.1515,4.2355,3.9286,3.8498,3.7531,3.3369,0.0,0.0,2.5483,2.4682,2.4048,2.3246,2.4574,0.0,3.0688,3.3785,3.7539,4.295,4.5146,0.0,4.856,4.9515,0.0,0.0,0.0,0.0,0.0,0.0,4.9339,4.8786,4.7958,4.6627,4.4694,4.4618,4.4091,4.2986,4.2489,4.1882,4.1275,4.0777,4.0224,3.9697,3.9697,3.9697,3.9697,3.9697,0.0,3.927,3.9045,3.8366,3.7638,3.7889,3.7513,3.6908,3.7412,3.7613,3.7563,3.7312,3.7364,3.749,3.6964,3.6787,3.6782,3.6505,3.6405,3.6405,3.6405,3.7278,3.8489,3.9588,4.1028,4.2502,4.3537,4.4107,4.4347,4.4347,4.4077,4.3798,4.3798,4.3529,4.329,4.329,4.329,4.329,4.329,4.2791,4.241,4.241,4.1235,4.0307,3.9978,3.9918,3.9798,3.9439,3.9373,3.9254,3.896,3.8571,3.8242,3.7943,3.7584,3.7554,3.7913,3.7913,3.8093,3.8452,3.8452,3.8272,3.7913,3.7614,3.7464,4.0599,4.251,4.3168,3.9981,3.9358,3.8124,3.2576,2.8786,0.0,2.3575,2.3095,2.3095,2.3095,2.3668,2.5133,0.0,3.0497,3.3973,3.9967,4.261,4.5045,0.0,0.0,0.0,0.0,0.0,0.0,0.0,0.0,0.0,4.8435,4.738,4.6125,4.4669,4.4518,4.3915,4.2811,4.2258,4.1706,4.11,4.0601,4.0124,3.9697,3.9697,3.9697,3.9697,3.9697,0.0,0.0,3.9094,3.8517,3.8015,3.814,3.7789,3.7262,3.7939,3.8191,3.814,3.804,3.7815,3.754,3.7266,3.7138,3.6935,3.6531,3.6405,3.643,3.672,3.8077,3.9625,4.0106,4.2122,4.3997,4.4415,4.4915,4.5304,4.5304,4.4885,4.4496,4.4347,4.3858,4.3499,4.3499,4.3379,4.3349,4.3469,4.3,4.262,4.262,4.2102,4.1534,4.0876,4.0696,4.0397,3.9888,3.9709,3.9619,3.9619,3.899,3.8601,3.8601,3.8123,3.8093,3.8601,3.8601,3.8871,3.9373,3.9373,3.914,3.8601,3.8452,3.8182,3.9571,4.1874,4.2768,4.023,3.9477,3.7922,3.2534,0.0,2.6132,2.3616,2.3095,2.3095,2.3095,2.318,2.4322,2.7634,2.8787,3.1547,3.8191,4.0576,4.2981,4.6828,0.0,0.0,0.0,0.0,0.0,0.0,0.0,0.0,4.7305,4.6225,4.5321,4.4644,4.4141,4.3338,4.2288,4.1681,4.1075,4.0576,4.0023,3.9747,3.9697,3.9697,3.9697,3.9697,3.9697,0.0,0.0,3.9094,3.8517,3.8065,3.8592,3.814,3.7312,3.8391,3.8844,3.8743,3.8215,3.8316,3.8591,3.7561,3.686,3.648,3.643,3.6405,3.6647,3.7646,3.8077,3.8747,4.0888,4.2096,4.3177,4.4828,4.5244,4.5304,4.5304,4.5244,4.5035,4.4436,4.4257,4.4227,4.4227,4.3678,4.3499,4.4137,4.3618,4.32,4.32,4.314,4.291,4.2291,4.1692,4.1265,4.1205,4.0666,4.0307,4.0307,3.9679,3.932,3.932,3.926,3.926,3.932,3.932,3.9349,3.9373,3.9373,3.9379,3.932,3.8691,3.8691,3.9736,4.1012,4.1139,4.0191,3.8379,3.6031,3.3061,0.0,2.5407,2.3499,2.3095,2.3095,2.3095,2.3095,2.3647,2.536,2.6088,0.0,3.2742,3.4826,3.7914,4.3463,0.0,0.0,0.0,0.0,0.0,0.0,0.0,0.0,4.6175,4.5723,4.5221,4.4644,4.4091,4.3438,4.2715,4.1781,4.1175,4.0949,4.0124,3.9697,3.9697,3.9697,3.9697,3.9697,3.9697,0.0,0.0,3.9094,3.8793,3.8542,3.8844,3.8642,3.8291,3.9069,3.9397,3.9346,3.9094,3.8743,3.8317,3.8133,3.7301,3.6405,3.6405,3.6896,3.752,3.7965,3.9131,4.0529,4.1853,4.3528,4.5086,4.6267,4.6501,4.6501,4.6501,4.6202,4.5843,4.5574,4.5185,4.4766,4.4377,4.4107,4.3868,4.3708,4.3469,4.329,4.329,4.329,4.32,4.297,4.2372,4.1841,4.1414,4.1145,4.0995,4.0995,4.0367,4.0187,4.0576,3.9828,3.9619,4.0008,3.9619,3.9373,3.9373,3.9373,3.9373,3.9373,3.914,3.914,3.8574,3.9863,4.019,4.014,3.7805,3.509,0.0,0.0,2.5383,2.3742,2.3371,2.3321,2.3145,2.3095,2.3246,2.3647,2.4205,2.5737,2.9076,3.0809,3.3897,0.0,0.0,0.0,0.0,0.0,0.0,0.0,0.0,0.0,4.5773,4.5422,4.497,4.4392,4.384,4.3288,4.2791,4.1806,4.12,4.1025,4.0149,3.9697,3.9697,3.9697,3.9697,3.9697,3.9697,0.0,0.0,3.9094,3.8919,3.8919,3.8919,3.8843,3.8894,3.9471,3.9697,3.9697,3.9697,3.9195,3.8492,3.8436,3.7705,3.6784,3.6505,3.7191,3.8121,3.8249,4.0308,4.2702,4.3481,4.4984,4.6459,4.716,4.7309,4.7309,4.7309,4.695,4.6561,4.6309,4.5933,4.5454,4.4975,4.4736,4.4436,4.3947,4.3708,4.3499,4.3319,4.329,4.329,4.329,4.291,4.2462,4.1983,4.1773,4.1722,4.1722,4.1055,4.0905,4.1392,4.0487,4.0217,4.0696,4.0247,3.9918,3.9709,3.9709,3.9582,3.9373,3.9619,3.9798,3.546,3.8256,4.0384,4.021,3.8295,3.5805,0.0,3.008,2.6666,2.4456,2.3979,2.3828,2.3221,2.3095,2.3095,2.312,2.3627,0.0,2.8436,2.9866,0.0,0.0,0.0,0.0,0.0,0.0,0.0,0.0,0.0,0.0,4.6326,4.5246,4.4367,4.384,4.3263,4.2766,4.2213,4.1605,4.1025,4.0526,3.9948,3.9697,3.9697,3.9697,3.9697,0.0,0.0,0.0,0.0,3.9094,3.8919,3.8919,3.8919,3.8768,3.8667,3.942,3.9697,3.9697,3.9697,3.9677,3.9498,3.839,3.799,3.7789,3.6732,3.7206,3.8148,3.8568,4.158,4.4904,4.598,4.6279,4.6459,4.716,4.7309,4.7309,4.7309,4.7309,4.71,4.6441,4.6279,4.6279,4.6249,4.5753,4.5274,4.5274,4.4706,4.4077,4.3379,4.329,4.329,4.329,4.329,4.329,4.326,4.2731,4.2381,4.2381,4.1782,4.1422,4.1422,4.1422,4.1354,4.1422,4.1354,4.1025,4.0397,4.0397,4.0068,3.9439,4.0098,4.0756,3.153,3.2632,3.3308,3.4458,3.27,3.0572,3.0278,2.7821,2.5184,2.3672,2.3371,2.3321,2.3145,2.3095,2.3246,2.3653,2.3879,0.0,0.0,0.0,0.0,0.0,0.0,0.0,0.0,0.0,0.0,0.0,0.0,0.0,4.4644,4.4267,4.3991,4.3815,4.3263,4.271,4.2213,4.1605,4.1,4.0501,3.9948,3.9697,3.9697,3.9697,3.9697,0.0,0.0,0.0,0.0,3.9094,3.9094,3.9396,3.9019,3.9094,3.937,3.9622,3.9697,3.9647,3.927,3.9146,3.9146,3.9141,3.8613,3.8014,3.7934,3.8804,4.0228,4.2029,4.4024,4.571,4.6172,4.6651,4.704,4.7249,4.7309,4.7309,4.7309,4.7309,4.7249,4.704,4.698,4.686,4.6411,4.6142,4.5843,4.5364,4.5125,4.4736,4.4077,4.3977,4.3798,4.3349,4.329,4.329,4.329,4.315,4.303,4.303,4.2402,4.2252,4.2701,4.1863,4.1632,4.2081,4.1662,4.1294,4.1055,4.1055,4.0965,4.0756,4.0965,4.1175,2.8545,2.9779,3.0537,3.1627,2.9923,0.0,0.0,2.6606,2.4525,2.3622,2.3421,2.3371,2.3145,2.3095,2.3221,2.3602,2.3678,0.0,0.0,0.0,0.0,0.0,0.0,0.0,0.0,0.0,0.0,0.0,0.0,0.0,4.4166,4.3915,4.3614,4.3187,4.2836,4.2564,4.2213,4.1404,4.0852,4.0501,3.9948,3.9697,3.9697,3.9697,3.9697,0.0,0.0,0.0,0.0,3.932,3.9371,3.9672,3.932,3.9396,3.9672,3.937,3.9193,3.8966,3.8542,3.8567,3.8844,3.8991,3.8907,3.8897,3.979,4.0208,4.103,4.4179,4.577,4.6527,4.6634,4.701,4.7309,4.7309,4.7309,4.7309,4.7309,4.7309,4.7309,4.7309,4.7309,4.7189,4.677,4.6681,4.6471,4.5783,4.5693,4.5454,4.4766,4.4676,4.4456,4.3867,4.3498,4.3449,4.3818,4.3509,4.329,4.329,4.294,4.291,4.326,4.2551,4.2312,4.2731,4.2312,4.1983,4.1782,4.1542,4.1542,4.1782,4.1782,4.1893,0.0,2.885,3.0834,3.0909,2.9352,2.7821,2.7821,2.6239,0.0,2.4054,2.3929,2.3778,2.3271,2.312,2.312,2.3221,2.3221,0.0,0.0,2.8674,0.0,0.0,0.0,0.0,0.0,0.0,0.0,0.0,0.0,0.0,4.4543,4.3991,4.3212,4.2238,4.2137,4.2087,4.2087,4.1028,4.0501,4.045,3.9948,3.9697,3.9697,3.9697,3.9697,0.0,0.0,0.0,0.0,3.9647,3.9622,3.9648,3.9572,3.9572,3.9521,3.8817,3.829,3.794,3.7618,3.7967,3.8517,3.8116,3.8868,4.0213,4.198,4.1425,4.1011,4.5138,4.6761,4.7322,4.7292,4.7309,4.7309,4.7309,4.7309,4.7309,4.7309,4.7309,4.7309,4.7309,4.7309,4.7309,4.7309,4.7309,4.71,4.6429,4.6339,4.6142,4.5454,4.5364,4.5233,4.4798,4.3961,4.3805,4.4678,4.3878,4.329,4.329,4.329,4.329,4.329,4.329,4.329,4.329,4.329,4.303,4.247,4.1841,4.1871,4.247,4.247,4.2761,2.3898,0.0,2.5252,2.6104,2.5661,2.4958,0.0,2.4556,2.4029,2.3421,2.3321,2.3396,2.3728,2.3396,2.3396,2.4249,0.0,0.0,2.757,0.0,0.0,0.0,0.0,0.0,0.0,0.0,0.0,0.0,0.0,4.3966,4.3388,4.2891,4.2489,4.2213,4.1329,4.0902,4.0902,4.0651,4.03,3.9898,3.9747,3.9697,3.9697,3.9697,3.9697,0.0,0.0,0.0,3.9069,3.9069,3.8969,3.8843,3.8492,3.8592,3.8817,3.8341,3.8066,3.7941,3.7415,3.7639,3.8116,3.804,3.8846,4.0171,4.2101,4.2733,4.3241,4.5454,4.6659,4.7322,4.7292,4.7309,4.7309,4.7309,4.7309,4.7309,4.7309,4.7309,4.7309,4.7309,4.7309,4.7309,4.7309,4.7309,4.7249,4.71,4.707,4.683,4.6172,4.6082,4.5801,4.5233,4.4952,4.4934,4.5136,4.4018,4.329,4.329,4.329,4.329,4.329,4.329,4.329,4.329,4.329,4.323,4.312,4.294,4.2901,4.312,4.312,4.314,2.3543,2.3296,2.3246,2.3873,2.3797,2.3602,2.3602,2.3602,2.3471,2.317,2.3095,2.3195,2.3552,2.3321,2.3396,0.0,2.5084,0.0,0.0,0.0,0.0,0.0,0.0,0.0,0.0,0.0,0.0,0.0,0.0,4.3564,4.3011,4.2514,4.1986,4.143,4.0827,4.0526,4.0526,4.0275,3.9998,3.9697,3.9697,3.9697,3.9697,3.9697,3.9546,0.0,0.0,0.0,3.8492,3.8818,3.8667,3.8289,3.8089,3.8264,3.8488,3.7887,3.7712,3.7711,3.7059,3.7161,3.7663,3.7914,3.9436,4.1341,4.237,4.3918,4.5534,4.6377,4.6933,4.7302,4.7322,4.7309,4.7309,4.7309,4.7309,4.7309,4.7309,4.7309,4.7309,4.7309,4.7309,4.7309,4.7309,4.7309,4.7309,4.7309,4.7309,4.7189,4.683,4.677,4.6621,4.6262,4.5933,4.5753,4.5753,4.4825,4.4107,4.3768,4.3469,4.329,4.329,4.329,4.329,4.329,4.329,4.329,4.329,4.329,4.329,4.329,4.329,4.329,2.3943,2.3753,2.3547,2.3296,2.317,2.3125,2.3245,2.3185,2.3125,2.3245,2.3185,2.312,2.3221,2.3341,0.0,0.0,0.0,0.0,3.3514,0.0,0.0,0.0,0.0,0.0,0.0,0.0,0.0,0.0,0.0,4.3212,4.276,4.2263,4.148,4.0551,4.0425,4.04,4.04,3.9923,3.9697,3.9697,3.9697,3.9697,3.9697,3.9697,3.9396,3.8944,0.0,0.0,3.7914,3.8417,3.8266,3.7764,3.7764,3.7937,3.8184,3.7383,3.7207,3.723,3.6606,3.6707,3.7136,3.7613,3.9743,4.2205,4.2473,4.4473,4.6767,4.7163,4.7309,4.7309,4.7309,4.7309,4.7309,4.7309,4.7309,4.7309,4.7309,4.7309,4.7309,4.7309,4.7309,4.7309,4.7309,4.7309,4.7309,4.7309,4.7309,4.7309,4.7309,4.7309,4.7309,4.7309,4.68,4.6429,4.6429,4.5843,4.5214,4.4646,4.3977,4.3559,4.3439,4.3349,4.329,4.329,4.329,4.329,4.329,4.329,4.329,4.329,4.329,4.329,2.3406,2.4582,2.5644,2.423,2.3471,2.3275,2.3959,2.3603,2.3305,2.3985,2.3573,2.3246,0.0,2.4416,2.5274,0.0,0.0,3.4538,0.0,0.0,0.0,0.0,0.0,0.0,0.0,0.0,0.0,0.0,0.0,4.1626,4.1551,4.1078,4.0701,4.0526,4.0074,3.9823,3.9823,3.9747,3.9697,3.9697,3.9697,3.9697,3.9697,3.9697,3.9396,3.8868,0.0,3.8366,3.7312,3.7412,3.7159,3.6656,3.6656,3.6681,3.6729,3.6581,3.6531,3.6531,3.6455,3.6455,3.6556,3.6631,3.7934,3.9787,4.1471,4.2902,4.4484,4.6694,4.7309,4.7309,4.7309,4.7309,4.7309,4.7309,4.7309,4.7309,4.7309,4.7309,4.7309,4.7309,4.7309,4.7309,4.7309,4.7309,4.7309,4.7309,4.7309,4.7309,4.7309,4.7309,4.7309,4.7309,4.7219,4.716,4.716,4.6561,4.607,4.6022,4.5364,4.4736,4.4197,4.3589,4.329,4.329,4.329,4.329,4.329,4.329,4.329,4.329,4.329,4.329,2.4425,2.4831,2.5349,2.5421,2.5833,2.6181,2.5946,2.5851,2.576,2.5615,2.5309,0.0,0.0,0.0,2.7975,3.1126,0.0,3.5907,0.0,0.0,0.0,0.0,0.0,0.0,0.0,0.0,0.0,0.0,0.0,0.0,4.0849,4.0651,4.0375,4.0074,3.9823,3.9697,3.9697,3.9697,3.9697,3.9697,3.9697,3.9546,3.9245,3.9245,3.8768,3.7965,0.0,3.813,3.7655,3.7303,3.7219,3.7289,3.6615,3.6405,3.6405,3.6405,3.6405,3.6405,3.6405,3.6405,3.6405,3.6405,3.779,3.9795,4.1324,4.3548,4.5756,4.6943,4.7309,4.7309,4.7309,4.7309,4.7309,4.7309,4.7309,4.7309,4.7309,4.7309,4.7309,4.7309,4.7309,4.7309,4.7309,4.7309,4.7309,4.7309,4.7309,4.7309,4.7309,4.7309,4.7309,4.7309,4.7309,4.7309,4.7309,4.704,4.6531,4.5813,4.5125,4.4616,4.4317,4.3648,4.329,4.329,4.329,4.329,4.329,4.329,4.3469,4.3828,4.3828,4.4007,2.5245,2.5228,2.5515,2.6301,2.7289,2.8094,2.8119,2.816,2.816,2.8056,2.7821,0.0,0.0,2.8448,0.0,3.5212,3.6447,0.0,0.0,0.0,0.0,0.0,0.0,0.0,0.0,0.0,0.0,0.0,0.0,0.0,4.035,4.0325,4.0074,3.9521,3.9496,3.9446,3.9295,3.9295,3.9446,3.9697,3.9572,3.927,3.8919,3.8718,3.8313,3.7619,3.8026,3.8192,3.8036,3.7621,3.7544,3.7632,3.6756,3.6405,3.6405,3.6405,3.6405,3.6405,3.6405,3.6405,3.6477,3.7079,3.8489,4.0259,4.1779,4.419,4.6519,4.7119,4.7309,4.7309,4.7309,4.7309,4.7309,4.7309,4.7309,4.7309,4.7309,4.7309,4.7309,4.7309,4.7309,4.7309,4.7309,4.7309,4.7309,4.7309,4.7309,4.7309,4.7309,4.7309,4.7309,4.7309,4.7309,4.7309,4.7309,4.7309,4.686,4.5813,4.5005,4.4616,4.4766,4.4097,4.3678,4.3529,4.3678,4.3678,4.3529,4.3678,4.4007,4.4556,4.4556,4.4825,2.4766,2.6324,2.8003,2.6352,2.581,2.6538,2.9869,2.9464,2.9082,3.1576,3.1149,0.0,0.0,3.1263,3.387,3.6722,3.9163,0.0,0.0,0.0,0.0,0.0,0.0,0.0,0.0,0.0,0.0,0.0,0.0,0.0,3.9747,3.9747,3.9496,3.8994,3.8969,3.8668,3.814,3.8115,3.8642,3.9697,3.917,3.8969,3.8894,3.8316,3.8347,3.8792,3.8845,3.8536,3.8113,3.8036,3.7453,3.6499,3.6452,3.6405,3.6405,3.6405,3.6405,3.6405,3.6405,3.6405,3.6742,3.9011,3.9861,4.0462,4.2829,4.3645,4.4297,4.6636,4.7309,4.7309,4.7309,4.7309,4.7309,4.7309,4.7309,4.7309,4.7309,4.7309,4.7309,4.7309,4.7309,4.7309,4.7309,4.7309,4.7309,4.7309,4.7309,4.7309,4.7309,4.7309,4.7309,4.7309,4.7309,4.7309,4.7309,4.7309,4.7249,4.716,4.5933,4.5514,4.6142,4.5514,4.4855,4.4257,4.4855,4.4855,4.4257,4.4855,4.5185,4.5214,4.5214,4.5244,2.6275,2.7254,2.8095,2.7873,2.7727,2.841,3.1261,3.1941,3.2306,3.3361,3.3695,0.0,0.0,0.0,3.6548,3.8266,0.0,0.0,0.0,0.0,0.0,0.0,0.0,0.0,0.0,0.0,0.0,0.0,0.0,0.0,3.9195,3.917,3.8919,3.8341,3.8341,3.8241,3.8015,3.8015,3.8216,3.8642,3.8442,3.8165,3.7814,3.7588,3.7807,3.8359,3.7645,3.8064,3.9119,3.7652,3.7196,3.7356,3.6662,3.6405,3.6405,3.6405,3.6405,3.6405,3.6405,3.6373,3.6553,3.7485,4.0867,4.426,4.2939,4.4106,4.6065,4.7046,4.7309,4.7309,4.7309,4.7309,4.7309,4.7309,4.7309,4.7309,4.7309,4.7309,4.7309,4.7309,4.7309,4.7309,4.7309,4.7309,4.7309,4.7309,4.7309,4.7309,4.7309,4.7309,4.7309,4.7309,4.7309,4.7309,4.7309,4.7309,4.7309,4.7309,4.6441,4.6052,4.6279,4.5663,4.5185,4.4915,4.5155,4.5185,4.4915,4.5185,4.5514,4.5933,4.5933,4.6172,2.6469,2.6866,2.72,2.7622,2.8333,2.9656,3.2421,3.3523,3.4413,3.5878,3.6166,3.6018,3.5603,0.0,0.0,0.0,0.0,0.0,0.0,0.0,0.0,0.0,0.0,0.0,0.0,0.0,0.0,0.0,0.0,0.0,0.0,3.8693,3.8341,3.7764,3.7739,3.7663,3.7487,3.7487,3.7487,3.7487,3.7487,3.7387,3.7186,3.701,3.7394,3.8062,3.7289,3.8055,3.9763,3.7763,3.7196,3.7494,3.6709,3.6405,3.6405,3.6405,3.6713,3.7211,3.7852,3.7366,3.6799,3.9101,4.3217,4.6845,4.4311,4.5332,4.7309,4.7309,4.7309,4.7309,4.7309,4.7309,4.7309,4.7309,4.7309,4.7309,4.7309,4.7309,4.7309,4.7309,4.7309,4.7309,4.7309,4.7309,4.7309,4.7309,4.7309,4.7309,4.7309,4.7309,4.7309,4.7309,4.7309,4.7309,4.7309,4.7309,4.7309,4.7309,4.689,4.6621,4.6621,4.6172,4.5843,4.5633,4.5813,4.5813,4.5633,4.5813,4.6172,4.6621,4.6621,4.686,2.4891,2.5062,2.5536,2.5107,2.694,2.9775,3.3369,3.3873,3.4936,3.955,3.8498,3.6981,3.7482,3.7189,0.0,0.0,0.0,0.0,0.0,0.0,0.0,0.0,0.0,0.0,0.0,0.0,0.0,0.0,0.0,0.0,0.0,3.8316,3.7739,3.7186,3.7186,3.6958,3.6405,3.6405,3.6405,3.6405,3.6405,3.6707,3.7161,3.6656,3.701,3.8107,3.8062,3.8762,3.9802,3.8622,3.7402,3.6405,3.6405,3.6405,3.6405,3.6405,3.7392,3.9013,4.1104,3.9427,3.7626,4.4935,4.7318,4.7303,4.7312,4.7309,4.7309,4.7309,4.7309,4.7309,4.7309,4.7309,4.7309,4.7309,4.7309,4.7309,4.7309,4.7309,4.7309,4.7309,4.7309,4.7309,4.7309,4.7309,4.7309,4.7309,4.7309,4.7309,4.7309,4.7309,4.7309,4.7309,4.7309,4.7309,4.7309,4.7309,4.7309,4.7309,4.7309,4.7309,4.7309,4.7309,4.701,4.6309,4.698,4.698,4.6279,4.698,4.7309,4.7309,4.7309,4.7309,2.5527,2.6498,2.7562,2.6638,0.0,0.0,3.4158,3.4956,3.6163,0.0,3.8969,3.7738,3.8168,0.0,0.0,0.0,0.0,0.0,0.0,0.0,0.0,0.0,0.0,0.0,0.0,0.0,0.0,0.0,0.0,0.0,0.0,3.7513,3.7186,3.6681,3.6656,3.6581,3.6405,3.6405,3.6405,3.6405,3.6405,3.648,3.6656,3.648,3.7006,3.8039,3.7283,3.8009,3.9806,3.8595,3.7402,3.6405,3.6405,3.6405,3.6499,3.7289,3.8195,3.9314,4.1432,4.1307,4.0974,4.5726,4.7302,4.7298,4.7296,4.7309,4.7309,4.7309,4.7309,4.7309,4.7309,4.7309,4.7309,4.7309,4.7309,4.7309,4.7309,4.7309,4.7309,4.7309,4.7309,4.7309,4.7309,4.7309,4.7309,4.7309,4.7309,4.7309,4.7309,4.7309,4.7309,4.7309,4.7309,4.7309,4.7309,4.7309,4.7309,4.7309,4.7309,4.7309,4.7309,4.7309,4.7219,4.701,4.7219,4.7219,4.701,4.7219,4.7309,4.7309,4.7309,4.7309,2.4805,2.555,2.6708,2.754,3.0042,3.3221,3.6513,0.0,0.0,0.0,4.0482,3.9715,3.9383,3.9677,0.0,0.0,0.0,0.0,0.0,0.0,0.0,0.0,0.0,0.0,0.0,0.0,0.0,0.0,0.0,0.0,0.0,3.6985,3.6757,3.6405,3.6405,3.6405,3.6405,3.6405,3.6405,3.6405,3.6405,3.6405,3.6405,3.6405,3.6745,3.7424,3.7696,3.8043,3.8541,3.8738,3.7861,3.6405,3.6405,3.6405,3.6546,3.7678,3.8637,3.969,4.1635,4.2708,4.3632,4.6416,4.7285,4.7309,4.7309,4.7309,4.7309,4.7309,4.7309,4.7309,4.7309,4.7309,4.7309,4.7309,4.7309,4.7309,4.7309,4.7309,4.7309,4.7309,4.7309,4.7309,4.7309,4.7309,4.7309,4.7309,4.7309,4.7309,4.7309,4.7309,4.7309,4.7309,4.7309,4.7309,4.7309,4.7309,4.7309,4.7309,4.7309,4.7309,4.7309,4.7309,4.7309,4.7309,4.7309,4.7309,4.7309,4.7309,4.7309,4.7309,4.7309,4.7309,2.3569,2.3565,2.4528,2.8106,3.1383,0.0,3.9802,4.1721,4.2502,4.2507,0.0,4.2372,4.1106,0.0,0.0,0.0,0.0,0.0,0.0,0.0,0.0,0.0,0.0,0.0,0.0,0.0,0.0,0.0,0.0,0.0,0.0,3.6581,3.6304,3.6405,3.6355,3.6329,3.6332,3.6332,3.6355,3.6471,3.6355,3.638,3.6546,3.6452,3.6452,3.6662,3.8783,3.8541,3.6709,3.8827,3.8405,3.6405,3.6405,3.6405,3.6546,3.7815,3.8988,4.0209,4.1894,4.377,4.5687,4.6903,4.7322,4.7322,4.7309,4.7309,4.7309,4.7309,4.7309,4.7309,4.7309,4.7309,4.7309,4.7309,4.7309,4.7309,4.7309,4.7309,4.7309,4.7309,4.7309,4.7309,4.7309,4.7309,4.7309,4.7309,4.7309,4.7309,4.7309,4.7309,4.7309,4.7309,4.7309,4.7309,4.7309,4.7309,4.7309,4.7309,4.7309,4.7309,4.7309,4.7309,4.7309,4.7309,4.7309,4.7309,4.7309,4.7309,4.7309,4.7309,4.7309,4.7309,2.5743,2.6399,0.0,2.9139,3.3356,3.7819,4.0821,4.2401,4.3227,4.3266,4.3313,4.3341,0.0,0.0,0.0,0.0,0.0,0.0,0.0,0.0,0.0,0.0,0.0,0.0,0.0,0.0,0.0,0.0,0.0,0.0,3.6531,3.5604,3.5479,3.638,3.5949,3.5683,3.568,3.568,3.6142,0.0,3.6168,3.6413,3.7723,3.6803,3.6896,3.7769,3.8243,3.8198,3.7769,3.8289,3.7678,3.6405,3.6405,3.6405,3.6662,3.8738,3.9969,4.0912,4.3115,4.5196,4.6951,4.7214,4.731,4.7297,4.7292,4.7309,4.7309,4.7309,4.7309,4.7309,4.7309,4.7309,4.7309,4.7309,4.7309,4.7309,4.7309,4.7309,4.7309,4.7309,4.7309,4.7309,4.7309,4.7309,4.7309,4.7309,4.7309,4.7309,4.7309,4.7309,4.7309,4.7309,4.7309,4.7309,4.7309,4.7309,4.7309,4.7309,4.7309,4.7309,4.7309,4.7309,4.7309,4.7309,4.7309,4.7309,4.7309,4.7309,4.7309,4.7309,4.7309,4.7309,2.557,0.0,0.0,3.0902,0.0,3.8461,4.1159,4.2409,4.3286,4.4177,4.4378,0.0,0.0,0.0,0.0,0.0,0.0,0.0,0.0,0.0,0.0,0.0,0.0,0.0,0.0,0.0,0.0,0.0,0.0,3.4977,3.5554,3.5027,3.4981,3.5565,3.5278,3.5119,3.5127,3.5112,3.568,3.6826,3.6171,3.6824,3.8441,3.7593,3.7861,3.8961,3.8961,3.8649,3.8107,3.8107,3.7402,3.6405,3.6405,3.6709,3.7428,3.9227,4.0427,4.144,4.3196,4.4526,4.5481,4.6124,4.6791,4.7292,4.7306,4.7309,4.7309,4.7309,4.7309,4.7309,4.7309,4.7309,4.7309,4.7309,4.7309,4.7309,4.7309,4.7652,4.7802,4.7369,4.7652,4.7892,4.7788,4.7788,4.7668,4.7369,4.7309,4.7309,4.7309,4.7309,4.7309,4.7309,4.7309,4.7309,4.7309,4.7309,4.7309,4.7309,4.7309,4.7309,4.7309,4.7309,4.7309,4.7309,4.7309,4.7309,4.7309,4.7309,4.7309,4.7309,4.7309,4.7309,2.5217,2.5612,2.7013,3.2237,3.5273,0.0,4.0125,4.1279,4.2286,4.3986,0.0,0.0,0.0,0.0,0.0,0.0,0.0,0.0,0.0,0.0,0.0,0.0,0.0,0.0,0.0,0.0,0.0,0.0,0.0,3.4525,3.468,3.455,3.451,3.4678,3.4605,3.4549,3.4544,3.4745,3.5388,3.6468,3.6724,3.7636,3.9019,3.8678,3.9163,4.0189,4.0,3.9316,3.8379,3.8198,3.7402,3.6405,3.6405,3.7103,3.8243,3.9448,4.0618,4.174,4.2895,4.3297,4.3504,4.4768,4.6172,4.7317,4.7306,4.7309,4.7309,4.7309,4.7309,4.7309,4.7309,4.7309,4.7309,4.7309,4.7309,4.7309,4.7309,4.7862,4.8145,4.7429,4.8025,4.8535,4.8491,4.8356,4.8087,4.7549,4.7369,4.7309,4.7309,4.7309,4.7309,4.7309,4.7309,4.7309,4.7309,4.7309,4.7309,4.7309,4.7309,4.7309,4.7309,4.7309,4.7309,4.7309,4.7309,4.7309,4.7309,4.7309,4.7309,4.7309,4.7309,4.7309,2.7513,0.0,3.034,0.0,3.3472,3.536,0.0,0.0,3.8589,0.0,0.0,0.0,0.0,0.0,0.0,0.0,0.0,0.0,0.0,0.0,0.0,0.0,0.0,0.0,0.0,0.0,0.0,0.0,3.3847,3.3721,3.4675,3.3822,3.3746,3.468,3.4262,3.4016,3.3981,3.4936,3.5964,3.7107,3.8472,3.9304,3.951,4.0016,4.0697,4.1337,4.0318,3.9826,3.9579,3.8514,3.7402,3.6405,3.6405,3.7103,3.8243,3.9448,4.0618,4.1782,4.289,4.331,4.3449,4.443,4.5932,4.7297,4.7332,4.7309,4.7309,4.7309,4.7309,4.7309,4.7309,4.7309,4.7309,4.7309,4.7309,4.7309,4.7309,4.7399,4.7429,4.7309,4.8025,4.8729,4.909,4.8656,4.8267,4.8177,4.7668,4.7309,4.7309,4.7309,4.7309,4.7309,4.7309,4.7309,4.7309,4.7309,4.7309,4.7309,4.7309,4.7309,4.7309,4.7309,4.7309,4.7309,4.7309,4.7309,4.7309,4.7309,4.7309,4.7309,4.7309,4.7309,2.7198,2.8438,2.9668,0.0,3.1462,3.2846,3.436,0.0,0.0,0.0,0.0,0.0,0.0,0.0,0.0,0.0,0.0,0.0,0.0,0.0,0.0,0.0,0.0,0.0,0.0,0.0,0.0,0.0,3.3345,3.3294,3.3771,3.3345,3.3294,3.3796,3.355,3.3449,3.3452,3.4496,3.5894,3.7546,3.9237,4.0038,4.0068,4.0753,4.1195,4.1449,4.0637,3.9915,3.9231,3.8034,3.7071,3.6452,3.7103,3.8088,3.9271,4.0447,4.1545,4.2629,4.313,4.329,4.3499,4.4654,4.5578,4.6328,4.7096,4.7309,4.7309,4.7309,4.7309,4.7309,4.7309,4.7309,4.7309,4.7309,4.7309,4.7309,4.7309,4.7682,4.8085,4.8367,4.8429,4.8371,4.8177,4.8237,4.8147,4.7788,4.7489,4.7309,4.7309,4.7309,4.7309,4.7309,4.7309,4.7309,4.7309,4.7309,4.7309,4.7309,4.7309,4.7459,4.7848,4.7489,4.7489,4.7848,4.7489,4.7309,4.7309,4.7309,4.7309,4.7309,4.7309,4.7309,0.0,0.0,2.8485,2.9076,2.9758,3.07,0.0,0.0,0.0,0.0,0.0,0.0,0.0,0.0,0.0,0.0,0.0,0.0,0.0,0.0,0.0,0.0,0.0,0.0,0.0,0.0,0.0,0.0,3.3111,3.3111,3.3111,3.3111,3.3111,3.3111,3.2928,3.2928,3.3111,3.4428,3.612,3.8219,3.9521,4.0157,4.0157,4.0816,4.1025,4.0898,4.0832,4.0163,3.8978,3.7828,3.7235,3.7103,3.767,3.8915,4.0447,4.1295,4.2316,4.329,4.329,4.3409,4.3738,4.4915,4.5424,4.5783,4.695,4.7309,4.7309,4.7309,4.7309,4.7309,4.7309,4.7309,4.7309,4.7309,4.7309,4.7309,4.7309,4.7802,4.8399,4.8966,4.8683,4.8281,4.7848,4.8087,4.8117,4.7638,4.7429,4.7309,4.7309,4.7309,4.7309,4.7309,4.7309,4.7309,4.7309,4.7459,4.7549,4.7549,4.7698,4.8027,4.8506,4.8057,4.8027,4.8536,4.8057,4.7728,4.7549,4.7728,4.7728,4.7549,4.7549,4.7459,0.0,2.7683,0.0,2.7768,2.849,0.0,0.0,0.0,0.0,0.0,0.0,0.0,0.0,0.0,0.0,0.0,0.0,0.0,0.0,0.0,0.0,0.0,0.0,0.0,0.0,0.0,0.0,0.0,3.3111,3.3111,3.3111,3.3111,3.3111,3.3111,3.2532,3.2548,3.3111,3.5116,3.7214,3.9301,3.9403,3.9433,3.9463,4.0157,4.0098,3.9553,4.0838,4.0694,3.9465,3.8462,3.8323,3.8659,3.7731,3.9031,4.1504,4.1587,4.2316,4.329,4.329,4.3708,4.4377,4.5065,4.5753,4.6411,4.71,4.7309,4.7309,4.7309,4.7309,4.7309,4.7309,4.7309,4.7309,4.7309,4.7309,4.7309,4.7309,4.7339,4.7549,4.8221,4.8475,4.8685,4.912,4.8686,4.8267,4.8237,4.7698,4.7309,4.7309,4.7309,4.7309,4.7309,4.7309,4.7309,4.7309,4.7878,4.8237,4.8237,4.8805,4.9209,4.9269,4.9209,4.9209,4.9269,4.9209,4.8865,4.8237,4.891,4.888,4.8237,4.8237,4.7908,0.0,0.0,0.0,2.769,2.7934,2.8307,0.0,0.0,0.0,0.0,0.0,0.0,0.0,0.0,0.0,0.0,0.0,0.0,0.0,0.0,0.0,0.0,0.0,0.0,0.0,0.0,0.0,0.0,0.0,3.2001,3.2001,3.2005,3.2022,3.2005,3.1801,3.2625,3.458,3.5307,3.6959,3.9373,3.9373,3.9373,3.9403,3.9679,3.9649,3.9439,3.9918,3.9711,3.8993,3.8581,3.8346,3.8337,3.9103,4.0052,4.1081,4.225,4.2941,4.329,4.329,4.3439,4.3828,4.4945,4.5454,4.5873,4.698,4.7309,4.7309,4.7309,4.7309,4.7309,4.7309,4.7309,4.7309,4.7309,4.7309,4.7309,4.7309,4.7309,4.7369,4.7608,4.7742,4.7832,4.7967,4.7818,4.7788,4.8237,4.7728,4.7459,4.7878,4.7578,4.7309,4.7309,4.7698,4.7938,4.7938,4.8536,4.897,4.897,4.9179,4.9464,4.9883,4.9494,4.9464,4.9883,4.9883,4.9553,4.897,4.9209,4.9179,4.897,4.897,4.882,2.7791,0.0,0.0,0.0,0.0,2.7524,0.0,0.0,0.0,0.0,0.0,0.0,0.0,0.0,0.0,0.0,0.0,0.0,0.0,0.0,0.0,0.0,0.0,0.0,0.0,0.0,0.0,0.0,0.0,0.0,3.1387,3.1372,3.1312,3.1145,3.1603,3.2804,3.4758,3.5515,3.6917,3.908,3.932,3.9373,3.9373,3.9373,3.9373,3.9373,3.9373,3.9217,3.8897,3.8525,3.8482,3.8831,3.9929,4.0665,4.1357,4.2783,4.329,4.329,4.329,4.3439,4.3798,4.4945,4.5454,4.5843,4.698,4.7309,4.7309,4.7309,4.7309,4.7309,4.7309,4.7309,4.7309,4.7309,4.7309,4.7309,4.7309,4.7309,4.7309,4.7309,4.7309,4.7309,4.7309,4.7309,4.7519,4.8177,4.7728,4.7549,4.8207,4.7698,4.7309,4.7309,4.7908,4.8297,4.8297,4.9105,4.9583,4.9583,4.9793,5.0122,5.0495,5.0152,5.0122,5.0524,5.0524,5.0361,4.9912,4.9912,4.9823,4.9583,4.9583,4.9434,0.0,0.0,0.0,0.0,0.0,0.0,0.0,0.0,0.0,0.0,0.0,0.0,0.0,0.0,0.0,0.0,0.0,0.0,0.0,0.0,0.0,0.0,0.0,0.0,0.0,0.0,0.0,0.0,3.1361,3.1323,3.1333,3.1352,3.1113,3.0598,3.2006,3.3055,3.3605,3.5699,3.7339,3.8422,3.911,3.9373,3.9373,3.9373,3.9373,3.9373,3.9373,3.9373,3.9301,3.8256,3.8852,4.0345,3.9994,4.0901,4.247,4.309,4.329,4.329,4.329,4.3708,4.4407,4.5065,4.5753,4.6369,4.71,4.7309,4.7309,4.7309,4.7309,4.7309,4.7309,4.7309,4.7309,4.7309,4.7309,4.7309,4.7309,4.7309,4.7309,4.7309,4.7309,4.7309,4.7309,4.7309,4.7549,4.8207,4.7788,4.7608,4.8237,4.7758,4.7369,4.7339,4.7938,4.8356,4.8356,4.9523,5.0226,5.0226,5.0823,5.1229,5.1229,5.1229,5.1229,5.1229,5.1229,5.1229,5.1229,5.1229,5.09,5.0226,5.0226,4.9656,2.8727,0.0,0.0,0.0,0.0,0.0,0.0,0.0,0.0,0.0,0.0,0.0,0.0,0.0,0.0,0.0,0.0,0.0,0.0,0.0,0.0,0.0,0.0,0.0,0.0,0.0,0.0,0.0,3.0456,3.0227,3.0269,3.0234,3.0188,3.0035,3.1071,3.2487,3.4279,3.5573,3.7207,3.914,3.932,3.9373,3.9373,3.9373,3.9373,3.9373,3.9373,3.9373,3.9373,3.9053,3.9512,4.042,4.0783,4.1581,4.247,4.309,4.329,4.329,4.329,4.3409,4.3738,4.4915,4.5424,4.5783,4.695,4.7309,4.7309,4.7309,4.7309,4.7309,4.7309,4.7309,4.7309,4.7309,4.7309,4.7309,4.7309,4.7309,4.7309,4.7309,4.7309,4.7309,4.7309,4.7698,4.8237,4.894,4.888,4.882,4.903,4.888,4.8536,4.8057,4.9015,4.9657,4.9657,5.0451,5.0913,5.0913,5.1109,5.1229,5.1229,5.1229,5.1229,5.1229,5.1229,5.1229,5.1229,5.1229,5.1109,5.0913,5.0913,5.0764,2.9175,2.8816,2.8427,0.0,0.0,0.0,2.7428,2.7244,2.7047,0.0,0.0,0.0,0.0,0.0,0.0,0.0,0.0,0.0,0.0,0.0,0.0,0.0,0.0,0.0,0.0,3.1584,3.0713,3.0318,2.9965,2.9804,2.9804,2.9804,3.0112,3.0778,3.1686,3.3156,3.5159,3.6389,3.7659,3.899,3.929,3.9373,3.9373,3.9373,3.9373,3.9373,3.9373,3.9373,3.9403,3.9709,4.0068,4.0487,4.1482,4.2051,4.247,4.309,4.329,4.329,4.329,4.329,4.3499,4.4855,4.5304,4.5544,4.689,4.7309,4.7309,4.7309,4.7309,4.7309,4.7309,4.7309,4.7309,4.7309,4.7309,4.7309,4.7309,4.7309,4.7309,4.7309,4.7309,4.7399,4.7668,4.8027,4.8596,4.9523,4.9434,4.9299,4.9299,4.9299,4.906,4.8356,4.9464,5.0196,5.0196,5.0794,5.1229,5.1229,5.1229,5.1229,5.1229,5.1229,5.1229,5.1229,5.1229,5.1229,5.1229,5.1229,5.1229,5.1229,5.1229,5.1229,2.9777,2.9146,2.8517,0.0,0.0,0.0,2.7617,2.7317,2.6921,0.0,0.0,0.0,0.0,0.0,0.0,0.0,0.0,0.0,0.0,0.0,0.0,0.0,0.0,0.0,3.2582,3.1736,3.0791,2.9868,2.9804,2.9804,2.9804,2.9804,3.0548,3.214,3.31,3.4421,3.6072,3.7641,3.8422,3.8512,3.914,3.9373,3.9373,3.9373,3.9373,3.9373,3.9373,3.9469,3.9589,4.0247,4.0516,4.0636,4.1901,4.244,4.256,4.312,4.329,4.329,4.329,4.329,4.3499,4.4796,4.5185,4.5424,4.68,4.7189,4.7219,4.7279,4.7309,4.7309,4.7309,4.7309,4.7309,4.7309,4.7309,4.7309,4.7309,4.7309,4.7339,4.7399,4.7429,4.7608,4.8177,4.8416,4.8895,5.0016,4.9793,4.9509,4.9419,4.9479,4.9224,4.8566,4.9613,5.0315,5.0315,5.096,5.1319,5.1319,5.1379,5.1439,5.1439,5.1439,5.1391,5.1362,5.1272,5.1212,5.1212,5.1182,5.1229,5.1229,5.1229,5.1229,0.0,0.0,0.0,0.0,0.0,0.0,2.7591,2.713,2.664,0.0,0.0,0.0,0.0,0.0,0.0,0.0,0.0,0.0,0.0,0.0,0.0,0.0,0.0,0.0,3.1935,3.1435,3.0791,2.9868,2.9804,2.9804,2.9804,2.9804,3.0548,3.214,3.31,3.4618,3.6764,3.7878,3.8661,3.923,3.9349,3.9373,3.9373,3.9373,3.9373,3.9373,3.9373,3.9709,4.0277,4.0905,4.1175,4.1265,4.2081,4.2671,4.311,4.326,4.329,4.329,4.329,4.329,4.3409,4.4257,4.4496,4.4766,4.6112,4.6531,4.6621,4.716,4.7309,4.7309,4.7309,4.7309,4.7309,4.7309,4.7309,4.7309,4.7309,4.7309,4.7459,4.7997,4.8087,4.8147,4.8267,4.9164,4.9897,5.0166,5.0571,5.0631,5.0076,5.0511,5.0571,4.9897,5.0495,5.102,5.102,5.1618,5.2007,5.2007,5.2516,5.2785,5.2785,5.2785,5.2647,5.2215,5.1572,5.1197,5.1197,5.1178,5.1229,5.1229,5.1229,5.1229,0.0,0.0,0.0,2.8427,0.0,0.0,0.0,2.7591,2.7289,0.0,0.0,0.0,0.0,0.0,0.0,0.0,0.0,0.0,0.0,0.0,0.0,0.0,0.0,0.0,3.074,3.106,3.0945,2.9868,2.9804,2.9804,2.9804,3.0561,3.1486,3.2564,3.4353,3.5972,3.7391,3.8404,3.908,3.9373,3.9373,3.9373,3.9373,3.9373,3.9373,3.9373,3.9373,3.9798,4.0427,4.0756,4.1294,4.1961,4.2581,4.303,4.329,4.329,4.329,4.329,4.329,4.329,4.3409,4.4067,4.4526,4.5005,4.598,4.6518,4.689,4.7219,4.7309,4.7309,4.7309,4.7309,4.7309,4.7309,4.7309,4.7309,4.7309,4.7309,4.7489,4.8147,4.8566,4.8865,4.9194,4.9747,5.0315,5.0644,5.0973,5.0943,5.0285,5.0764,5.096,5.0255,5.0794,5.1229,5.1229,5.1828,5.2187,5.2187,5.2815,5.3174,5.3174,5.3174,5.3174,5.3174,5.2275,5.1839,5.1864,5.1858,5.1601,5.122,5.1523,5.1528,0.0,0.0,0.0,0.0,0.0,2.8482,0.0,0.0,0.0,0.0,0.0,0.0,0.0,0.0,0.0,0.0,0.0,0.0,0.0,0.0,0.0,0.0,0.0,0.0,0.0,3.0529,3.0777,2.9882,2.9715,2.9715,2.9804,3.1125,3.2302,3.326,3.5507,3.7143,3.8107,3.898,3.9373,3.9373,3.9373,3.9373,3.9373,3.9373,3.9373,3.9373,3.9373,3.9798,4.0397,4.0397,4.1085,4.2261,4.288,4.32,4.329,4.329,4.329,4.329,4.329,4.329,4.3379,4.3917,4.4556,4.5214,4.5753,4.6501,4.713,4.713,4.7219,4.7309,4.7309,4.7309,4.7309,4.7309,4.7309,4.7309,4.7309,4.7309,4.7549,4.8327,4.894,4.9464,5.0076,5.0315,5.0554,5.1139,5.1229,5.102,5.0435,5.09,5.102,5.0435,5.09,5.1229,5.1229,5.1947,5.2336,5.2217,5.2935,5.3324,5.3174,5.3283,5.3609,5.4134,5.3391,5.2995,5.3038,5.284,5.2247,5.1226,5.1762,5.1738,0.0,0.0,0.0,0.0,2.8607,0.0,0.0,0.0,0.0,0.0,0.0,0.0,0.0,0.0,0.0,0.0,0.0,0.0,0.0,0.0,0.0,0.0,0.0,0.0,0.0,2.9536,2.9552,2.9781,2.946,2.9397,2.9779,3.0421,3.1915,3.4331,3.5176,3.6769,3.9162,3.9337,3.9373,3.9373,3.9373,3.9373,3.9373,3.9373,3.9373,3.9373,3.9373,3.9798,4.0397,4.0397,4.0816,4.1602,4.2261,4.2821,4.329,4.329,4.329,4.329,4.329,4.329,4.329,4.3379,4.3898,4.4436,4.4526,4.5424,4.6399,4.6399,4.686,4.7309,4.7309,4.7309,4.7309,4.7309,4.7309,4.7309,4.7309,4.7309,4.7668,4.897,4.9269,4.9464,5.0076,5.0674,5.1139,5.1199,5.1229,5.1199,5.1109,5.1169,5.1199,5.1063,5.1169,5.1229,5.1229,5.2366,5.2815,5.2247,5.3384,5.3832,5.3204,5.3609,5.4213,5.5068,5.4959,5.4873,5.4868,5.4097,5.2888,5.1212,5.1272,5.1289,0.0,0.0,0.0,0.0,0.0,0.0,2.8577,0.0,2.7649,0.0,0.0,0.0,0.0,0.0,0.0,0.0,2.6994,0.0,0.0,0.0,0.0,0.0,0.0,0.0,0.0,0.0,0.0,0.0,2.944,2.9376,2.9793,3.12,3.2516,3.3646,3.569,3.7329,3.8472,3.909,3.9373,3.9373,3.9373,3.9373,3.9373,3.9373,3.9373,3.9373,3.9373,3.9798,4.0367,3.9978,4.0666,4.1991,4.1871,4.2192,4.2821,4.314,4.329,4.329,4.329,4.329,4.3349,4.3738,4.4347,4.4885,4.4885,4.5813,4.68,4.6399,4.68,4.7309,4.7309,4.7309,4.7309,4.7309,4.7309,4.7309,4.7309,4.7309,4.7578,4.8506,4.906,4.9464,5.0076,5.0734,5.1229,5.1229,5.1229,5.1229,5.1229,5.1229,5.1229,5.1229,5.1229,5.1229,5.1229,5.2067,5.2486,5.2217,5.3084,5.3653,5.3773,5.3991,5.4419,5.517,5.52,5.503,5.461,5.425,5.3511,5.2366,5.2366,5.1947,3.3634,0.0,0.0,0.0,0.0,0.0,0.0,0.0,0.0,0.0,0.0,0.0,0.0,0.0,0.0,0.0,0.0,0.0,0.0,0.0,0.0,0.0,0.0,0.0,0.0,0.0,0.0,2.9566,2.9272,2.9272,2.9781,3.1576,3.2817,3.3441,3.599,3.7625,3.8219,3.9017,3.9373,3.9373,3.9373,3.9373,3.9373,3.9373,3.9373,3.9373,3.9373,3.9679,4.0098,3.9619,4.0367,4.1841,4.1542,4.1811,4.247,4.309,4.329,4.329,4.329,4.329,4.3379,4.3898,4.4496,4.4975,4.4825,4.5813,4.689,4.6232,4.6651,4.7309,4.7309,4.7309,4.7309,4.7309,4.7309,4.7309,4.7309,4.7309,4.7549,4.8386,4.9,4.9523,5.0315,5.09,5.1229,5.1229,5.1229,5.1229,5.1229,5.1229,5.1289,5.1468,5.1319,5.1289,5.1468,5.1917,5.2187,5.2187,5.2665,5.3054,5.3384,5.3743,5.4162,5.464,5.482,5.479,5.4491,5.4311,5.3952,5.3443,5.3264,5.2665,0.0,0.0,0.0,3.1809,0.0,0.0,0.0,0.0,2.8595,0.0,0.0,0.0,0.0,0.0,0.0,0.0,0.0,0.0,0.0,0.0,0.0,0.0,0.0,0.0,0.0,0.0,0.0,2.9171,2.8893,2.9031,2.9756,3.0849,3.2382,3.4481,3.5654,3.7252,3.9337,3.9373,3.9373,3.9373,3.9373,3.9373,3.9373,3.9373,3.9373,3.9373,3.9373,3.9403,3.9439,3.9403,3.9828,4.0516,4.1145,4.1811,4.247,4.309,4.329,4.329,4.329,4.329,4.329,4.3319,4.3768,4.4227,4.3559,4.4725,4.6202,4.5514,4.6292,4.7309,4.7309,4.7309,4.7309,4.7309,4.7309,4.7309,4.7309,4.7309,4.7698,4.903,4.9299,4.9673,5.096,5.1199,5.1229,5.1229,5.1229,5.1229,5.1229,5.1229,5.1468,5.2097,5.1588,5.1468,5.2127,5.2187,5.2187,5.2187,5.2217,5.1947,5.1349,5.2546,5.3234,5.3234,5.3892,5.4551,5.5149,5.4521,5.4192,5.4162,5.3503,5.3144,0.0,0.0,3.6115,3.348,0.0,0.0,0.0,0.0,0.0,0.0,0.0,0.0,0.0,0.0,0.0,0.0,0.0,0.0,0.0,0.0,0.0,0.0,0.0,0.0,0.0,0.0,0.0,2.9171,2.9082,2.9265,2.9781,3.0482,3.2019,3.4519,3.5294,3.6855,3.9373,3.9373,3.9373,3.9373,3.9373,3.9373,3.9373,3.9373,3.9373,3.9373,3.9373,3.9373,3.9373,3.9373,4.0068,4.1055,4.1294,4.2043,4.303,4.32,4.329,4.329,4.329,4.329,4.329,4.329,4.4077,4.4855,4.4197,4.5394,4.683,4.6172,4.6621,4.7309,4.7309,4.7309,4.7309,4.7309,4.7309,4.7309,4.7309,4.7309,4.7578,4.8446,4.903,4.9553,5.0375,5.093,5.1229,5.1229,5.1229,5.1229,5.1229,5.1229,5.1468,5.2127,5.2007,5.1947,5.2187,5.1798,5.1738,5.2187,5.2187,5.2516,5.3174,5.3623,5.4072,5.4491,5.473,5.497,5.5179,5.497,5.485,5.485,5.461,5.4042,3.7404,3.7584,0.0,3.5148,3.5034,0.0,3.2168,0.0,0.0,0.0,0.0,0.0,0.0,0.0,0.0,0.0,0.0,0.0,0.0,2.7585,0.0,0.0,0.0,0.0,0.0,0.0,2.8518,2.8985,2.9016,2.9276,0.0,0.0,3.1915,3.4785,3.5211,3.6694,3.9373,3.9373,3.9373,3.9373,3.9373,3.9373,3.9373,3.9373,3.9559,3.9768,3.9768,3.9888,4.0127,4.0127,4.0756,4.1782,4.1782,4.2372,4.329,4.329,4.329,4.329,4.329,4.329,4.329,4.329,4.4077,4.4855,4.4436,4.5544,4.686,4.6399,4.68,4.7309,4.7309,4.7309,4.7309,4.7309,4.7309,4.7309,4.7309,4.7309,4.7489,4.8147,4.885,4.9464,5.0076,5.0734,5.1229,5.1229,5.1229,5.1229,5.1229,5.1229,5.1558,5.2456,5.2127,5.1947,5.2187,5.1588,5.1498,5.2157,5.2187,5.2606,5.3473,5.3952,5.4401,5.485,5.5059,5.5179,5.5179,5.5179,5.5179,5.5179,5.5179,5.473]}]]